Time,TemperatureF,DewpointF,PressureIn,WindDirection,WindDirectionDegrees,WindSpeedMPH,WindSpeedGustMPH,Humidity,HourlyPrecipIn,Conditions,Clouds,dailyrainin,SoftwareType,DateUTC
2013-11-12 00:00:00,46.5,33.8,30.20,SW,225,0.0,3.0,61,0.00,,---,0.00,VWS V14.01,2013-11-12 05:00:00,
2013-11-12 00:01:00,46.5,33.4,30.20,SW,233,0.0,1.0,60,0.00,,---,0.00,VWS V14.01,2013-11-12 05:01:00,
2013-11-12 00:02:00,46.5,33.4,30.20,WSW,240,2.0,2.0,60,0.00,,---,0.00,VWS V14.01,2013-11-12 05:02:00,
2013-11-12 00:03:00,46.5,33.4,30.20,SW,219,0.0,2.0,60,0.00,,---,0.00,VWS V14.01,2013-11-12 05:03:00,
2013-11-12 00:04:00,46.6,33.5,30.20,SW,229,1.0,2.0,60,0.00,,---,0.00,VWS V14.01,2013-11-12 05:04:00,
2013-11-12 00:05:00,46.6,33.5,30.19,SW,222,3.0,3.0,60,0.00,,---,0.00,VWS V14.01,2013-11-12 05:05:00,
2013-11-12 00:06:00,46.6,33.5,30.19,SSW,202,1.0,1.0,60,0.00,,---,0.00,VWS V14.01,2013-11-12 05:06:00,
2013-11-12 00:07:00,46.7,33.6,30.19,West,262,1.0,2.0,60,0.00,,---,0.00,VWS V14.01,2013-11-12 05:07:00,
2013-11-12 00:08:00,46.7,33.2,30.19,WSW,237,1.0,3.0,59,0.00,,---,0.00,VWS V14.01,2013-11-12 05:08:00,
2013-11-12 00:09:00,46.7,33.2,30.19,WSW,252,1.0,2.0,59,0.00,,---,0.00,VWS V14.01,2013-11-12 05:09:00,
2013-11-12 00:10:00,46.7,33.2,30.19,SW,229,2.0,3.0,59,0.00,,---,0.00,VWS V14.01,2013-11-12 05:10:00,
2013-11-12 00:11:00,46.8,33.2,30.19,WSW,253,2.0,3.0,59,0.00,,---,0.00,VWS V14.01,2013-11-12 05:11:00,
2013-11-12 00:12:00,46.9,33.3,30.19,WSW,257,3.0,4.0,59,0.00,,---,0.00,VWS V14.01,2013-11-12 05:12:00,
2013-11-12 00:13:00,46.9,33.3,30.19,WSW,247,2.0,3.0,59,0.00,,---,0.00,VWS V14.01,2013-11-12 05:13:00,
2013-11-12 00:14:00,47.0,33.0,30.19,WSW,249,2.0,5.0,58,0.00,,---,0.00,VWS V14.01,2013-11-12 05:14:00,
2013-11-12 00:15:00,47.0,33.0,30.19,SW,226,2.0,4.0,58,0.00,,---,0.00,VWS V14.01,2013-11-12 05:15:00,
2013-11-12 00:16:00,47.1,33.5,30.19,WSW,250,2.0,2.0,59,0.00,,---,0.00,VWS V14.01,2013-11-12 05:16:00,
2013-11-12 00:17:00,47.1,33.1,30.19,SW,223,2.0,3.0,58,0.00,,---,0.00,VWS V14.01,2013-11-12 05:17:00,
2013-11-12 00:18:00,47.1,33.1,30.19,WSW,242,2.0,3.0,58,0.00,,---,0.00,VWS V14.01,2013-11-12 05:18:00,
2013-11-12 00:19:00,47.2,33.2,30.19,WSW,237,2.0,3.0,58,0.00,,---,0.00,VWS V14.01,2013-11-12 05:19:00,
2013-11-12 00:20:00,47.2,33.2,30.19,WSW,237,4.0,4.0,58,0.00,,---,0.00,VWS V14.01,2013-11-12 05:20:00,
2013-11-12 00:21:00,47.2,33.2,30.19,WSW,246,4.0,4.0,58,0.00,,---,0.00,VWS V14.01,2013-11-12 05:21:00,
2013-11-12 00:22:00,47.3,33.3,30.19,SW,229,3.0,4.0,58,0.00,,---,0.00,VWS V14.01,2013-11-12 05:22:00,
2013-11-12 00:23:00,47.3,33.3,30.19,WSW,246,2.0,3.0,58,0.00,,---,0.00,VWS V14.01,2013-11-12 05:23:00,
2013-11-12 00:24:00,47.3,33.3,30.19,WSW,246,0.0,2.0,58,0.00,,---,0.00,VWS V14.01,2013-11-12 05:24:00,
2013-11-12 00:25:00,47.3,32.8,30.19,West,259,1.0,2.0,57,0.00,,---,0.00,VWS V14.01,2013-11-12 05:25:00,
2013-11-12 00:26:00,47.3,32.8,30.18,WSW,237,2.0,2.0,57,0.00,,---,0.00,VWS V14.01,2013-11-12 05:26:00,
2013-11-12 00:27:00,47.3,33.3,30.18,SW,221,0.0,2.0,58,0.00,,---,0.00,VWS V14.01,2013-11-12 05:27:00,
2013-11-12 00:28:00,47.3,33.3,30.19,SSW,209,1.0,4.0,58,0.00,,---,0.00,VWS V14.01,2013-11-12 05:28:00,
2013-11-12 00:29:00,47.4,33.0,30.18,West,263,2.0,3.0,57,0.00,,---,0.00,VWS V14.01,2013-11-12 05:29:00,
2013-11-12 00:30:00,47.4,33.0,30.19,WNW,284,2.0,2.0,57,0.00,,---,0.00,VWS V14.01,2013-11-12 05:30:00,
2013-11-12 00:31:00,47.5,33.0,30.18,SW,225,2.0,2.0,57,0.00,,---,0.00,VWS V14.01,2013-11-12 05:31:00,
2013-11-12 00:32:00,47.5,33.0,30.18,West,280,3.0,3.0,57,0.00,,---,0.00,VWS V14.01,2013-11-12 05:32:00,
2013-11-12 00:33:00,47.5,33.0,30.18,SW,230,3.0,4.0,57,0.00,,---,0.00,VWS V14.01,2013-11-12 05:33:00,
2013-11-12 00:34:00,47.5,33.0,30.18,West,281,0.0,3.0,57,0.00,,---,0.00,VWS V14.01,2013-11-12 05:34:00,
2013-11-12 00:35:00,47.5,33.0,30.18,SW,215,2.0,2.0,57,0.00,,---,0.00,VWS V14.01,2013-11-12 05:35:00,
2013-11-12 00:36:00,47.5,33.0,30.18,WSW,250,2.0,2.0,57,0.00,,---,0.00,VWS V14.01,2013-11-12 05:36:00,
2013-11-12 00:37:00,47.5,33.0,30.18,SSW,202,1.0,2.0,57,0.00,,---,0.00,VWS V14.01,2013-11-12 05:37:00,
2013-11-12 00:38:00,47.5,33.0,30.18,WSW,238,3.0,3.0,57,0.00,,---,0.00,VWS V14.01,2013-11-12 05:38:00,
2013-11-12 00:39:00,47.5,33.0,30.18,SW,222,2.0,3.0,57,0.00,,---,0.00,VWS V14.01,2013-11-12 05:39:00,
2013-11-12 00:40:00,47.5,33.0,30.18,SW,236,1.0,3.0,57,0.00,,---,0.00,VWS V14.01,2013-11-12 05:40:00,
2013-11-12 00:41:00,47.5,33.0,30.18,SSW,207,1.0,3.0,57,0.00,,---,0.00,VWS V14.01,2013-11-12 05:41:00,
2013-11-12 00:42:00,47.5,32.6,30.18,SW,233,1.0,2.0,56,0.00,,---,0.00,VWS V14.01,2013-11-12 05:42:00,
2013-11-12 00:43:00,47.5,33.0,30.17,SW,219,1.0,3.0,57,0.00,,---,0.00,VWS V14.01,2013-11-12 05:43:00,
2013-11-12 00:44:00,47.4,33.0,30.17,SSW,205,2.0,2.0,57,0.00,,---,0.00,VWS V14.01,2013-11-12 05:44:00,
2013-11-12 00:45:00,47.4,32.5,30.17,South,191,2.0,3.0,56,0.00,,---,0.00,VWS V14.01,2013-11-12 05:45:00,
2013-11-12 00:46:00,47.4,32.5,30.17,WSW,240,1.0,1.0,56,0.00,,---,0.00,VWS V14.01,2013-11-12 05:46:00,
2013-11-12 00:47:00,47.4,33.0,30.17,WSW,240,0.0,1.0,57,0.00,,---,0.00,VWS V14.01,2013-11-12 05:47:00,
2013-11-12 00:48:00,47.3,32.8,30.17,SW,231,1.0,2.0,57,0.00,,---,0.00,VWS V14.01,2013-11-12 05:48:00,
2013-11-12 00:49:00,47.3,32.8,30.17,West,271,3.0,3.0,57,0.00,,---,0.00,VWS V14.01,2013-11-12 05:49:00,
2013-11-12 00:50:00,47.3,32.8,30.17,SW,229,1.0,3.0,57,0.00,,---,0.00,VWS V14.01,2013-11-12 05:50:00,
2013-11-12 00:51:00,47.3,32.8,30.17,SW,227,1.0,2.0,57,0.00,,---,0.00,VWS V14.01,2013-11-12 05:51:00,
2013-11-12 00:52:00,47.2,32.8,30.17,SW,225,3.0,3.0,57,0.00,,---,0.00,VWS V14.01,2013-11-12 05:52:00,
2013-11-12 00:53:00,47.2,32.8,30.17,WSW,248,1.0,3.0,57,0.00,,---,0.00,VWS V14.01,2013-11-12 05:53:00,
2013-11-12 00:54:00,47.2,32.8,30.17,SW,218,1.0,2.0,57,0.00,,---,0.00,VWS V14.01,2013-11-12 05:54:00,
2013-11-12 00:55:00,47.1,32.7,30.17,WSW,250,1.0,2.0,57,0.00,,---,0.00,VWS V14.01,2013-11-12 05:55:00,
2013-11-12 00:56:00,47.1,32.7,30.17,WSW,250,0.0,1.0,57,0.00,,---,0.00,VWS V14.01,2013-11-12 05:56:00,
2013-11-12 00:57:00,47.1,33.1,30.17,WSW,249,1.0,1.0,58,0.00,,---,0.00,VWS V14.01,2013-11-12 05:57:00,
2013-11-12 00:58:00,47.0,33.0,30.17,WSW,250,1.0,2.0,58,0.00,,---,0.00,VWS V14.01,2013-11-12 05:58:00,
2013-11-12 00:59:00,47.0,32.6,30.17,WSW,250,0.0,1.0,57,0.00,,---,0.00,VWS V14.01,2013-11-12 05:59:00,
2013-11-12 01:00:00,46.9,32.9,30.17,WSW,250,0.0,1.0,58,0.00,,---,0.00,VWS V14.01,2013-11-12 06:00:00,
2013-11-12 01:01:00,46.9,32.9,30.17,WSW,250,0.0,0.0,58,0.00,,---,0.00,VWS V14.01,2013-11-12 06:01:00,
2013-11-12 01:02:00,46.8,32.8,30.17,SW,221,1.0,1.0,58,0.00,,---,0.00,VWS V14.01,2013-11-12 06:02:00,
2013-11-12 01:03:00,46.8,32.8,30.17,WSW,250,0.0,2.0,58,0.00,,---,0.00,VWS V14.01,2013-11-12 06:03:00,
2013-11-12 01:04:00,46.8,32.8,30.17,WSW,250,0.0,1.0,58,0.00,,---,0.00,VWS V14.01,2013-11-12 06:04:00,
2013-11-12 01:05:00,46.8,32.8,30.17,West,265,0.0,1.0,58,0.00,,---,0.00,VWS V14.01,2013-11-12 06:05:00,
2013-11-12 01:06:00,46.8,32.8,30.17,West,275,1.0,2.0,58,0.00,,---,0.00,VWS V14.01,2013-11-12 06:06:00,
2013-11-12 01:07:00,46.8,32.8,30.17,West,275,1.0,2.0,58,0.00,,---,0.00,VWS V14.01,2013-11-12 06:07:00,
2013-11-12 01:08:00,46.8,32.8,30.17,West,275,1.0,1.0,58,0.00,,---,0.00,VWS V14.01,2013-11-12 06:08:00,
2013-11-12 01:09:00,46.8,32.8,30.17,West,275,0.0,1.0,58,0.00,,---,0.00,VWS V14.01,2013-11-12 06:09:00,
2013-11-12 01:10:00,46.8,32.8,30.17,West,275,1.0,1.0,58,0.00,,---,0.00,VWS V14.01,2013-11-12 06:10:00,
2013-11-12 01:11:00,46.8,32.8,30.17,West,275,1.0,1.0,58,0.00,,---,0.00,VWS V14.01,2013-11-12 06:11:00,
2013-11-12 01:12:00,46.7,32.7,30.17,West,275,0.0,1.0,58,0.00,,---,0.00,VWS V14.01,2013-11-12 06:12:00,
2013-11-12 01:13:00,46.7,32.7,30.17,West,275,1.0,1.0,58,0.00,,---,0.00,VWS V14.01,2013-11-12 06:13:00,
2013-11-12 01:14:00,46.6,32.6,30.16,West,275,0.0,1.0,58,0.00,,---,0.00,VWS V14.01,2013-11-12 06:14:00,
2013-11-12 01:15:00,46.6,32.6,30.16,West,275,0.0,0.0,58,0.00,,---,0.00,VWS V14.01,2013-11-12 06:15:00,
2013-11-12 01:16:00,46.5,32.5,30.16,West,275,0.0,0.0,58,0.00,,---,0.00,VWS V14.01,2013-11-12 06:16:00,
2013-11-12 01:17:00,46.5,32.5,30.16,West,275,0.0,0.0,58,0.00,,---,0.00,VWS V14.01,2013-11-12 06:17:00,
2013-11-12 01:18:00,46.5,33.0,30.16,West,275,0.0,0.0,59,0.00,,---,0.00,VWS V14.01,2013-11-12 06:18:00,
2013-11-12 01:19:00,46.4,32.9,30.16,West,275,0.0,0.0,59,0.00,,---,0.00,VWS V14.01,2013-11-12 06:19:00,
2013-11-12 01:20:00,46.3,32.8,30.16,West,275,0.0,0.0,59,0.00,,---,0.00,VWS V14.01,2013-11-12 06:20:00,
2013-11-12 01:21:00,46.3,32.8,30.16,West,272,0.0,0.0,59,0.00,,---,0.00,VWS V14.01,2013-11-12 06:21:00,
2013-11-12 01:22:00,46.2,32.7,30.16,West,272,0.0,0.0,59,0.00,,---,0.00,VWS V14.01,2013-11-12 06:22:00,
2013-11-12 01:23:00,46.2,32.7,30.16,West,272,0.0,0.0,59,0.00,,---,0.00,VWS V14.01,2013-11-12 06:23:00,
2013-11-12 01:24:00,46.1,32.6,30.16,West,272,0.0,0.0,59,0.00,,---,0.00,VWS V14.01,2013-11-12 06:24:00,
2013-11-12 01:25:00,46.1,32.6,30.16,West,272,0.0,0.0,59,0.00,,---,0.00,VWS V14.01,2013-11-12 06:25:00,
2013-11-12 01:26:00,46.1,32.6,30.16,West,271,0.0,0.0,59,0.00,,---,0.00,VWS V14.01,2013-11-12 06:26:00,
2013-11-12 01:27:00,46.1,32.6,30.16,West,272,0.0,0.0,59,0.00,,---,0.00,VWS V14.01,2013-11-12 06:27:00,
2013-11-12 01:28:00,46.0,32.5,30.16,West,271,0.0,0.0,59,0.00,,---,0.00,VWS V14.01,2013-11-12 06:28:00,
2013-11-12 01:29:00,46.0,32.5,30.16,West,271,0.0,0.0,59,0.00,,---,0.00,VWS V14.01,2013-11-12 06:29:00,
2013-11-12 01:30:00,46.0,32.5,30.16,SSW,202,0.0,0.0,59,0.00,,---,0.00,VWS V14.01,2013-11-12 06:30:00,
2013-11-12 01:31:00,45.9,32.4,30.16,SSW,202,0.0,0.0,59,0.00,,---,0.00,VWS V14.01,2013-11-12 06:31:00,
2013-11-12 01:32:00,45.9,32.4,30.16,SSW,202,0.0,0.0,59,0.00,,---,0.00,VWS V14.01,2013-11-12 06:32:00,
2013-11-12 01:33:00,45.9,32.4,30.16,SSW,202,0.0,0.0,59,0.00,,---,0.00,VWS V14.01,2013-11-12 06:33:00,
2013-11-12 01:34:00,45.9,32.4,30.16,SSW,201,0.0,0.0,59,0.00,,---,0.00,VWS V14.01,2013-11-12 06:34:00,
2013-11-12 01:35:00,45.8,32.7,30.16,SSW,202,0.0,0.0,60,0.00,,---,0.00,VWS V14.01,2013-11-12 06:35:00,
2013-11-12 01:36:00,45.8,32.7,30.16,SW,225,2.0,2.0,60,0.00,,---,0.00,VWS V14.01,2013-11-12 06:36:00,
2013-11-12 01:37:00,45.8,32.7,30.16,WSW,240,0.0,2.0,60,0.00,,---,0.00,VWS V14.01,2013-11-12 06:37:00,
2013-11-12 01:38:00,45.8,32.7,30.16,WSW,240,0.0,0.0,60,0.00,,---,0.00,VWS V14.01,2013-11-12 06:38:00,
2013-11-12 01:39:00,45.8,32.7,30.16,WSW,240,1.0,1.0,60,0.00,,---,0.00,VWS V14.01,2013-11-12 06:39:00,
2013-11-12 01:40:00,45.8,32.7,30.16,WSW,241,0.0,1.0,60,0.00,,---,0.00,VWS V14.01,2013-11-12 06:40:00,
2013-11-12 01:41:00,45.7,32.6,30.16,WSW,241,0.0,1.0,60,0.00,,---,0.00,VWS V14.01,2013-11-12 06:41:00,
2013-11-12 01:42:00,45.7,32.6,30.16,WSW,241,0.0,1.0,60,0.00,,---,0.00,VWS V14.01,2013-11-12 06:42:00,
2013-11-12 01:43:00,45.7,32.6,30.16,WSW,241,1.0,1.0,60,0.00,,---,0.00,VWS V14.01,2013-11-12 06:43:00,
2013-11-12 01:44:00,45.7,32.6,30.16,WSW,241,1.0,1.0,60,0.00,,---,0.00,VWS V14.01,2013-11-12 06:44:00,
2013-11-12 01:45:00,45.7,32.6,30.16,WSW,241,0.0,1.0,60,0.00,,---,0.00,VWS V14.01,2013-11-12 06:45:00,
2013-11-12 01:46:00,45.6,32.5,30.16,WSW,240,1.0,2.0,60,0.00,,---,0.00,VWS V14.01,2013-11-12 06:46:00,
2013-11-12 01:47:00,45.6,32.5,30.16,SW,232,0.0,1.0,60,0.00,,---,0.00,VWS V14.01,2013-11-12 06:47:00,
2013-11-12 01:48:00,45.6,32.5,30.16,SW,232,0.0,1.0,60,0.00,,---,0.00,VWS V14.01,2013-11-12 06:48:00,
2013-11-12 01:49:00,45.6,32.5,30.16,SW,232,0.0,0.0,60,0.00,,---,0.00,VWS V14.01,2013-11-12 06:49:00,
2013-11-12 01:50:00,45.5,32.4,30.16,SW,232,0.0,0.0,60,0.00,,---,0.00,VWS V14.01,2013-11-12 06:50:00,
2013-11-12 01:51:00,45.5,32.4,30.16,SW,232,0.0,0.0,60,0.00,,---,0.00,VWS V14.01,2013-11-12 06:51:00,
2013-11-12 01:52:00,45.4,32.3,30.16,SW,232,0.0,0.0,60,0.00,,---,0.00,VWS V14.01,2013-11-12 06:52:00,
2013-11-12 01:53:00,45.3,32.7,30.16,SW,232,0.0,0.0,61,0.00,,---,0.00,VWS V14.01,2013-11-12 06:53:00,
2013-11-12 01:54:00,45.3,32.7,30.16,SW,232,0.0,0.0,61,0.00,,---,0.00,VWS V14.01,2013-11-12 06:54:00,
2013-11-12 01:55:00,45.1,32.5,30.16,SW,232,0.0,0.0,61,0.00,,---,0.00,VWS V14.01,2013-11-12 06:55:00,
2013-11-12 01:56:00,45.1,32.5,30.16,SW,232,0.0,0.0,61,0.00,,---,0.00,VWS V14.01,2013-11-12 06:56:00,
2013-11-12 01:57:00,45.0,32.4,30.15,SW,232,0.0,0.0,61,0.00,,---,0.00,VWS V14.01,2013-11-12 06:57:00,
2013-11-12 01:58:00,44.9,32.3,30.15,SW,232,0.0,0.0,61,0.00,,---,0.00,VWS V14.01,2013-11-12 06:58:00,
2013-11-12 01:59:00,44.9,32.3,30.15,SW,232,0.0,0.0,61,0.00,,---,0.00,VWS V14.01,2013-11-12 06:59:00,
2013-11-12 02:00:00,44.7,32.5,30.15,SW,232,0.0,0.0,62,0.00,,---,0.00,VWS V14.01,2013-11-12 07:00:00,
2013-11-12 02:01:00,44.7,32.5,30.15,SW,231,0.0,0.0,62,0.00,,---,0.00,VWS V14.01,2013-11-12 07:01:00,
2013-11-12 02:02:00,44.7,32.5,30.15,SW,232,0.0,0.0,62,0.00,,---,0.00,VWS V14.01,2013-11-12 07:02:00,
2013-11-12 02:03:00,44.6,32.4,30.15,SW,232,0.0,0.0,62,0.00,,---,0.00,VWS V14.01,2013-11-12 07:03:00,
2013-11-12 02:04:00,44.5,32.3,30.15,SW,232,0.0,0.0,62,0.00,,---,0.00,VWS V14.01,2013-11-12 07:04:00,
2013-11-12 02:05:00,44.5,32.3,30.15,SW,232,0.0,0.0,62,0.00,,---,0.00,VWS V14.01,2013-11-12 07:05:00,
2013-11-12 02:06:00,44.5,32.3,30.15,SW,232,0.0,0.0,62,0.00,,---,0.00,VWS V14.01,2013-11-12 07:06:00,
2013-11-12 02:07:00,44.4,32.2,30.15,SW,232,0.0,0.0,62,0.00,,---,0.00,VWS V14.01,2013-11-12 07:07:00,
2013-11-12 02:08:00,44.3,32.1,30.15,SW,232,0.0,0.0,62,0.00,,---,0.00,VWS V14.01,2013-11-12 07:08:00,
2013-11-12 02:09:00,44.2,32.4,30.15,SW,232,0.0,0.0,63,0.00,,---,0.00,VWS V14.01,2013-11-12 07:09:00,
2013-11-12 02:10:00,44.1,32.3,30.15,SW,232,0.0,0.0,63,0.00,,---,0.00,VWS V14.01,2013-11-12 07:10:00,
2013-11-12 02:11:00,44.1,32.3,30.15,SW,232,0.0,0.0,63,0.00,,---,0.00,VWS V14.01,2013-11-12 07:11:00,
2013-11-12 02:12:00,44.0,32.2,30.15,SW,232,0.0,0.0,63,0.00,,---,0.00,VWS V14.01,2013-11-12 07:12:00,
2013-11-12 02:13:00,44.0,32.2,30.15,SW,231,0.0,0.0,63,0.00,,---,0.00,VWS V14.01,2013-11-12 07:13:00,
2013-11-12 02:14:00,43.9,32.1,30.15,SW,232,0.0,0.0,63,0.00,,---,0.00,VWS V14.01,2013-11-12 07:14:00,
2013-11-12 02:15:00,43.8,32.4,30.15,SW,232,0.0,0.0,64,0.00,,---,0.00,VWS V14.01,2013-11-12 07:15:00,
2013-11-12 02:16:00,43.8,32.4,30.15,SW,232,0.0,0.0,64,0.00,,---,0.00,VWS V14.01,2013-11-12 07:16:00,
2013-11-12 02:17:00,43.8,32.4,30.15,SW,232,0.0,0.0,64,0.00,,---,0.00,VWS V14.01,2013-11-12 07:17:00,
2013-11-12 02:18:00,43.8,32.4,30.15,SW,232,0.0,0.0,64,0.00,,---,0.00,VWS V14.01,2013-11-12 07:18:00,
2013-11-12 02:19:00,43.7,32.7,30.15,SW,232,0.0,0.0,65,0.00,,---,0.00,VWS V14.01,2013-11-12 07:19:00,
2013-11-12 02:20:00,43.8,32.8,30.14,SW,232,0.0,0.0,65,0.00,,---,0.00,VWS V14.01,2013-11-12 07:20:00,
2013-11-12 02:21:00,43.8,32.8,30.14,SW,231,0.0,0.0,65,0.00,,---,0.00,VWS V14.01,2013-11-12 07:21:00,
2013-11-12 02:22:00,43.8,33.2,30.15,SW,232,0.0,0.0,66,0.00,,---,0.00,VWS V14.01,2013-11-12 07:22:00,
2013-11-12 02:23:00,43.8,33.2,30.14,SW,232,0.0,0.0,66,0.00,,---,0.00,VWS V14.01,2013-11-12 07:23:00,
2013-11-12 02:24:00,43.9,33.3,30.14,SW,232,0.0,1.0,66,0.00,,---,0.00,VWS V14.01,2013-11-12 07:24:00,
2013-11-12 02:25:00,43.9,33.3,30.14,SW,232,0.0,0.0,66,0.00,,---,0.00,VWS V14.01,2013-11-12 07:25:00,
2013-11-12 02:26:00,43.9,33.3,30.14,SW,232,0.0,0.0,66,0.00,,---,0.00,VWS V14.01,2013-11-12 07:26:00,
2013-11-12 02:27:00,43.9,33.3,30.14,SW,232,0.0,0.0,66,0.00,,---,0.00,VWS V14.01,2013-11-12 07:27:00,
2013-11-12 02:28:00,43.8,33.2,30.14,SW,232,0.0,0.0,66,0.00,,---,0.00,VWS V14.01,2013-11-12 07:28:00,
2013-11-12 02:29:00,43.7,32.7,30.14,SW,232,0.0,0.0,65,0.00,,---,0.00,VWS V14.01,2013-11-12 07:29:00,
2013-11-12 02:30:00,43.7,33.1,30.14,SW,232,0.0,0.0,66,0.00,,---,0.00,VWS V14.01,2013-11-12 07:30:00,
2013-11-12 02:31:00,43.7,33.1,30.14,SW,232,0.0,0.0,66,0.00,,---,0.00,VWS V14.01,2013-11-12 07:31:00,
2013-11-12 02:32:00,43.7,33.1,30.14,SW,232,0.0,0.0,66,0.00,,---,0.00,VWS V14.01,2013-11-12 07:32:00,
2013-11-12 02:33:00,43.7,33.1,30.14,SW,232,0.0,0.0,66,0.00,,---,0.00,VWS V14.01,2013-11-12 07:33:00,
2013-11-12 02:34:00,43.7,33.1,30.14,SW,231,0.0,0.0,66,0.00,,---,0.00,VWS V14.01,2013-11-12 07:34:00,
2013-11-12 02:35:00,43.7,33.1,30.14,SW,232,0.0,0.0,66,0.00,,---,0.00,VWS V14.01,2013-11-12 07:35:00,
2013-11-12 02:36:00,43.7,33.1,30.14,SW,232,0.0,0.0,66,0.00,,---,0.00,VWS V14.01,2013-11-12 07:36:00,
2013-11-12 02:37:00,43.6,33.0,30.14,SW,232,0.0,0.0,66,0.00,,---,0.00,VWS V14.01,2013-11-12 07:37:00,
2013-11-12 02:38:00,43.6,33.0,30.14,SW,232,0.0,0.0,66,0.00,,---,0.00,VWS V14.01,2013-11-12 07:38:00,
2013-11-12 02:39:00,43.6,33.0,30.14,SW,232,0.0,0.0,66,0.00,,---,0.00,VWS V14.01,2013-11-12 07:39:00,
2013-11-12 02:40:00,43.6,33.4,30.14,SW,232,0.0,0.0,67,0.00,,---,0.00,VWS V14.01,2013-11-12 07:40:00,
2013-11-12 02:41:00,43.6,33.4,30.14,SW,232,0.0,0.0,67,0.00,,---,0.00,VWS V14.01,2013-11-12 07:41:00,
2013-11-12 02:42:00,43.6,33.0,30.14,SW,231,0.0,0.0,66,0.00,,---,0.00,VWS V14.01,2013-11-12 07:42:00,
2013-11-12 02:43:00,43.6,33.0,30.14,SW,232,0.0,0.0,66,0.00,,---,0.00,VWS V14.01,2013-11-12 07:43:00,
2013-11-12 02:44:00,43.6,33.4,30.14,SW,232,0.0,0.0,67,0.00,,---,0.00,VWS V14.01,2013-11-12 07:44:00,
2013-11-12 02:45:00,43.6,33.4,30.14,SW,232,0.0,0.0,67,0.00,,---,0.00,VWS V14.01,2013-11-12 07:45:00,
2013-11-12 02:46:00,43.6,33.4,30.14,SW,232,0.0,0.0,67,0.00,,---,0.00,VWS V14.01,2013-11-12 07:46:00,
2013-11-12 02:47:00,43.7,33.8,30.14,SW,232,0.0,0.0,68,0.00,,---,0.00,VWS V14.01,2013-11-12 07:47:00,
2013-11-12 02:48:00,43.7,33.5,30.14,SW,231,0.0,0.0,67,0.00,,---,0.00,VWS V14.01,2013-11-12 07:48:00,
2013-11-12 02:49:00,43.8,33.6,30.14,SW,233,0.0,1.0,67,0.00,,---,0.00,VWS V14.01,2013-11-12 07:49:00,
2013-11-12 02:50:00,43.9,34.0,30.14,SW,231,1.0,1.0,68,0.00,,---,0.00,VWS V14.01,2013-11-12 07:50:00,
2013-11-12 02:51:00,43.9,34.0,30.14,SW,232,1.0,1.0,68,0.00,,---,0.00,VWS V14.01,2013-11-12 07:51:00,
2013-11-12 02:52:00,43.8,33.9,30.14,SW,232,0.0,1.0,68,0.00,,---,0.00,VWS V14.01,2013-11-12 07:52:00,
2013-11-12 02:53:00,43.8,34.3,30.14,SW,232,0.0,0.0,69,0.00,,---,0.00,VWS V14.01,2013-11-12 07:53:00,
2013-11-12 02:54:00,43.7,34.2,30.14,SW,232,0.0,1.0,69,0.00,,---,0.00,VWS V14.01,2013-11-12 07:54:00,
2013-11-12 02:55:00,43.6,34.5,30.14,SW,232,0.0,0.0,70,0.00,,---,0.00,VWS V14.01,2013-11-12 07:55:00,
2013-11-12 02:56:00,43.6,34.5,30.14,SW,232,1.0,1.0,70,0.00,,---,0.00,VWS V14.01,2013-11-12 07:56:00,
2013-11-12 02:57:00,43.6,34.5,30.14,SW,232,1.0,1.0,70,0.00,,---,0.00,VWS V14.01,2013-11-12 07:57:00,
2013-11-12 02:58:00,43.5,34.4,30.14,WSW,246,2.0,2.0,70,0.00,,---,0.00,VWS V14.01,2013-11-12 07:58:00,
2013-11-12 02:59:00,43.5,34.4,30.14,WSW,246,2.0,2.0,70,0.00,,---,0.00,VWS V14.01,2013-11-12 07:59:00,
2013-11-12 03:00:00,43.5,34.4,30.14,West,275,1.0,1.0,70,0.00,,---,0.00,VWS V14.01,2013-11-12 08:00:00,
2013-11-12 03:01:00,43.5,34.4,30.14,West,275,1.0,1.0,70,0.00,,---,0.00,VWS V14.01,2013-11-12 08:01:00,
2013-11-12 03:02:00,43.5,34.4,30.14,West,271,0.0,2.0,70,0.00,,---,0.00,VWS V14.01,2013-11-12 08:02:00,
2013-11-12 03:03:00,43.5,34.4,30.14,West,271,1.0,1.0,70,0.00,,---,0.00,VWS V14.01,2013-11-12 08:03:00,
2013-11-12 03:04:00,43.5,34.4,30.14,West,271,1.0,1.0,70,0.00,,---,0.00,VWS V14.01,2013-11-12 08:04:00,
2013-11-12 03:05:00,43.5,34.4,30.14,West,272,1.0,1.0,70,0.00,,---,0.00,VWS V14.01,2013-11-12 08:05:00,
2013-11-12 03:06:00,43.5,34.4,30.14,West,272,1.0,1.0,70,0.00,,---,0.00,VWS V14.01,2013-11-12 08:06:00,
2013-11-12 03:07:00,43.4,34.3,30.14,West,272,0.0,0.0,70,0.00,,---,0.00,VWS V14.01,2013-11-12 08:07:00,
2013-11-12 03:08:00,43.4,33.9,30.14,West,272,0.0,0.0,69,0.00,,---,0.00,VWS V14.01,2013-11-12 08:08:00,
2013-11-12 03:09:00,43.4,33.9,30.14,West,272,0.0,0.0,69,0.00,,---,0.00,VWS V14.01,2013-11-12 08:09:00,
2013-11-12 03:10:00,43.3,33.8,30.14,West,271,0.0,0.0,69,0.00,,---,0.00,VWS V14.01,2013-11-12 08:10:00,
2013-11-12 03:11:00,43.3,33.8,30.14,West,272,0.0,0.0,69,0.00,,---,0.00,VWS V14.01,2013-11-12 08:11:00,
2013-11-12 03:12:00,43.3,33.8,30.14,West,271,0.0,0.0,69,0.00,,---,0.00,VWS V14.01,2013-11-12 08:12:00,
2013-11-12 03:13:00,43.3,33.8,30.14,West,271,1.0,1.0,69,0.00,,---,0.00,VWS V14.01,2013-11-12 08:13:00,
2013-11-12 03:14:00,43.3,33.8,30.14,West,272,1.0,1.0,69,0.00,,---,0.00,VWS V14.01,2013-11-12 08:14:00,
2013-11-12 03:15:00,43.3,33.8,30.14,West,272,1.0,1.0,69,0.00,,---,0.00,VWS V14.01,2013-11-12 08:15:00,
2013-11-12 03:16:00,43.3,33.8,30.14,West,271,1.0,1.0,69,0.00,,---,0.00,VWS V14.01,2013-11-12 08:16:00,
2013-11-12 03:17:00,43.3,33.8,30.14,West,271,1.0,1.0,69,0.00,,---,0.00,VWS V14.01,2013-11-12 08:17:00,
2013-11-12 03:18:00,43.4,33.9,30.14,West,272,1.0,1.0,69,0.00,,---,0.00,VWS V14.01,2013-11-12 08:18:00,
2013-11-12 03:19:00,43.4,33.9,30.14,West,272,1.0,1.0,69,0.00,,---,0.00,VWS V14.01,2013-11-12 08:19:00,
2013-11-12 03:20:00,43.5,34.0,30.14,West,277,1.0,1.0,69,0.00,,---,0.00,VWS V14.01,2013-11-12 08:20:00,
2013-11-12 03:21:00,43.5,34.0,30.14,West,280,2.0,2.0,69,0.00,,---,0.00,VWS V14.01,2013-11-12 08:21:00,
2013-11-12 03:22:00,43.5,33.7,30.14,West,280,2.0,2.0,68,0.00,,---,0.00,VWS V14.01,2013-11-12 08:22:00,
2013-11-12 03:23:00,43.6,34.1,30.14,West,270,3.0,3.0,69,0.00,,---,0.00,VWS V14.01,2013-11-12 08:23:00,
2013-11-12 03:24:00,43.7,33.8,30.14,WNW,286,2.0,3.0,68,0.00,,---,0.00,VWS V14.01,2013-11-12 08:24:00,
2013-11-12 03:25:00,43.8,33.9,30.14,West,263,2.0,2.0,68,0.00,,---,0.00,VWS V14.01,2013-11-12 08:25:00,
2013-11-12 03:26:00,43.9,34.0,30.14,West,275,1.0,2.0,68,0.00,,---,0.00,VWS V14.01,2013-11-12 08:26:00,
2013-11-12 03:27:00,43.9,34.0,30.14,West,272,2.0,2.0,68,0.00,,---,0.00,VWS V14.01,2013-11-12 08:27:00,
2013-11-12 03:28:00,44.0,33.8,30.14,West,267,1.0,2.0,67,0.00,,---,0.00,VWS V14.01,2013-11-12 08:28:00,
2013-11-12 03:29:00,44.1,34.2,30.14,West,261,3.0,4.0,68,0.00,,---,0.00,VWS V14.01,2013-11-12 08:29:00,
2013-11-12 03:30:00,44.1,33.9,30.14,West,262,3.0,3.0,67,0.00,,---,0.00,VWS V14.01,2013-11-12 08:30:00,
2013-11-12 03:31:00,44.2,34.0,30.14,WSW,250,4.0,4.0,67,0.00,,---,0.00,VWS V14.01,2013-11-12 08:31:00,
2013-11-12 03:32:00,44.2,34.3,30.14,WSW,253,2.0,2.0,68,0.00,,---,0.00,VWS V14.01,2013-11-12 08:32:00,
2013-11-12 03:33:00,44.3,34.4,30.14,West,261,3.0,3.0,68,0.00,,---,0.00,VWS V14.01,2013-11-12 08:33:00,
2013-11-12 03:34:00,44.3,34.4,30.14,WSW,251,2.0,4.0,68,0.00,,---,0.00,VWS V14.01,2013-11-12 08:34:00,
2013-11-12 03:35:00,44.3,34.4,30.14,West,259,2.0,4.0,68,0.00,,---,0.00,VWS V14.01,2013-11-12 08:35:00,
2013-11-12 03:36:00,44.3,34.4,30.14,West,277,3.0,4.0,68,0.00,,---,0.00,VWS V14.01,2013-11-12 08:36:00,
2013-11-12 03:37:00,44.3,34.4,30.14,West,280,3.0,3.0,68,0.00,,---,0.00,VWS V14.01,2013-11-12 08:37:00,
2013-11-12 03:38:00,44.4,34.5,30.14,West,280,3.0,5.0,68,0.00,,---,0.00,VWS V14.01,2013-11-12 08:38:00,
2013-11-12 03:39:00,44.4,34.5,30.14,West,277,2.0,4.0,68,0.00,,---,0.00,VWS V14.01,2013-11-12 08:39:00,
2013-11-12 03:40:00,44.5,34.6,30.14,West,281,2.0,2.0,68,0.00,,---,0.00,VWS V14.01,2013-11-12 08:40:00,
2013-11-12 03:41:00,44.4,34.5,30.14,West,280,4.0,4.0,68,0.00,,---,0.00,VWS V14.01,2013-11-12 08:41:00,
2013-11-12 03:42:00,44.5,34.2,30.14,West,265,2.0,4.0,67,0.00,,---,0.00,VWS V14.01,2013-11-12 08:42:00,
2013-11-12 03:43:00,44.5,34.2,30.14,WNW,287,3.0,3.0,67,0.00,,---,0.00,VWS V14.01,2013-11-12 08:43:00,
2013-11-12 03:44:00,44.4,34.5,30.14,West,261,1.0,4.0,68,0.00,,---,0.00,VWS V14.01,2013-11-12 08:44:00,
2013-11-12 03:45:00,44.4,34.5,30.14,WSW,255,4.0,4.0,68,0.00,,---,0.00,VWS V14.01,2013-11-12 08:45:00,
2013-11-12 03:46:00,44.4,34.5,30.14,WSW,254,3.0,4.0,68,0.00,,---,0.00,VWS V14.01,2013-11-12 08:46:00,
2013-11-12 03:47:00,44.3,34.4,30.14,SW,233,3.0,5.0,68,0.00,,---,0.00,VWS V14.01,2013-11-12 08:47:00,
2013-11-12 03:48:00,44.3,34.4,30.14,WSW,249,5.0,5.0,68,0.00,,---,0.00,VWS V14.01,2013-11-12 08:48:00,
2013-11-12 03:49:00,44.2,34.0,30.14,West,259,4.0,5.0,67,0.00,,---,0.00,VWS V14.01,2013-11-12 08:49:00,
2013-11-12 03:50:00,44.2,34.0,30.14,West,270,4.0,6.0,67,0.00,,---,0.00,VWS V14.01,2013-11-12 08:50:00,
2013-11-12 03:51:00,44.2,34.0,30.14,West,270,4.0,5.0,67,0.00,,---,0.00,VWS V14.01,2013-11-12 08:51:00,
2013-11-12 03:52:00,44.2,34.0,30.14,West,270,4.0,5.0,67,0.00,,---,0.00,VWS V14.01,2013-11-12 08:52:00,
2013-11-12 03:53:00,44.2,34.0,30.14,West,270,3.0,4.0,67,0.00,,---,0.00,VWS V14.01,2013-11-12 08:53:00,
2013-11-12 03:54:00,44.2,34.0,30.14,West,270,3.0,4.0,67,0.00,,---,0.00,VWS V14.01,2013-11-12 08:54:00,
2013-11-12 03:55:00,44.2,34.0,30.13,West,270,3.0,5.0,67,0.00,,---,0.00,VWS V14.01,2013-11-12 08:55:00,
2013-11-12 03:56:00,44.1,33.9,30.13,West,270,4.0,5.0,67,0.00,,---,0.00,VWS V14.01,2013-11-12 08:56:00,
2013-11-12 03:57:00,44.1,34.2,30.13,West,270,2.0,3.0,68,0.00,,---,0.00,VWS V14.01,2013-11-12 08:57:00,
2013-11-12 03:58:00,44.0,34.1,30.13,West,270,3.0,4.0,68,0.00,,---,0.00,VWS V14.01,2013-11-12 08:58:00,
2013-11-12 03:59:00,44.0,34.1,30.13,West,270,3.0,5.0,68,0.00,,---,0.00,VWS V14.01,2013-11-12 08:59:00,
2013-11-12 04:00:00,43.9,34.0,30.13,West,270,3.0,4.0,68,0.00,,---,0.00,VWS V14.01,2013-11-12 09:00:00,
2013-11-12 04:01:00,43.9,34.4,30.13,West,270,3.0,4.0,69,0.00,,---,0.00,VWS V14.01,2013-11-12 09:01:00,
2013-11-12 04:02:00,43.9,34.4,30.13,West,270,3.0,4.0,69,0.00,,---,0.00,VWS V14.01,2013-11-12 09:02:00,
2013-11-12 04:03:00,43.8,34.3,30.13,West,270,3.0,4.0,69,0.00,,---,0.00,VWS V14.01,2013-11-12 09:03:00,
2013-11-12 04:04:00,43.9,34.4,30.13,West,270,3.0,4.0,69,0.00,,---,0.00,VWS V14.01,2013-11-12 09:04:00,
2013-11-12 04:05:00,43.9,34.4,30.13,West,270,3.0,4.0,69,0.00,,---,0.00,VWS V14.01,2013-11-12 09:05:00,
2013-11-12 04:06:00,43.9,34.4,30.13,West,270,3.0,4.0,69,0.00,,---,0.00,VWS V14.01,2013-11-12 09:06:00,
2013-11-12 04:07:00,43.9,34.4,30.13,West,270,3.0,5.0,69,0.00,,---,0.00,VWS V14.01,2013-11-12 09:07:00,
2013-11-12 04:08:00,43.9,34.4,30.13,West,270,3.0,5.0,69,0.00,,---,0.00,VWS V14.01,2013-11-12 09:08:00,
2013-11-12 04:09:00,44.0,34.5,30.13,West,270,3.0,4.0,69,0.00,,---,0.00,VWS V14.01,2013-11-12 09:09:00,
2013-11-12 04:10:00,44.0,34.5,30.13,West,270,2.0,3.0,69,0.00,,---,0.00,VWS V14.01,2013-11-12 09:10:00,
2013-11-12 04:11:00,43.9,34.4,30.13,West,270,2.0,3.0,69,0.00,,---,0.00,VWS V14.01,2013-11-12 09:11:00,
2013-11-12 04:12:00,43.9,34.4,30.13,West,270,3.0,5.0,69,0.00,,---,0.00,VWS V14.01,2013-11-12 09:12:00,
2013-11-12 04:13:00,43.8,34.3,30.13,West,270,4.0,5.0,69,0.00,,---,0.00,VWS V14.01,2013-11-12 09:13:00,
2013-11-12 04:14:00,43.8,34.3,30.13,West,270,3.0,5.0,69,0.00,,---,0.00,VWS V14.01,2013-11-12 09:14:00,
2013-11-12 04:15:00,43.7,34.2,30.13,West,270,3.0,5.0,69,0.00,,---,0.00,VWS V14.01,2013-11-12 09:15:00,
2013-11-12 04:16:00,43.7,34.2,30.13,West,270,4.0,5.0,69,0.00,,---,0.00,VWS V14.01,2013-11-12 09:16:00,
2013-11-12 04:17:00,43.7,34.2,30.13,West,270,4.0,5.0,69,0.00,,---,0.00,VWS V14.01,2013-11-12 09:17:00,
2013-11-12 04:18:00,43.7,34.2,30.13,West,270,2.0,3.0,69,0.00,,---,0.00,VWS V14.01,2013-11-12 09:18:00,
2013-11-12 04:19:00,43.6,34.5,30.13,WNW,292,2.0,2.0,70,0.00,,---,0.00,VWS V14.01,2013-11-12 09:19:00,
2013-11-12 04:20:00,43.6,34.5,30.13,West,270,2.0,3.0,70,0.00,,---,0.00,VWS V14.01,2013-11-12 09:20:00,
2013-11-12 04:21:00,43.5,34.4,30.13,West,270,2.0,3.0,70,0.00,,---,0.00,VWS V14.01,2013-11-12 09:21:00,
2013-11-12 04:22:00,43.5,34.4,30.13,West,270,2.0,3.0,70,0.00,,---,0.00,VWS V14.01,2013-11-12 09:22:00,
2013-11-12 04:23:00,43.4,34.3,30.13,WSW,248,2.0,4.0,70,0.00,,---,0.00,VWS V14.01,2013-11-12 09:23:00,
2013-11-12 04:24:00,43.4,34.3,30.13,West,270,3.0,4.0,70,0.00,,---,0.00,VWS V14.01,2013-11-12 09:24:00,
2013-11-12 04:25:00,43.4,34.6,30.13,West,270,2.0,3.0,71,0.00,,---,0.00,VWS V14.01,2013-11-12 09:25:00,
2013-11-12 04:26:00,43.4,34.6,30.13,West,270,2.0,3.0,71,0.00,,---,0.00,VWS V14.01,2013-11-12 09:26:00,
2013-11-12 04:27:00,43.4,34.6,30.13,West,270,3.0,5.0,71,0.00,,---,0.00,VWS V14.01,2013-11-12 09:27:00,
2013-11-12 04:28:00,43.4,34.6,30.13,West,270,2.0,4.0,71,0.00,,---,0.00,VWS V14.01,2013-11-12 09:28:00,
2013-11-12 04:29:00,43.4,34.6,30.13,West,270,3.0,5.0,71,0.00,,---,0.00,VWS V14.01,2013-11-12 09:29:00,
2013-11-12 04:30:00,43.4,34.6,30.13,WSW,248,2.0,3.0,71,0.00,,---,0.00,VWS V14.01,2013-11-12 09:30:00,
2013-11-12 04:31:00,43.4,34.6,30.13,West,270,3.0,5.0,71,0.00,,---,0.00,VWS V14.01,2013-11-12 09:31:00,
2013-11-12 04:32:00,43.3,34.5,30.13,West,270,3.0,4.0,71,0.00,,---,0.00,VWS V14.01,2013-11-12 09:32:00,
2013-11-12 04:33:00,43.3,34.5,30.13,West,270,2.0,3.0,71,0.00,,---,0.00,VWS V14.01,2013-11-12 09:33:00,
2013-11-12 04:34:00,43.3,34.5,30.13,WSW,248,2.0,3.0,71,0.00,,---,0.00,VWS V14.01,2013-11-12 09:34:00,
2013-11-12 04:35:00,43.2,34.5,30.13,WSW,248,3.0,4.0,71,0.00,,---,0.00,VWS V14.01,2013-11-12 09:35:00,
2013-11-12 04:36:00,43.2,34.5,30.13,WSW,248,2.0,2.0,71,0.00,,---,0.00,VWS V14.01,2013-11-12 09:36:00,
2013-11-12 04:37:00,43.2,34.5,30.13,West,270,1.0,2.0,71,0.00,,---,0.00,VWS V14.01,2013-11-12 09:37:00,
2013-11-12 04:38:00,43.1,34.3,30.13,WSW,248,2.0,3.0,71,0.00,,---,0.00,VWS V14.01,2013-11-12 09:38:00,
2013-11-12 04:39:00,43.1,34.3,30.13,West,270,1.0,2.0,71,0.00,,---,0.00,VWS V14.01,2013-11-12 09:39:00,
2013-11-12 04:40:00,43.0,34.6,30.13,West,270,1.0,1.0,72,0.00,,---,0.00,VWS V14.01,2013-11-12 09:40:00,
2013-11-12 04:41:00,42.9,34.5,30.13,West,270,1.0,2.0,72,0.00,,---,0.00,VWS V14.01,2013-11-12 09:41:00,
2013-11-12 04:42:00,42.9,34.5,30.13,WSW,248,1.0,2.0,72,0.00,,---,0.00,VWS V14.01,2013-11-12 09:42:00,
2013-11-12 04:43:00,42.8,34.4,30.13,WSW,248,0.0,1.0,72,0.00,,---,0.00,VWS V14.01,2013-11-12 09:43:00,
2013-11-12 04:44:00,42.8,34.4,30.13,WSW,248,1.0,1.0,72,0.00,,---,0.00,VWS V14.01,2013-11-12 09:44:00,
2013-11-12 04:45:00,42.8,34.4,30.13,WSW,248,0.0,1.0,72,0.00,,---,0.00,VWS V14.01,2013-11-12 09:45:00,
2013-11-12 04:46:00,42.7,34.3,30.13,WSW,248,1.0,1.0,72,0.00,,---,0.00,VWS V14.01,2013-11-12 09:46:00,
2013-11-12 04:47:00,42.7,34.3,30.13,West,270,2.0,3.0,72,0.00,,---,0.00,VWS V14.01,2013-11-12 09:47:00,
2013-11-12 04:48:00,42.7,34.3,30.13,West,270,1.0,1.0,72,0.00,,---,0.00,VWS V14.01,2013-11-12 09:48:00,
2013-11-12 04:49:00,42.7,34.3,30.13,West,270,1.0,2.0,72,0.00,,---,0.00,VWS V14.01,2013-11-12 09:49:00,
2013-11-12 04:50:00,42.7,34.3,30.13,West,270,2.0,3.0,72,0.00,,---,0.00,VWS V14.01,2013-11-12 09:50:00,
2013-11-12 04:51:00,42.7,34.3,30.12,West,270,2.0,3.0,72,0.00,,---,0.00,VWS V14.01,2013-11-12 09:51:00,
2013-11-12 04:52:00,42.8,34.4,30.12,West,270,1.0,2.0,72,0.00,,---,0.00,VWS V14.01,2013-11-12 09:52:00,
2013-11-12 04:53:00,42.8,34.4,30.12,West,270,1.0,1.0,72,0.00,,---,0.00,VWS V14.01,2013-11-12 09:53:00,
2013-11-12 04:54:00,42.8,34.4,30.12,West,270,2.0,3.0,72,0.00,,---,0.00,VWS V14.01,2013-11-12 09:54:00,
2013-11-12 04:55:00,42.9,34.5,30.12,West,270,2.0,3.0,72,0.00,,---,0.00,VWS V14.01,2013-11-12 09:55:00,
2013-11-12 04:56:00,42.9,34.5,30.12,West,270,1.0,1.0,72,0.00,,---,0.00,VWS V14.01,2013-11-12 09:56:00,
2013-11-12 04:57:00,42.9,34.5,30.12,West,270,1.0,1.0,72,0.00,,---,0.00,VWS V14.01,2013-11-12 09:57:00,
2013-11-12 04:58:00,42.9,34.5,30.12,West,270,0.0,1.0,72,0.00,,---,0.00,VWS V14.01,2013-11-12 09:58:00,
2013-11-12 04:59:00,42.9,34.5,30.12,West,270,0.0,0.0,72,0.00,,---,0.00,VWS V14.01,2013-11-12 09:59:00,
2013-11-12 05:00:00,42.8,34.4,30.12,West,270,0.0,1.0,72,0.00,,---,0.00,VWS V14.01,2013-11-12 10:00:00,
2013-11-12 05:01:00,42.8,34.4,30.12,West,270,0.0,1.0,72,0.00,,---,0.00,VWS V14.01,2013-11-12 10:01:00,
2013-11-12 05:02:00,42.7,34.3,30.12,West,270,0.0,0.0,72,0.00,,---,0.00,VWS V14.01,2013-11-12 10:02:00,
2013-11-12 05:03:00,42.7,34.3,30.12,West,270,0.0,0.0,72,0.00,,---,0.00,VWS V14.01,2013-11-12 10:03:00,
2013-11-12 05:04:00,42.7,34.3,30.12,West,270,0.0,1.0,72,0.00,,---,0.00,VWS V14.01,2013-11-12 10:04:00,
2013-11-12 05:05:00,42.5,34.1,30.12,SW,225,1.0,2.0,72,0.00,,---,0.00,VWS V14.01,2013-11-12 10:05:00,
2013-11-12 05:06:00,42.5,34.1,30.12,SW,225,1.0,3.0,72,0.00,,---,0.00,VWS V14.01,2013-11-12 10:06:00,
2013-11-12 05:07:00,42.6,34.2,30.11,SW,225,1.0,3.0,72,0.00,,---,0.00,VWS V14.01,2013-11-12 10:07:00,
2013-11-12 05:08:00,42.6,34.2,30.11,SSE,158,1.0,3.0,72,0.00,,---,0.00,VWS V14.01,2013-11-12 10:08:00,
2013-11-12 05:09:00,42.6,34.2,30.11,South,180,1.0,1.0,72,0.00,,---,0.00,VWS V14.01,2013-11-12 10:09:00,
2013-11-12 05:10:00,42.7,34.3,30.11,South,180,1.0,2.0,72,0.00,,---,0.00,VWS V14.01,2013-11-12 10:10:00,
2013-11-12 05:11:00,42.7,34.3,30.11,WSW,248,1.0,2.0,72,0.00,,---,0.00,VWS V14.01,2013-11-12 10:11:00,
2013-11-12 05:12:00,42.8,34.4,30.11,West,270,1.0,2.0,72,0.00,,---,0.00,VWS V14.01,2013-11-12 10:12:00,
2013-11-12 05:13:00,42.9,34.2,30.11,WNW,292,1.0,2.0,71,0.00,,---,0.00,VWS V14.01,2013-11-12 10:13:00,
2013-11-12 05:14:00,43.1,34.3,30.11,West,270,2.0,3.0,71,0.00,,---,0.00,VWS V14.01,2013-11-12 10:14:00,
2013-11-12 05:15:00,43.2,34.5,30.11,West,270,2.0,3.0,71,0.00,,---,0.00,VWS V14.01,2013-11-12 10:15:00,
2013-11-12 05:16:00,43.3,34.5,30.12,WNW,292,2.0,3.0,71,0.00,,---,0.00,VWS V14.01,2013-11-12 10:16:00,
2013-11-12 05:17:00,43.4,34.6,30.12,West,270,2.0,3.0,71,0.00,,---,0.00,VWS V14.01,2013-11-12 10:17:00,
2013-11-12 05:18:00,43.5,34.4,30.12,West,270,2.0,3.0,70,0.00,,---,0.00,VWS V14.01,2013-11-12 10:18:00,
2013-11-12 05:19:00,43.6,34.5,30.12,WNW,292,2.0,3.0,70,0.00,,---,0.00,VWS V14.01,2013-11-12 10:19:00,
2013-11-12 05:20:00,43.7,34.6,30.12,West,270,2.0,4.0,70,0.00,,---,0.00,VWS V14.01,2013-11-12 10:20:00,
2013-11-12 05:21:00,43.8,34.7,30.12,West,270,2.0,2.0,70,0.00,,---,0.00,VWS V14.01,2013-11-12 10:21:00,
2013-11-12 05:22:00,43.9,34.8,30.12,West,270,1.0,2.0,70,0.00,,---,0.00,VWS V14.01,2013-11-12 10:22:00,
2013-11-12 05:23:00,43.9,34.8,30.12,West,270,1.0,1.0,70,0.00,,---,0.00,VWS V14.01,2013-11-12 10:23:00,
2013-11-12 05:24:00,43.8,34.7,30.12,West,270,1.0,1.0,70,0.00,,---,0.00,VWS V14.01,2013-11-12 10:24:00,
2013-11-12 05:25:00,43.8,34.7,30.12,West,270,0.0,1.0,70,0.00,,---,0.00,VWS V14.01,2013-11-12 10:25:00,
2013-11-12 05:26:00,43.8,34.7,30.12,West,270,0.0,1.0,70,0.00,,---,0.00,VWS V14.01,2013-11-12 10:26:00,
2013-11-12 05:27:00,43.7,34.6,30.12,West,270,0.0,1.0,70,0.00,,---,0.00,VWS V14.01,2013-11-12 10:27:00,
2013-11-12 05:28:00,43.7,34.6,30.12,West,270,0.0,0.0,70,0.00,,---,0.00,VWS V14.01,2013-11-12 10:28:00,
2013-11-12 05:29:00,43.6,34.5,30.12,West,270,0.0,0.0,70,0.00,,---,0.00,VWS V14.01,2013-11-12 10:29:00,
2013-11-12 05:30:00,43.6,34.5,30.12,West,270,0.0,0.0,70,0.00,,---,0.00,VWS V14.01,2013-11-12 10:30:00,
2013-11-12 05:31:00,43.5,34.4,30.12,West,270,0.0,0.0,70,0.00,,---,0.00,VWS V14.01,2013-11-12 10:31:00,
2013-11-12 05:32:00,43.4,34.3,30.12,West,270,0.0,0.0,70,0.00,,---,0.00,VWS V14.01,2013-11-12 10:32:00,
2013-11-12 05:33:00,43.3,34.2,30.12,West,270,0.0,1.0,70,0.00,,---,0.00,VWS V14.01,2013-11-12 10:33:00,
2013-11-12 05:34:00,43.2,34.1,30.12,West,270,0.0,1.0,70,0.00,,---,0.00,VWS V14.01,2013-11-12 10:34:00,
2013-11-12 05:35:00,43.1,34.0,30.12,West,270,0.0,0.0,70,0.00,,---,0.00,VWS V14.01,2013-11-12 10:35:00,
2013-11-12 05:36:00,43.1,34.3,30.12,West,270,0.0,1.0,71,0.00,,---,0.00,VWS V14.01,2013-11-12 10:36:00,
2013-11-12 05:37:00,43.0,34.2,30.12,West,270,0.0,0.0,71,0.00,,---,0.00,VWS V14.01,2013-11-12 10:37:00,
2013-11-12 05:38:00,42.9,34.2,30.12,West,270,0.0,0.0,71,0.00,,---,0.00,VWS V14.01,2013-11-12 10:38:00,
2013-11-12 05:39:00,42.9,34.2,30.12,West,270,0.0,0.0,71,0.00,,---,0.00,VWS V14.01,2013-11-12 10:39:00,
2013-11-12 05:40:00,42.9,34.2,30.12,West,270,0.0,0.0,71,0.00,,---,0.00,VWS V14.01,2013-11-12 10:40:00,
2013-11-12 05:41:00,42.8,34.4,30.12,West,270,0.0,0.0,72,0.00,,---,0.00,VWS V14.01,2013-11-12 10:41:00,
2013-11-12 05:42:00,42.7,34.3,30.12,WSW,248,1.0,1.0,72,0.00,,---,0.00,VWS V14.01,2013-11-12 10:42:00,
2013-11-12 05:43:00,42.7,34.3,30.12,SSW,202,1.0,2.0,72,0.00,,---,0.00,VWS V14.01,2013-11-12 10:43:00,
2013-11-12 05:44:00,42.6,34.2,30.12,SSW,202,1.0,1.0,72,0.00,,---,0.00,VWS V14.01,2013-11-12 10:44:00,
2013-11-12 05:45:00,42.7,34.3,30.11,SSW,202,2.0,2.0,72,0.00,,---,0.00,VWS V14.01,2013-11-12 10:45:00,
2013-11-12 05:46:00,42.7,34.3,30.11,SSW,202,1.0,2.0,72,0.00,,---,0.00,VWS V14.01,2013-11-12 10:46:00,
2013-11-12 05:47:00,42.7,34.3,30.11,SSW,202,2.0,3.0,72,0.00,,---,0.00,VWS V14.01,2013-11-12 10:47:00,
2013-11-12 05:48:00,42.7,34.3,30.11,SW,225,2.0,3.0,72,0.00,,---,0.00,VWS V14.01,2013-11-12 10:48:00,
2013-11-12 05:49:00,42.8,34.4,30.11,SSW,202,1.0,2.0,72,0.00,,---,0.00,VWS V14.01,2013-11-12 10:49:00,
2013-11-12 05:50:00,42.9,34.5,30.11,SSW,202,1.0,1.0,72,0.00,,---,0.00,VWS V14.01,2013-11-12 10:50:00,
2013-11-12 05:51:00,42.9,34.5,30.11,SSW,202,1.0,2.0,72,0.00,,---,0.00,VWS V14.01,2013-11-12 10:51:00,
2013-11-12 05:52:00,42.9,34.5,30.11,SSW,202,0.0,1.0,72,0.00,,---,0.00,VWS V14.01,2013-11-12 10:52:00,
2013-11-12 05:53:00,42.9,34.5,30.12,SSW,202,0.0,0.0,72,0.00,,---,0.00,VWS V14.01,2013-11-12 10:53:00,
2013-11-12 05:54:00,42.9,34.5,30.12,SSW,202,0.0,0.0,72,0.00,,---,0.00,VWS V14.01,2013-11-12 10:54:00,
2013-11-12 05:55:00,42.8,34.4,30.12,SSW,202,0.0,0.0,72,0.00,,---,0.00,VWS V14.01,2013-11-12 10:55:00,
2013-11-12 05:56:00,42.8,34.4,30.12,SSW,202,0.0,1.0,72,0.00,,---,0.00,VWS V14.01,2013-11-12 10:56:00,
2013-11-12 05:57:00,42.7,34.3,30.12,SSW,202,0.0,1.0,72,0.00,,---,0.00,VWS V14.01,2013-11-12 10:57:00,
2013-11-12 05:58:00,42.7,34.3,30.12,SSW,202,0.0,1.0,72,0.00,,---,0.00,VWS V14.01,2013-11-12 10:58:00,
2013-11-12 05:59:00,42.7,34.7,30.12,SSW,202,0.0,1.0,73,0.00,,---,0.00,VWS V14.01,2013-11-12 10:59:00,
2013-11-12 06:00:00,42.6,34.6,30.12,SSW,202,0.0,0.0,73,0.00,,---,0.00,VWS V14.01,2013-11-12 11:00:00,
2013-11-12 06:01:00,42.5,34.5,30.12,SSW,202,0.0,0.0,73,0.00,,---,0.00,VWS V14.01,2013-11-12 11:01:00,
2013-11-12 06:02:00,42.5,34.5,30.12,SSW,202,0.0,0.0,73,0.00,,---,0.00,VWS V14.01,2013-11-12 11:02:00,
2013-11-12 06:03:00,42.4,34.7,30.12,SSW,202,0.0,0.0,74,0.00,,---,0.00,VWS V14.01,2013-11-12 11:03:00,
2013-11-12 06:04:00,42.3,34.3,30.12,SSW,202,0.0,0.0,73,0.00,,---,0.00,VWS V14.01,2013-11-12 11:04:00,
2013-11-12 06:05:00,42.2,34.2,30.12,SSW,202,0.0,0.0,73,0.00,,---,0.00,VWS V14.01,2013-11-12 11:05:00,
2013-11-12 06:06:00,42.1,34.1,30.12,SSW,202,0.0,0.0,73,0.00,,---,0.00,VWS V14.01,2013-11-12 11:06:00,
2013-11-12 06:07:00,42.0,34.0,30.12,SSW,202,0.0,0.0,73,0.00,,---,0.00,VWS V14.01,2013-11-12 11:07:00,
2013-11-12 06:08:00,42.0,34.3,30.12,SSW,202,0.0,0.0,74,0.00,,---,0.00,VWS V14.01,2013-11-12 11:08:00,
2013-11-12 06:09:00,41.9,34.2,30.12,SSW,202,0.0,0.0,74,0.00,,---,0.00,VWS V14.01,2013-11-12 11:09:00,
2013-11-12 06:10:00,41.8,34.1,30.12,SSW,202,0.0,0.0,74,0.00,,---,0.00,VWS V14.01,2013-11-12 11:10:00,
2013-11-12 06:11:00,41.7,34.0,30.12,SSW,202,0.0,0.0,74,0.00,,---,0.00,VWS V14.01,2013-11-12 11:11:00,
2013-11-12 06:12:00,41.7,34.0,30.12,SSW,202,0.0,0.0,74,0.00,,---,0.00,VWS V14.01,2013-11-12 11:12:00,
2013-11-12 06:13:00,41.6,33.9,30.11,SSW,202,0.0,1.0,74,0.00,,---,0.00,VWS V14.01,2013-11-12 11:13:00,
2013-11-12 06:14:00,41.6,33.9,30.11,SSW,202,0.0,0.0,74,0.00,,---,0.00,VWS V14.01,2013-11-12 11:14:00,
2013-11-12 06:15:00,41.5,33.8,30.11,SSW,202,0.0,1.0,74,0.00,,---,0.00,VWS V14.01,2013-11-12 11:15:00,
2013-11-12 06:16:00,41.5,34.2,30.11,SSW,202,0.0,0.0,75,0.00,,---,0.00,VWS V14.01,2013-11-12 11:16:00,
2013-11-12 06:17:00,41.5,34.2,30.11,SSW,202,0.0,0.0,75,0.00,,---,0.00,VWS V14.01,2013-11-12 11:17:00,
2013-11-12 06:18:00,41.4,34.1,30.11,SSW,202,0.0,0.0,75,0.00,,---,0.00,VWS V14.01,2013-11-12 11:18:00,
2013-11-12 06:19:00,41.3,34.0,30.11,SSW,202,0.0,1.0,75,0.00,,---,0.00,VWS V14.01,2013-11-12 11:19:00,
2013-11-12 06:20:00,41.3,34.0,30.11,SSW,202,1.0,3.0,75,0.00,,---,0.00,VWS V14.01,2013-11-12 11:20:00,
2013-11-12 06:21:00,41.3,34.0,30.11,South,180,2.0,2.0,75,0.00,,---,0.00,VWS V14.01,2013-11-12 11:21:00,
2013-11-12 06:22:00,41.3,34.0,30.11,SSW,202,1.0,1.0,75,0.00,,---,0.00,VWS V14.01,2013-11-12 11:22:00,
2013-11-12 06:23:00,41.3,34.0,30.11,SSW,202,1.0,1.0,75,0.00,,---,0.00,VWS V14.01,2013-11-12 11:23:00,
2013-11-12 06:24:00,41.3,34.0,30.11,SSW,202,1.0,1.0,75,0.00,,---,0.00,VWS V14.01,2013-11-12 11:24:00,
2013-11-12 06:25:00,41.2,33.9,30.11,SSW,202,0.0,1.0,75,0.00,,---,0.00,VWS V14.01,2013-11-12 11:25:00,
2013-11-12 06:26:00,41.2,34.2,30.11,SSW,202,0.0,0.0,76,0.00,,---,0.00,VWS V14.01,2013-11-12 11:26:00,
2013-11-12 06:27:00,41.2,34.2,30.11,SSW,202,0.0,0.0,76,0.00,,---,0.00,VWS V14.01,2013-11-12 11:27:00,
2013-11-12 06:28:00,41.1,34.1,30.11,SSW,202,0.0,0.0,76,0.00,,---,0.00,VWS V14.01,2013-11-12 11:28:00,
2013-11-12 06:29:00,41.0,34.0,30.11,SSW,202,0.0,0.0,76,0.00,,---,0.00,VWS V14.01,2013-11-12 11:29:00,
2013-11-12 06:30:00,41.0,34.0,30.11,SSW,202,0.0,1.0,76,0.00,,---,0.00,VWS V14.01,2013-11-12 11:30:00,
2013-11-12 06:31:00,40.9,33.9,30.11,SSW,202,0.0,1.0,76,0.00,,---,0.00,VWS V14.01,2013-11-12 11:31:00,
2013-11-12 06:32:00,40.9,33.9,30.11,SSW,202,0.0,1.0,76,0.00,,---,0.00,VWS V14.01,2013-11-12 11:32:00,
2013-11-12 06:33:00,40.9,33.9,30.11,SSW,202,0.0,0.0,76,0.00,,---,0.00,VWS V14.01,2013-11-12 11:33:00,
2013-11-12 06:34:00,40.9,33.9,30.11,SSW,202,0.0,0.0,76,0.00,,---,0.00,VWS V14.01,2013-11-12 11:34:00,
2013-11-12 06:35:00,40.9,33.9,30.11,SSW,202,0.0,0.0,76,0.00,,---,0.00,VWS V14.01,2013-11-12 11:35:00,
2013-11-12 06:36:00,40.9,33.9,30.11,SSW,202,0.0,0.0,76,0.00,,---,0.00,VWS V14.01,2013-11-12 11:36:00,
2013-11-12 06:37:00,40.9,33.9,30.11,SSW,202,0.0,0.0,76,0.00,,---,0.00,VWS V14.01,2013-11-12 11:37:00,
2013-11-12 06:38:00,40.9,33.9,30.11,SSW,202,0.0,0.0,76,0.00,,---,0.00,VWS V14.01,2013-11-12 11:38:00,
2013-11-12 06:39:00,40.9,33.9,30.11,SSW,202,0.0,0.0,76,0.00,,---,0.00,VWS V14.01,2013-11-12 11:39:00,
2013-11-12 06:40:00,40.9,34.3,30.11,SSW,202,0.0,0.0,77,0.00,,---,0.00,VWS V14.01,2013-11-12 11:40:00,
2013-11-12 06:41:00,40.8,34.2,30.11,SSW,202,0.0,0.0,77,0.00,,---,0.00,VWS V14.01,2013-11-12 11:41:00,
2013-11-12 06:42:00,40.8,34.2,30.11,SSW,202,0.0,0.0,77,0.00,,---,0.00,VWS V14.01,2013-11-12 11:42:00,
2013-11-12 06:43:00,40.7,34.1,30.11,SSW,202,0.0,0.0,77,0.00,,---,0.00,VWS V14.01,2013-11-12 11:43:00,
2013-11-12 06:44:00,40.7,34.1,30.11,SSW,202,0.0,0.0,77,0.00,,---,0.00,VWS V14.01,2013-11-12 11:44:00,
2013-11-12 06:45:00,40.7,34.1,30.11,SSW,202,0.0,0.0,77,0.00,,---,0.00,VWS V14.01,2013-11-12 11:45:00,
2013-11-12 06:46:00,40.7,34.1,30.11,SSW,202,0.0,0.0,77,0.00,,---,0.00,VWS V14.01,2013-11-12 11:46:00,
2013-11-12 06:47:00,40.7,34.1,30.11,SSW,202,0.0,0.0,77,0.00,,---,0.00,VWS V14.01,2013-11-12 11:47:00,
2013-11-12 06:48:00,40.7,34.1,30.11,SSW,202,0.0,0.0,77,0.00,,---,0.00,VWS V14.01,2013-11-12 11:48:00,
2013-11-12 06:49:00,40.5,33.9,30.11,SSW,208,0.0,0.0,77,0.00,,---,0.00,VWS V14.01,2013-11-12 11:49:00,
2013-11-12 06:50:00,40.5,33.9,30.11,SSW,208,0.0,0.0,77,0.00,,---,0.00,VWS V14.01,2013-11-12 11:50:00,
2013-11-12 06:51:00,40.4,33.8,30.11,SSW,207,0.0,0.0,77,0.00,,---,0.00,VWS V14.01,2013-11-12 11:51:00,
2013-11-12 06:52:00,40.3,33.7,30.11,SSW,207,0.0,1.0,77,0.00,,---,0.00,VWS V14.01,2013-11-12 11:52:00,
2013-11-12 06:53:00,40.3,34.0,30.11,SSW,209,0.0,0.0,78,0.00,,---,0.00,VWS V14.01,2013-11-12 11:53:00,
2013-11-12 06:54:00,40.3,34.0,30.11,SSW,209,0.0,0.0,78,0.00,,---,0.00,VWS V14.01,2013-11-12 11:54:00,
2013-11-12 06:55:00,40.3,34.0,30.11,SSW,208,0.0,0.0,78,0.00,,---,0.00,VWS V14.01,2013-11-12 11:55:00,
2013-11-12 06:56:00,40.3,34.0,30.11,SSW,209,0.0,0.0,78,0.00,,---,0.00,VWS V14.01,2013-11-12 11:56:00,
2013-11-12 06:57:00,40.3,34.0,30.11,SSW,209,0.0,0.0,78,0.00,,---,0.00,VWS V14.01,2013-11-12 11:57:00,
2013-11-12 06:58:00,40.3,34.0,30.12,SSW,209,1.0,1.0,78,0.00,,---,0.00,VWS V14.01,2013-11-12 11:58:00,
2013-11-12 06:59:00,40.3,34.0,30.12,SSW,209,1.0,1.0,78,0.00,,---,0.00,VWS V14.01,2013-11-12 11:59:00,
2013-11-12 07:00:00,40.4,34.1,30.12,SSW,209,0.0,0.0,78,0.00,,---,0.00,VWS V14.01,2013-11-12 12:00:00,
2013-11-12 07:01:00,40.4,34.1,30.12,SSW,209,0.0,1.0,78,0.00,,---,0.00,VWS V14.01,2013-11-12 12:01:00,
2013-11-12 07:02:00,40.4,34.1,30.12,SSW,209,0.0,0.0,78,0.00,,---,0.00,VWS V14.01,2013-11-12 12:02:00,
2013-11-12 07:03:00,40.5,34.2,30.12,SSW,209,0.0,0.0,78,0.00,,---,0.00,VWS V14.01,2013-11-12 12:03:00,
2013-11-12 07:04:00,40.5,34.2,30.12,SSW,209,0.0,0.0,78,0.00,,---,0.00,VWS V14.01,2013-11-12 12:04:00,
2013-11-12 07:05:00,40.5,34.2,30.11,SSW,209,0.0,0.0,78,0.00,,---,0.00,VWS V14.01,2013-11-12 12:05:00,
2013-11-12 07:06:00,40.5,34.2,30.11,SSW,209,0.0,0.0,78,0.00,,---,0.00,VWS V14.01,2013-11-12 12:06:00,
2013-11-12 07:07:00,40.6,34.3,30.11,SSW,209,0.0,0.0,78,0.00,,---,0.00,VWS V14.01,2013-11-12 12:07:00,
2013-11-12 07:08:00,40.6,34.3,30.11,SSW,209,0.0,0.0,78,0.00,,---,0.00,VWS V14.01,2013-11-12 12:08:00,
2013-11-12 07:09:00,40.6,34.3,30.11,SSW,209,1.0,1.0,78,0.00,,---,0.00,VWS V14.01,2013-11-12 12:09:00,
2013-11-12 07:10:00,40.6,34.3,30.11,SSW,209,1.0,1.0,78,0.00,,---,0.00,VWS V14.01,2013-11-12 12:10:00,
2013-11-12 07:11:00,40.6,34.3,30.11,SSW,194,1.0,2.0,78,0.00,,---,0.00,VWS V14.01,2013-11-12 12:11:00,
2013-11-12 07:12:00,40.6,34.3,30.11,SSW,194,1.0,1.0,78,0.00,,---,0.00,VWS V14.01,2013-11-12 12:12:00,
2013-11-12 07:13:00,40.7,34.4,30.11,SSW,194,0.0,0.0,78,0.00,,---,0.00,VWS V14.01,2013-11-12 12:13:00,
2013-11-12 07:14:00,40.7,34.4,30.11,SSW,194,0.0,0.0,78,0.00,,---,0.00,VWS V14.01,2013-11-12 12:14:00,
2013-11-12 07:15:00,40.7,34.4,30.11,SSW,196,0.0,0.0,78,0.00,,---,0.00,VWS V14.01,2013-11-12 12:15:00,
2013-11-12 07:16:00,40.8,34.5,30.11,SSW,196,0.0,0.0,78,0.00,,---,0.00,VWS V14.01,2013-11-12 12:16:00,
2013-11-12 07:17:00,40.8,34.5,30.11,SW,226,1.0,1.0,78,0.00,,---,0.00,VWS V14.01,2013-11-12 12:17:00,
2013-11-12 07:18:00,40.9,34.6,30.11,WSW,252,0.0,1.0,78,0.00,,---,0.00,VWS V14.01,2013-11-12 12:18:00,
2013-11-12 07:19:00,40.9,34.6,30.11,SW,221,2.0,2.0,78,0.00,,---,0.00,VWS V14.01,2013-11-12 12:19:00,
2013-11-12 07:20:00,41.1,34.5,30.11,SW,233,1.0,3.0,77,0.00,,---,0.00,VWS V14.01,2013-11-12 12:20:00,
2013-11-12 07:21:00,41.2,34.5,30.11,SW,225,0.0,2.0,77,0.00,,---,0.00,VWS V14.01,2013-11-12 12:21:00,
2013-11-12 07:22:00,41.3,34.7,30.11,SW,218,0.0,1.0,77,0.00,,---,0.00,VWS V14.01,2013-11-12 12:22:00,
2013-11-12 07:23:00,41.5,34.5,30.11,West,273,1.0,2.0,76,0.00,,---,0.00,VWS V14.01,2013-11-12 12:23:00,
2013-11-12 07:24:00,41.6,34.6,30.11,West,273,1.0,2.0,76,0.00,,---,0.00,VWS V14.01,2013-11-12 12:24:00,
2013-11-12 07:25:00,41.6,34.6,30.11,West,273,1.0,1.0,76,0.00,,---,0.00,VWS V14.01,2013-11-12 12:25:00,
2013-11-12 07:26:00,41.7,34.7,30.11,West,273,1.0,1.0,76,0.00,,---,0.00,VWS V14.01,2013-11-12 12:26:00,
2013-11-12 07:27:00,41.8,34.5,30.11,WSW,249,1.0,1.0,75,0.00,,---,0.00,VWS V14.01,2013-11-12 12:27:00,
2013-11-12 07:28:00,41.9,34.6,30.11,WSW,248,0.0,1.0,75,0.00,,---,0.00,VWS V14.01,2013-11-12 12:28:00,
2013-11-12 07:29:00,41.9,34.6,30.11,WSW,248,1.0,1.0,75,0.00,,---,0.00,VWS V14.01,2013-11-12 12:29:00,
2013-11-12 07:30:00,41.9,34.6,30.12,WSW,248,1.0,1.0,75,0.00,,---,0.00,VWS V14.01,2013-11-12 12:30:00,
2013-11-12 07:31:00,42.0,34.7,30.12,WSW,248,0.0,1.0,75,0.00,,---,0.00,VWS V14.01,2013-11-12 12:31:00,
2013-11-12 07:32:00,42.0,34.7,30.12,WSW,248,0.0,0.0,75,0.00,,---,0.00,VWS V14.01,2013-11-12 12:32:00,
2013-11-12 07:33:00,42.1,34.8,30.12,WSW,248,0.0,1.0,75,0.00,,---,0.00,VWS V14.01,2013-11-12 12:33:00,
2013-11-12 07:34:00,42.2,34.5,30.12,WSW,249,1.0,1.0,74,0.00,,---,0.00,VWS V14.01,2013-11-12 12:34:00,
2013-11-12 07:35:00,42.3,34.6,30.12,WSW,246,2.0,2.0,74,0.00,,---,0.00,VWS V14.01,2013-11-12 12:35:00,
2013-11-12 07:36:00,42.3,34.6,30.12,WSW,246,1.0,2.0,74,0.00,,---,0.00,VWS V14.01,2013-11-12 12:36:00,
2013-11-12 07:37:00,42.4,34.7,30.12,WSW,246,0.0,1.0,74,0.00,,---,0.00,VWS V14.01,2013-11-12 12:37:00,
2013-11-12 07:38:00,42.5,34.8,30.12,WSW,246,0.0,0.0,74,0.00,,---,0.00,VWS V14.01,2013-11-12 12:38:00,
2013-11-12 07:39:00,42.6,34.9,30.12,WSW,246,1.0,1.0,74,0.00,,---,0.00,VWS V14.01,2013-11-12 12:39:00,
2013-11-12 07:40:00,42.6,34.9,30.12,WSW,246,1.0,1.0,74,0.00,,---,0.00,VWS V14.01,2013-11-12 12:40:00,
2013-11-12 07:41:00,42.7,35.0,30.12,WSW,242,1.0,2.0,74,0.00,,---,0.00,VWS V14.01,2013-11-12 12:41:00,
2013-11-12 07:42:00,42.8,35.1,30.12,WSW,240,0.0,2.0,74,0.00,,---,0.00,VWS V14.01,2013-11-12 12:42:00,
2013-11-12 07:43:00,42.9,35.2,30.12,WSW,240,1.0,1.0,74,0.00,,---,0.00,VWS V14.01,2013-11-12 12:43:00,
2013-11-12 07:44:00,43.0,35.3,30.12,WSW,240,0.0,1.0,74,0.00,,---,0.00,VWS V14.01,2013-11-12 12:44:00,
2013-11-12 07:45:00,43.1,35.4,30.12,WSW,250,0.0,1.0,74,0.00,,---,0.00,VWS V14.01,2013-11-12 12:45:00,
2013-11-12 07:46:00,43.1,35.4,30.12,WSW,250,0.0,0.0,74,0.00,,---,0.00,VWS V14.01,2013-11-12 12:46:00,
2013-11-12 07:47:00,43.2,35.5,30.12,WSW,250,1.0,1.0,74,0.00,,---,0.00,VWS V14.01,2013-11-12 12:47:00,
2013-11-12 07:48:00,43.4,35.3,30.12,West,272,2.0,2.0,73,0.00,,---,0.00,VWS V14.01,2013-11-12 12:48:00,
2013-11-12 07:49:00,43.5,35.4,30.12,West,271,2.0,2.0,73,0.00,,---,0.00,VWS V14.01,2013-11-12 12:49:00,
2013-11-12 07:50:00,43.6,35.5,30.12,West,271,2.0,3.0,73,0.00,,---,0.00,VWS V14.01,2013-11-12 12:50:00,
2013-11-12 07:51:00,43.8,35.7,30.12,West,277,3.0,3.0,73,0.00,,---,0.00,VWS V14.01,2013-11-12 12:51:00,
2013-11-12 07:52:00,44.0,35.9,30.12,West,261,2.0,4.0,73,0.00,,---,0.00,VWS V14.01,2013-11-12 12:52:00,
2013-11-12 07:53:00,44.2,35.8,30.12,WSW,248,1.0,1.0,72,0.00,,---,0.00,VWS V14.01,2013-11-12 12:53:00,
2013-11-12 07:54:00,44.3,35.9,30.12,WSW,244,2.0,3.0,72,0.00,,---,0.00,VWS V14.01,2013-11-12 12:54:00,
2013-11-12 07:55:00,44.5,36.0,30.12,West,269,3.0,3.0,72,0.00,,---,0.00,VWS V14.01,2013-11-12 12:55:00,
2013-11-12 07:56:00,44.7,36.2,30.12,West,273,3.0,4.0,72,0.00,,---,0.00,VWS V14.01,2013-11-12 12:56:00,
2013-11-12 07:57:00,44.9,36.4,30.12,WSW,240,1.0,3.0,72,0.00,,---,0.00,VWS V14.01,2013-11-12 12:57:00,
2013-11-12 07:58:00,45.1,36.6,30.12,WNW,290,1.0,2.0,72,0.00,,---,0.00,VWS V14.01,2013-11-12 12:58:00,
2013-11-12 07:59:00,45.2,36.7,30.12,West,280,3.0,3.0,72,0.00,,---,0.00,VWS V14.01,2013-11-12 12:59:00,
2013-11-12 08:00:00,45.4,36.9,30.12,West,267,1.0,2.0,72,0.00,,---,0.00,VWS V14.01,2013-11-12 13:00:00,
2013-11-12 08:01:00,45.7,36.8,30.12,SW,236,3.0,5.0,71,0.00,,---,0.00,VWS V14.01,2013-11-12 13:01:00,
2013-11-12 08:02:00,45.9,37.0,30.12,West,273,1.0,4.0,71,0.00,,---,0.00,VWS V14.01,2013-11-12 13:02:00,
2013-11-12 08:03:00,46.2,37.3,30.12,West,264,1.0,1.0,71,0.00,,---,0.00,VWS V14.01,2013-11-12 13:03:00,
2013-11-12 08:04:00,46.3,37.4,30.12,WSW,245,1.0,3.0,71,0.00,,---,0.00,VWS V14.01,2013-11-12 13:04:00,
2013-11-12 08:05:00,46.5,37.3,30.12,West,269,2.0,3.0,70,0.00,,---,0.00,VWS V14.01,2013-11-12 13:05:00,
2013-11-12 08:06:00,46.6,37.3,30.12,SW,219,1.0,2.0,70,0.00,,---,0.00,VWS V14.01,2013-11-12 13:06:00,
2013-11-12 08:07:00,46.8,37.5,30.12,West,265,1.0,2.0,70,0.00,,---,0.00,VWS V14.01,2013-11-12 13:07:00,
2013-11-12 08:08:00,46.9,37.3,30.12,West,262,1.0,1.0,69,0.00,,---,0.00,VWS V14.01,2013-11-12 13:08:00,
2013-11-12 08:09:00,47.0,37.4,30.12,WSW,257,1.0,2.0,69,0.00,,---,0.00,VWS V14.01,2013-11-12 13:09:00,
2013-11-12 08:10:00,47.2,37.6,30.12,SSE,153,3.0,3.0,69,0.00,,---,0.00,VWS V14.01,2013-11-12 13:10:00,
2013-11-12 08:11:00,47.3,37.3,30.12,West,281,2.0,3.0,68,0.00,,---,0.00,VWS V14.01,2013-11-12 13:11:00,
2013-11-12 08:12:00,47.4,37.4,30.12,West,275,1.0,7.0,68,0.00,,---,0.00,VWS V14.01,2013-11-12 13:12:00,
2013-11-12 08:13:00,47.5,37.1,30.13,WNW,284,3.0,3.0,67,0.00,,---,0.00,VWS V14.01,2013-11-12 13:13:00,
2013-11-12 08:14:00,47.6,37.2,30.13,West,281,4.0,4.0,67,0.00,,---,0.00,VWS V14.01,2013-11-12 13:14:00,
2013-11-12 08:15:00,47.7,37.3,30.13,West,261,4.0,4.0,67,0.00,,---,0.00,VWS V14.01,2013-11-12 13:15:00,
2013-11-12 08:16:00,47.7,37.3,30.13,WNW,284,2.0,4.0,67,0.00,,---,0.00,VWS V14.01,2013-11-12 13:16:00,
2013-11-12 08:17:00,47.8,37.4,30.13,West,259,3.0,3.0,67,0.00,,---,0.00,VWS V14.01,2013-11-12 13:17:00,
2013-11-12 08:18:00,47.9,37.1,30.13,West,277,2.0,3.0,66,0.00,,---,0.00,VWS V14.01,2013-11-12 13:18:00,
2013-11-12 08:19:00,47.9,37.1,30.13,West,277,1.0,3.0,66,0.00,,---,0.00,VWS V14.01,2013-11-12 13:19:00,
2013-11-12 08:20:00,48.0,37.2,30.13,WNW,290,3.0,3.0,66,0.00,,---,0.00,VWS V14.01,2013-11-12 13:20:00,
2013-11-12 08:21:00,48.0,37.2,30.13,WSW,254,2.0,3.0,66,0.00,,---,0.00,VWS V14.01,2013-11-12 13:21:00,
2013-11-12 08:22:00,48.0,37.2,30.13,WNW,292,2.0,3.0,66,0.00,,---,0.00,VWS V14.01,2013-11-12 13:22:00,
2013-11-12 08:23:00,48.1,36.9,30.13,North,351,2.0,2.0,65,0.00,,---,0.00,VWS V14.01,2013-11-12 13:23:00,
2013-11-12 08:24:00,48.1,36.9,30.13,West,279,4.0,5.0,65,0.00,,---,0.00,VWS V14.01,2013-11-12 13:24:00,
2013-11-12 08:25:00,48.1,36.9,30.13,WNW,286,2.0,4.0,65,0.00,,---,0.00,VWS V14.01,2013-11-12 13:25:00,
2013-11-12 08:26:00,48.1,36.9,30.13,WNW,284,3.0,4.0,65,0.00,,---,0.00,VWS V14.01,2013-11-12 13:26:00,
2013-11-12 08:27:00,48.1,36.9,30.13,West,279,2.0,4.0,65,0.00,,---,0.00,VWS V14.01,2013-11-12 13:27:00,
2013-11-12 08:28:00,48.1,36.9,30.12,West,280,0.0,1.0,65,0.00,,---,0.00,VWS V14.01,2013-11-12 13:28:00,
2013-11-12 08:29:00,48.1,37.3,30.12,West,267,2.0,2.0,66,0.00,,---,0.00,VWS V14.01,2013-11-12 13:29:00,
2013-11-12 08:30:00,48.2,37.4,30.12,WNW,283,2.0,4.0,66,0.00,,---,0.00,VWS V14.01,2013-11-12 13:30:00,
2013-11-12 08:31:00,48.2,37.0,30.12,West,267,2.0,2.0,65,0.00,,---,0.00,VWS V14.01,2013-11-12 13:31:00,
2013-11-12 08:32:00,48.2,37.4,30.12,West,265,2.0,3.0,66,0.00,,---,0.00,VWS V14.01,2013-11-12 13:32:00,
2013-11-12 08:33:00,48.2,37.0,30.12,West,281,2.0,2.0,65,0.00,,---,0.00,VWS V14.01,2013-11-12 13:33:00,
2013-11-12 08:34:00,48.2,37.0,30.12,West,277,3.0,4.0,65,0.00,,---,0.00,VWS V14.01,2013-11-12 13:34:00,
2013-11-12 08:35:00,48.2,37.0,30.12,West,276,2.0,4.0,65,0.00,,---,0.00,VWS V14.01,2013-11-12 13:35:00,
2013-11-12 08:36:00,48.2,37.0,30.12,West,263,1.0,5.0,65,0.00,,---,0.00,VWS V14.01,2013-11-12 13:36:00,
2013-11-12 08:37:00,48.2,37.0,30.12,West,265,2.0,3.0,65,0.00,,---,0.00,VWS V14.01,2013-11-12 13:37:00,
2013-11-12 08:38:00,48.3,37.1,30.13,West,268,5.0,5.0,65,0.00,,---,0.00,VWS V14.01,2013-11-12 13:38:00,
2013-11-12 08:39:00,48.3,37.1,30.13,WNW,286,2.0,5.0,65,0.00,,---,0.00,VWS V14.01,2013-11-12 13:39:00,
2013-11-12 08:40:00,48.3,37.1,30.12,West,261,3.0,4.0,65,0.00,,---,0.00,VWS V14.01,2013-11-12 13:40:00,
2013-11-12 08:41:00,48.3,37.1,30.12,West,269,2.0,4.0,65,0.00,,---,0.00,VWS V14.01,2013-11-12 13:41:00,
2013-11-12 08:42:00,48.3,37.1,30.12,WSW,247,2.0,3.0,65,0.00,,---,0.00,VWS V14.01,2013-11-12 13:42:00,
2013-11-12 08:43:00,48.4,37.2,30.13,West,259,2.0,3.0,65,0.00,,---,0.00,VWS V14.01,2013-11-12 13:43:00,
2013-11-12 08:44:00,48.4,37.2,30.13,WSW,237,4.0,4.0,65,0.00,,---,0.00,VWS V14.01,2013-11-12 13:44:00,
2013-11-12 08:45:00,48.5,37.3,30.13,West,279,1.0,4.0,65,0.00,,---,0.00,VWS V14.01,2013-11-12 13:45:00,
2013-11-12 08:46:00,48.6,37.4,30.13,WSW,250,2.0,2.0,65,0.00,,---,0.00,VWS V14.01,2013-11-12 13:46:00,
2013-11-12 08:47:00,48.7,37.9,30.13,WNW,290,2.0,3.0,66,0.00,,---,0.00,VWS V14.01,2013-11-12 13:47:00,
2013-11-12 08:48:00,48.8,37.6,30.13,West,265,2.0,2.0,65,0.00,,---,0.00,VWS V14.01,2013-11-12 13:48:00,
2013-11-12 08:49:00,48.9,37.3,30.13,West,271,3.0,5.0,64,0.00,,---,0.00,VWS V14.01,2013-11-12 13:49:00,
2013-11-12 08:50:00,49.1,37.5,30.13,West,269,3.0,4.0,64,0.00,,---,0.00,VWS V14.01,2013-11-12 13:50:00,
2013-11-12 08:51:00,49.3,37.7,30.13,West,272,4.0,5.0,64,0.00,,---,0.00,VWS V14.01,2013-11-12 13:51:00,
2013-11-12 08:52:00,49.4,37.8,30.13,West,280,3.0,4.0,64,0.00,,---,0.00,VWS V14.01,2013-11-12 13:52:00,
2013-11-12 08:53:00,49.6,37.5,30.13,West,280,4.0,6.0,63,0.00,,---,0.00,VWS V14.01,2013-11-12 13:53:00,
2013-11-12 08:54:00,49.7,37.6,30.13,West,261,3.0,6.0,63,0.00,,---,0.00,VWS V14.01,2013-11-12 13:54:00,
2013-11-12 08:55:00,49.9,38.2,30.13,North,355,1.0,3.0,64,0.00,,---,0.00,VWS V14.01,2013-11-12 13:55:00,
2013-11-12 08:56:00,50.1,38.4,30.13,WNW,284,2.0,4.0,64,0.00,,---,0.00,VWS V14.01,2013-11-12 13:56:00,
2013-11-12 08:57:00,50.4,37.9,30.13,NW,319,4.0,4.0,62,0.00,,---,0.00,VWS V14.01,2013-11-12 13:57:00,
2013-11-12 08:58:00,50.6,37.7,30.13,West,271,4.0,5.0,61,0.00,,---,0.00,VWS V14.01,2013-11-12 13:58:00,
2013-11-12 08:59:00,50.7,38.2,30.13,West,265,1.0,5.0,62,0.00,,---,0.00,VWS V14.01,2013-11-12 13:59:00,
2013-11-12 09:00:00,50.9,37.9,30.13,West,277,5.0,6.0,61,0.00,,---,0.00,VWS V14.01,2013-11-12 14:00:00,
2013-11-12 09:01:00,51.0,37.6,30.13,West,260,8.0,8.0,60,0.00,,---,0.00,VWS V14.01,2013-11-12 14:01:00,
2013-11-12 09:02:00,51.1,37.3,30.13,West,276,6.0,10.0,59,0.00,,---,0.00,VWS V14.01,2013-11-12 14:02:00,
2013-11-12 09:03:00,51.2,37.4,30.13,WNW,291,6.0,6.0,59,0.00,,---,0.00,VWS V14.01,2013-11-12 14:03:00,
2013-11-12 09:04:00,51.3,37.9,30.13,West,261,4.0,6.0,60,0.00,,---,0.00,VWS V14.01,2013-11-12 14:04:00,
2013-11-12 09:05:00,51.4,38.0,30.13,West,277,5.0,5.0,60,0.00,,---,0.00,VWS V14.01,2013-11-12 14:05:00,
2013-11-12 09:06:00,51.5,38.1,30.13,West,269,2.0,5.0,60,0.00,,---,0.00,VWS V14.01,2013-11-12 14:06:00,
2013-11-12 09:07:00,51.6,38.2,30.13,WSW,257,3.0,4.0,60,0.00,,---,0.00,VWS V14.01,2013-11-12 14:07:00,
2013-11-12 09:08:00,51.7,38.3,30.13,WNW,301,4.0,4.0,60,0.00,,---,0.00,VWS V14.01,2013-11-12 14:08:00,
2013-11-12 09:09:00,51.7,38.3,30.13,NW,311,3.0,4.0,60,0.00,,---,0.00,VWS V14.01,2013-11-12 14:09:00,
2013-11-12 09:10:00,51.8,38.4,30.13,West,262,5.0,5.0,60,0.00,,---,0.00,VWS V14.01,2013-11-12 14:10:00,
2013-11-12 09:11:00,51.8,38.4,30.13,West,261,6.0,6.0,60,0.00,,---,0.00,VWS V14.01,2013-11-12 14:11:00,
2013-11-12 09:12:00,51.8,37.9,30.13,West,276,6.0,8.0,59,0.00,,---,0.00,VWS V14.01,2013-11-12 14:12:00,
2013-11-12 09:13:00,51.8,38.4,30.13,West,281,3.0,3.0,60,0.00,,---,0.00,VWS V14.01,2013-11-12 14:13:00,
2013-11-12 09:14:00,51.9,38.0,30.13,WNW,290,3.0,7.0,59,0.00,,---,0.00,VWS V14.01,2013-11-12 14:14:00,
2013-11-12 09:15:00,51.9,38.0,30.13,WSW,257,4.0,6.0,59,0.00,,---,0.00,VWS V14.01,2013-11-12 14:15:00,
2013-11-12 09:16:00,51.9,38.5,30.13,West,269,5.0,6.0,60,0.00,,---,0.00,VWS V14.01,2013-11-12 14:16:00,
2013-11-12 09:17:00,51.9,38.0,30.13,WSW,242,2.0,5.0,59,0.00,,---,0.00,VWS V14.01,2013-11-12 14:17:00,
2013-11-12 09:18:00,52.0,38.6,30.13,SW,215,4.0,4.0,60,0.00,,---,0.00,VWS V14.01,2013-11-12 14:18:00,
2013-11-12 09:19:00,52.0,38.1,30.13,West,277,3.0,5.0,59,0.00,,---,0.00,VWS V14.01,2013-11-12 14:19:00,
2013-11-12 09:20:00,52.0,38.6,30.13,West,280,4.0,4.0,60,0.00,,---,0.00,VWS V14.01,2013-11-12 14:20:00,
2013-11-12 09:21:00,52.1,38.7,30.14,WNW,290,5.0,5.0,60,0.00,,---,0.00,VWS V14.01,2013-11-12 14:21:00,
2013-11-12 09:22:00,52.1,38.7,30.13,West,276,1.0,5.0,60,0.00,,---,0.00,VWS V14.01,2013-11-12 14:22:00,
2013-11-12 09:23:00,52.1,38.7,30.14,WSW,252,2.0,2.0,60,0.00,,---,0.00,VWS V14.01,2013-11-12 14:23:00,
2013-11-12 09:24:00,52.2,38.8,30.14,West,280,1.0,3.0,60,0.00,,---,0.00,VWS V14.01,2013-11-12 14:24:00,
2013-11-12 09:25:00,52.2,38.8,30.14,WNW,291,5.0,5.0,60,0.00,,---,0.00,VWS V14.01,2013-11-12 14:25:00,
2013-11-12 09:26:00,52.2,38.3,30.14,West,267,0.0,5.0,59,0.00,,---,0.00,VWS V14.01,2013-11-12 14:26:00,
2013-11-12 09:27:00,52.2,38.3,30.14,West,280,5.0,6.0,59,0.00,,---,0.00,VWS V14.01,2013-11-12 14:27:00,
2013-11-12 09:28:00,52.1,38.2,30.14,West,265,3.0,4.0,59,0.00,,---,0.00,VWS V14.01,2013-11-12 14:28:00,
2013-11-12 09:29:00,52.1,38.2,30.14,West,265,3.0,4.0,59,0.00,,---,0.00,VWS V14.01,2013-11-12 14:29:00,
2013-11-12 09:30:00,52.1,38.7,30.14,WSW,250,1.0,3.0,60,0.00,,---,0.00,VWS V14.01,2013-11-12 14:30:00,
2013-11-12 09:31:00,52.2,39.2,30.14,West,281,1.0,1.0,61,0.00,,---,0.00,VWS V14.01,2013-11-12 14:31:00,
2013-11-12 09:32:00,52.2,39.2,30.14,West,263,1.0,2.0,61,0.00,,---,0.00,VWS V14.01,2013-11-12 14:32:00,
2013-11-12 09:33:00,52.4,39.4,30.14,West,264,1.0,1.0,61,0.00,,---,0.00,VWS V14.01,2013-11-12 14:33:00,
2013-11-12 09:34:00,52.4,39.4,30.14,WNW,284,2.0,3.0,61,0.00,,---,0.00,VWS V14.01,2013-11-12 14:34:00,
2013-11-12 09:35:00,52.4,38.5,30.14,West,261,5.0,6.0,59,0.00,,---,0.00,VWS V14.01,2013-11-12 14:35:00,
2013-11-12 09:36:00,52.3,38.8,30.14,West,273,6.0,6.0,60,0.00,,---,0.00,VWS V14.01,2013-11-12 14:36:00,
2013-11-12 09:37:00,52.2,38.3,30.14,West,264,4.0,6.0,59,0.00,,---,0.00,VWS V14.01,2013-11-12 14:37:00,
2013-11-12 09:38:00,52.1,38.2,30.14,West,269,4.0,5.0,59,0.00,,---,0.00,VWS V14.01,2013-11-12 14:38:00,
2013-11-12 09:39:00,52.0,38.1,30.14,WSW,237,3.0,5.0,59,0.00,,---,0.00,VWS V14.01,2013-11-12 14:39:00,
2013-11-12 09:40:00,52.0,38.6,30.14,WSW,254,4.0,5.0,60,0.00,,---,0.00,VWS V14.01,2013-11-12 14:40:00,
2013-11-12 09:41:00,52.0,39.0,30.14,WSW,257,4.0,4.0,61,0.00,,---,0.00,VWS V14.01,2013-11-12 14:41:00,
2013-11-12 09:42:00,52.0,39.0,30.14,WSW,249,1.0,4.0,61,0.00,,---,0.00,VWS V14.01,2013-11-12 14:42:00,
2013-11-12 09:43:00,52.0,38.6,30.14,West,264,2.0,2.0,60,0.00,,---,0.00,VWS V14.01,2013-11-12 14:43:00,
2013-11-12 09:44:00,51.9,38.5,30.14,WNW,283,2.0,2.0,60,0.00,,---,0.00,VWS V14.01,2013-11-12 14:44:00,
2013-11-12 09:45:00,52.0,38.6,30.14,NW,309,2.0,3.0,60,0.00,,---,0.00,VWS V14.01,2013-11-12 14:45:00,
2013-11-12 09:46:00,52.0,39.0,30.14,WSW,249,1.0,4.0,61,0.00,,---,0.00,VWS V14.01,2013-11-12 14:46:00,
2013-11-12 09:47:00,52.0,38.1,30.14,WNW,300,1.0,4.0,59,0.00,,---,0.00,VWS V14.01,2013-11-12 14:47:00,
2013-11-12 09:48:00,51.9,38.0,30.14,WNW,298,3.0,3.0,59,0.00,,---,0.00,VWS V14.01,2013-11-12 14:48:00,
2013-11-12 09:49:00,51.9,38.0,30.14,West,279,3.0,6.0,59,0.00,,---,0.00,VWS V14.01,2013-11-12 14:49:00,
2013-11-12 09:50:00,51.8,37.9,30.14,West,277,4.0,6.0,59,0.00,,---,0.00,VWS V14.01,2013-11-12 14:50:00,
2013-11-12 09:51:00,51.7,37.8,30.14,West,276,5.0,5.0,59,0.00,,---,0.00,VWS V14.01,2013-11-12 14:51:00,
2013-11-12 09:52:00,51.6,37.8,30.14,WNW,292,3.0,6.0,59,0.00,,---,0.00,VWS V14.01,2013-11-12 14:52:00,
2013-11-12 09:53:00,51.5,38.1,30.14,WNW,286,2.0,3.0,60,0.00,,---,0.00,VWS V14.01,2013-11-12 14:53:00,
2013-11-12 09:54:00,51.5,38.1,30.14,NW,309,2.0,3.0,60,0.00,,---,0.00,VWS V14.01,2013-11-12 14:54:00,
2013-11-12 09:55:00,51.4,38.0,30.14,WNW,291,3.0,4.0,60,0.00,,---,0.00,VWS V14.01,2013-11-12 14:55:00,
2013-11-12 09:56:00,51.4,38.0,30.14,NNW,327,2.0,3.0,60,0.00,,---,0.00,VWS V14.01,2013-11-12 14:56:00,
2013-11-12 09:57:00,51.4,38.4,30.14,West,280,1.0,2.0,61,0.00,,---,0.00,VWS V14.01,2013-11-12 14:57:00,
2013-11-12 09:58:00,51.4,38.4,30.14,West,275,2.0,2.0,61,0.00,,---,0.00,VWS V14.01,2013-11-12 14:58:00,
2013-11-12 09:59:00,51.5,38.9,30.14,West,261,3.0,3.0,62,0.00,,---,0.00,VWS V14.01,2013-11-12 14:59:00,
2013-11-12 10:01:00,51.5,38.5,30.14,WNW,286,2.0,3.0,61,0.00,,---,0.00,VWS V14.01,2013-11-12 15:01:00,
2013-11-12 10:02:00,51.5,38.5,30.14,North,350,1.0,2.0,61,0.00,,---,0.00,VWS V14.01,2013-11-12 15:02:00,
2013-11-12 10:03:00,51.6,39.0,30.14,WSW,256,2.0,2.0,62,0.00,,---,0.00,VWS V14.01,2013-11-12 15:03:00,
2013-11-12 10:04:00,51.6,39.0,30.14,NNW,338,1.0,2.0,62,0.00,,---,0.00,VWS V14.01,2013-11-12 15:04:00,
2013-11-12 10:05:00,51.7,38.7,30.14,WNW,288,2.0,2.0,61,0.00,,---,0.00,VWS V14.01,2013-11-12 15:05:00,
2013-11-12 10:06:00,51.7,38.7,30.14,West,272,2.0,2.0,61,0.00,,---,0.00,VWS V14.01,2013-11-12 15:06:00,
2013-11-12 10:07:00,51.7,38.7,30.14,WNW,291,1.0,2.0,61,0.00,,---,0.00,VWS V14.01,2013-11-12 15:07:00,
2013-11-12 10:08:00,51.7,38.7,30.14,West,276,3.0,3.0,61,0.00,,---,0.00,VWS V14.01,2013-11-12 15:08:00,
2013-11-12 10:09:00,51.7,38.7,30.14,West,279,2.0,3.0,61,0.00,,---,0.00,VWS V14.01,2013-11-12 15:09:00,
2013-11-12 10:10:00,51.7,38.7,30.14,NW,322,2.0,2.0,61,0.00,,---,0.00,VWS V14.01,2013-11-12 15:10:00,
2013-11-12 10:11:00,51.7,38.7,30.14,NW,311,1.0,2.0,61,0.00,,---,0.00,VWS V14.01,2013-11-12 15:11:00,
2013-11-12 10:12:00,51.7,38.7,30.14,West,279,2.0,2.0,61,0.00,,---,0.00,VWS V14.01,2013-11-12 15:12:00,
2013-11-12 10:13:00,51.7,38.7,30.14,West,279,0.0,2.0,61,0.00,,---,0.00,VWS V14.01,2013-11-12 15:13:00,
2013-11-12 10:14:00,51.9,39.3,30.14,NNW,329,1.0,1.0,62,0.00,,---,0.00,VWS V14.01,2013-11-12 15:14:00,
2013-11-12 10:15:00,52.0,39.8,30.14,NE,52,2.0,2.0,63,0.00,,---,0.00,VWS V14.01,2013-11-12 15:15:00,
2013-11-12 10:16:00,52.0,39.8,30.14,NNE,22,2.0,2.0,63,0.00,,---,0.00,VWS V14.01,2013-11-12 15:16:00,
2013-11-12 10:17:00,52.1,39.5,30.14,NNE,17,1.0,2.0,62,0.00,,---,0.00,VWS V14.01,2013-11-12 15:17:00,
2013-11-12 10:18:00,52.2,39.6,30.14,WNW,284,3.0,3.0,62,0.00,,---,0.00,VWS V14.01,2013-11-12 15:18:00,
2013-11-12 10:19:00,52.2,39.6,30.14,WNW,291,2.0,3.0,62,0.00,,---,0.00,VWS V14.01,2013-11-12 15:19:00,
2013-11-12 10:20:00,52.3,39.3,30.14,NNW,333,0.0,2.0,61,0.00,,---,0.00,VWS V14.01,2013-11-12 15:20:00,
2013-11-12 10:21:00,52.4,39.8,30.14,NNE,13,3.0,4.0,62,0.00,,---,0.00,VWS V14.01,2013-11-12 15:21:00,
2013-11-12 10:22:00,52.5,39.5,30.14,NNE,23,2.0,4.0,61,0.00,,---,0.00,VWS V14.01,2013-11-12 15:22:00,
2013-11-12 10:23:00,52.5,39.0,30.14,NNE,32,2.0,2.0,60,0.00,,---,0.00,VWS V14.01,2013-11-12 15:23:00,
2013-11-12 10:24:00,52.5,39.0,30.15,West,269,1.0,2.0,60,0.00,,---,0.00,VWS V14.01,2013-11-12 15:24:00,
2013-11-12 10:25:00,52.6,39.5,30.15,NNW,348,3.0,3.0,61,0.00,,---,0.00,VWS V14.01,2013-11-12 15:25:00,
2013-11-12 10:26:00,52.6,39.1,30.14,West,277,1.0,3.0,60,0.00,,---,0.00,VWS V14.01,2013-11-12 15:26:00,
2013-11-12 10:27:00,52.6,39.1,30.14,West,265,1.0,1.0,60,0.00,,---,0.00,VWS V14.01,2013-11-12 15:27:00,
2013-11-12 10:28:00,52.7,39.6,30.14,NW,325,0.0,1.0,61,0.00,,---,0.00,VWS V14.01,2013-11-12 15:28:00,
2013-11-12 10:29:00,52.8,39.7,30.14,NW,325,1.0,1.0,61,0.00,,---,0.00,VWS V14.01,2013-11-12 15:29:00,
2013-11-12 10:30:00,52.9,39.4,30.14,NNE,31,3.0,3.0,60,0.00,,---,0.00,VWS V14.01,2013-11-12 15:30:00,
2013-11-12 10:31:00,52.9,39.4,30.14,NNE,28,1.0,3.0,60,0.00,,---,0.00,VWS V14.01,2013-11-12 15:31:00,
2013-11-12 10:32:00,52.9,39.4,30.14,NNE,33,0.0,1.0,60,0.00,,---,0.00,VWS V14.01,2013-11-12 15:32:00,
2013-11-12 10:33:00,53.0,39.5,30.14,WNW,288,2.0,2.0,60,0.00,,---,0.00,VWS V14.01,2013-11-12 15:33:00,
2013-11-12 10:34:00,53.1,39.6,30.14,NW,316,2.0,3.0,60,0.00,,---,0.00,VWS V14.01,2013-11-12 15:34:00,
2013-11-12 10:35:00,53.1,39.6,30.14,NNW,334,1.0,2.0,60,0.00,,---,0.00,VWS V14.01,2013-11-12 15:35:00,
2013-11-12 10:36:00,53.2,39.7,30.14,NNE,19,0.0,2.0,60,0.00,,---,0.00,VWS V14.01,2013-11-12 15:36:00,
2013-11-12 10:37:00,53.2,39.7,30.14,NNW,340,3.0,3.0,60,0.00,,---,0.00,VWS V14.01,2013-11-12 15:37:00,
2013-11-12 10:38:00,53.3,39.3,30.14,WNW,300,1.0,3.0,59,0.00,,---,0.00,VWS V14.01,2013-11-12 15:38:00,
2013-11-12 10:39:00,53.4,39.5,30.14,NW,304,1.0,1.0,59,0.00,,---,0.00,VWS V14.01,2013-11-12 15:39:00,
2013-11-12 10:40:00,53.4,39.9,30.14,NE,42,3.0,3.0,60,0.00,,---,0.00,VWS V14.01,2013-11-12 15:40:00,
2013-11-12 10:41:00,53.5,40.0,30.14,NE,38,3.0,3.0,60,0.00,,---,0.00,VWS V14.01,2013-11-12 15:41:00,
2013-11-12 10:42:00,53.6,39.6,30.14,NNE,32,4.0,4.0,59,0.00,,---,0.00,VWS V14.01,2013-11-12 15:42:00,
2013-11-12 10:43:00,53.7,39.3,30.14,NNE,30,2.0,2.0,58,0.00,,---,0.00,VWS V14.01,2013-11-12 15:43:00,
2013-11-12 10:44:00,53.8,39.4,30.14,NNE,33,3.0,3.0,58,0.00,,---,0.00,VWS V14.01,2013-11-12 15:44:00,
2013-11-12 10:45:00,53.9,39.5,30.14,NNW,344,3.0,4.0,58,0.00,,---,0.00,VWS V14.01,2013-11-12 15:45:00,
2013-11-12 10:46:00,54.1,39.2,30.14,NNE,27,4.0,4.0,57,0.00,,---,0.00,VWS V14.01,2013-11-12 15:46:00,
2013-11-12 10:47:00,54.2,38.9,30.14,NNE,27,5.0,5.0,56,0.00,,---,0.00,VWS V14.01,2013-11-12 15:47:00,
2013-11-12 10:48:00,54.3,39.0,30.14,NE,36,5.0,5.0,56,0.00,,---,0.00,VWS V14.01,2013-11-12 15:48:00,
2013-11-12 10:49:00,54.5,39.1,30.14,NE,40,3.0,5.0,56,0.00,,---,0.00,VWS V14.01,2013-11-12 15:49:00,
2013-11-12 10:50:00,54.6,38.8,30.15,NNW,332,5.0,7.0,55,0.00,,---,0.00,VWS V14.01,2013-11-12 15:50:00,
2013-11-12 10:52:00,54.8,39.0,30.14,NNE,31,3.0,5.0,55,0.00,,---,0.00,VWS V14.01,2013-11-12 15:52:00,
2013-11-12 10:53:00,54.9,38.6,30.14,NNE,27,6.0,6.0,54,0.00,,---,0.00,VWS V14.01,2013-11-12 15:53:00,
2013-11-12 10:54:00,54.9,38.1,30.15,NNE,17,7.0,8.0,53,0.00,,---,0.00,VWS V14.01,2013-11-12 15:54:00,
2013-11-12 10:55:00,55.0,38.7,30.14,NNE,12,4.0,7.0,54,0.00,,---,0.00,VWS V14.01,2013-11-12 15:55:00,
2013-11-12 10:56:00,55.0,38.7,30.14,NNE,27,4.0,6.0,54,0.00,,---,0.00,VWS V14.01,2013-11-12 15:56:00,
2013-11-12 10:57:00,55.1,38.3,30.14,NNE,27,5.0,5.0,53,0.00,,---,0.00,VWS V14.01,2013-11-12 15:57:00,
2013-11-12 10:58:00,55.1,38.8,30.14,NNE,30,4.0,6.0,54,0.00,,---,0.00,VWS V14.01,2013-11-12 15:58:00,
2013-11-12 10:59:00,55.2,38.4,30.15,NNE,17,4.0,5.0,53,0.00,,---,0.00,VWS V14.01,2013-11-12 15:59:00,
2013-11-12 11:01:00,55.2,38.4,30.15,NNE,25,6.0,7.0,53,0.00,,---,0.00,VWS V14.01,2013-11-12 16:01:00,
2013-11-12 11:02:00,55.3,38.5,30.14,NNE,31,3.0,4.0,53,0.00,,---,0.00,VWS V14.01,2013-11-12 16:02:00,
2013-11-12 11:03:00,55.4,38.6,30.14,NNE,16,4.0,5.0,53,0.00,,---,0.00,VWS V14.01,2013-11-12 16:03:00,
2013-11-12 11:04:00,55.4,38.6,30.14,NE,40,3.0,5.0,53,0.00,,---,0.00,VWS V14.01,2013-11-12 16:04:00,
2013-11-12 11:05:00,55.5,38.7,30.14,NNE,22,4.0,4.0,53,0.00,,---,0.00,VWS V14.01,2013-11-12 16:05:00,
2013-11-12 11:06:00,55.5,38.7,30.14,NE,35,4.0,5.0,53,0.00,,---,0.00,VWS V14.01,2013-11-12 16:06:00,
2013-11-12 11:07:00,55.7,38.8,30.14,NE,38,5.0,5.0,53,0.00,,---,0.00,VWS V14.01,2013-11-12 16:07:00,
2013-11-12 11:08:00,55.7,38.8,30.14,NNE,18,3.0,7.0,53,0.00,,---,0.00,VWS V14.01,2013-11-12 16:08:00,
2013-11-12 11:09:00,55.7,38.4,30.14,NNE,16,6.0,6.0,52,0.00,,---,0.00,VWS V14.01,2013-11-12 16:09:00,
2013-11-12 11:10:00,55.7,38.4,30.14,NE,43,2.0,6.0,52,0.00,,---,0.00,VWS V14.01,2013-11-12 16:10:00,
2013-11-12 11:11:00,55.8,38.5,30.15,NE,46,2.0,3.0,52,0.00,,---,0.00,VWS V14.01,2013-11-12 16:11:00,
2013-11-12 11:12:00,56.0,39.1,30.14,NNW,331,2.0,3.0,53,0.00,,---,0.00,VWS V14.01,2013-11-12 16:12:00,
2013-11-12 11:13:00,56.1,39.2,30.14,NNE,24,4.0,4.0,53,0.00,,---,0.00,VWS V14.01,2013-11-12 16:13:00,
2013-11-12 11:14:00,56.2,38.8,30.14,NNE,32,3.0,4.0,52,0.00,,---,0.00,VWS V14.01,2013-11-12 16:14:00,
2013-11-12 11:15:00,56.3,38.9,30.14,NNE,30,3.0,3.0,52,0.00,,---,0.00,VWS V14.01,2013-11-12 16:15:00,
2013-11-12 11:16:00,56.3,38.9,30.14,NE,53,1.0,4.0,52,0.00,,---,0.00,VWS V14.01,2013-11-12 16:16:00,
2013-11-12 11:17:00,56.4,39.0,30.14,NE,42,3.0,3.0,52,0.00,,---,0.00,VWS V14.01,2013-11-12 16:17:00,
2013-11-12 11:18:00,56.6,39.2,30.14,NNE,20,1.0,3.0,52,0.00,,---,0.00,VWS V14.01,2013-11-12 16:18:00,
2013-11-12 11:19:00,56.7,39.3,30.14,NNE,31,6.0,7.0,52,0.00,,---,0.00,VWS V14.01,2013-11-12 16:19:00,
2013-11-12 11:20:00,56.7,38.3,30.14,NNE,32,4.0,6.0,50,0.00,,---,0.00,VWS V14.01,2013-11-12 16:20:00,
2013-11-12 11:21:00,56.8,38.4,30.15,NNE,12,2.0,4.0,50,0.00,,---,0.00,VWS V14.01,2013-11-12 16:21:00,
2013-11-12 11:22:00,56.8,38.9,30.15,WNW,301,2.0,2.0,51,0.00,,---,0.00,VWS V14.01,2013-11-12 16:22:00,
2013-11-12 11:23:00,56.8,38.9,30.15,WNW,301,2.0,2.0,51,0.00,,---,0.00,VWS V14.01,2013-11-12 16:23:00,
2013-11-12 11:24:00,57.1,38.1,30.14,NNE,22,8.0,8.0,49,0.00,,---,0.00,VWS V14.01,2013-11-12 16:24:00,
2013-11-12 11:25:00,57.2,38.2,30.14,NNE,18,8.0,8.0,49,0.00,,---,0.00,VWS V14.01,2013-11-12 16:25:00,
2013-11-12 11:26:00,57.3,37.8,30.14,NE,43,5.0,8.0,48,0.00,,---,0.00,VWS V14.01,2013-11-12 16:26:00,
2013-11-12 11:27:00,57.4,37.9,30.14,NNE,20,4.0,5.0,48,0.00,,---,0.00,VWS V14.01,2013-11-12 16:27:00,
2013-11-12 11:28:00,57.4,37.9,30.14,NNE,20,4.0,5.0,48,0.00,,---,0.00,VWS V14.01,2013-11-12 16:28:00,
2013-11-12 11:29:00,57.5,38.0,30.14,NNE,33,6.0,6.0,48,0.00,,---,0.00,VWS V14.01,2013-11-12 16:29:00,
2013-11-12 11:30:00,57.6,38.1,30.14,NE,36,3.0,7.0,48,0.00,,---,0.00,VWS V14.01,2013-11-12 16:30:00,
2013-11-12 11:31:00,57.7,38.2,30.14,NNE,13,6.0,6.0,48,0.00,,---,0.00,VWS V14.01,2013-11-12 16:31:00,
2013-11-12 11:32:00,57.8,37.7,30.14,NNW,340,4.0,6.0,47,0.00,,---,0.00,VWS V14.01,2013-11-12 16:32:00,
2013-11-12 11:33:00,57.9,37.8,30.14,NE,42,5.0,5.0,47,0.00,,---,0.00,VWS V14.01,2013-11-12 16:33:00,
2013-11-12 11:34:00,58.1,38.0,30.14,NNE,30,4.0,5.0,47,0.00,,---,0.00,VWS V14.01,2013-11-12 16:34:00,
2013-11-12 11:35:00,58.2,38.1,30.14,NNE,16,4.0,4.0,47,0.00,,---,0.00,VWS V14.01,2013-11-12 16:35:00,
2013-11-12 11:36:00,58.3,37.6,30.14,ENE,58,8.0,8.0,46,0.00,,---,0.00,VWS V14.01,2013-11-12 16:36:00,
2013-11-12 11:37:00,58.3,37.6,30.14,NNE,27,5.0,10.0,46,0.00,,---,0.00,VWS V14.01,2013-11-12 16:37:00,
2013-11-12 11:38:00,58.3,37.6,30.14,NNE,32,6.0,6.0,46,0.00,,---,0.00,VWS V14.01,2013-11-12 16:38:00,
2013-11-12 11:39:00,58.4,37.7,30.14,NNE,19,5.0,6.0,46,0.00,,---,0.00,VWS V14.01,2013-11-12 16:39:00,
2013-11-12 11:40:00,58.4,37.7,30.14,NNE,22,6.0,6.0,46,0.00,,---,0.00,VWS V14.01,2013-11-12 16:40:00,
2013-11-12 11:41:00,58.4,37.7,30.14,NNE,30,5.0,9.0,46,0.00,,---,0.00,VWS V14.01,2013-11-12 16:41:00,
2013-11-12 11:42:00,58.5,37.8,30.14,NNE,28,7.0,7.0,46,0.00,,---,0.00,VWS V14.01,2013-11-12 16:42:00,
2013-11-12 11:43:00,58.5,37.8,30.14,NNE,27,9.0,9.0,46,0.00,,---,0.00,VWS V14.01,2013-11-12 16:43:00,
2013-11-12 11:44:00,58.5,37.8,30.14,NNW,338,7.0,12.0,46,0.00,,---,0.00,VWS V14.01,2013-11-12 16:44:00,
2013-11-12 11:45:00,58.4,37.7,30.14,NNE,12,8.0,10.0,46,0.00,,---,0.00,VWS V14.01,2013-11-12 16:45:00,
2013-11-12 11:46:00,58.4,37.2,30.14,NE,39,9.0,11.0,45,0.00,,---,0.00,VWS V14.01,2013-11-12 16:46:00,
2013-11-12 11:47:00,58.4,37.7,30.13,NNE,18,7.0,11.0,46,0.00,,---,0.00,VWS V14.01,2013-11-12 16:47:00,
2013-11-12 11:48:00,58.4,37.7,30.14,NNE,30,8.0,10.0,46,0.00,,---,0.00,VWS V14.01,2013-11-12 16:48:00,
2013-11-12 11:49:00,58.4,37.7,30.14,NNE,30,8.0,10.0,46,0.00,,---,0.00,VWS V14.01,2013-11-12 16:49:00,
2013-11-12 11:50:00,58.4,38.3,30.13,NNE,20,8.0,8.0,47,0.00,,---,0.00,VWS V14.01,2013-11-12 16:50:00,
2013-11-12 11:51:00,58.4,37.7,30.14,North,5,6.0,10.0,46,0.00,,---,0.00,VWS V14.01,2013-11-12 16:51:00,
2013-11-12 11:52:00,58.5,37.8,30.13,NNE,19,10.0,10.0,46,0.00,,---,0.00,VWS V14.01,2013-11-12 16:52:00,
2013-11-12 11:53:00,58.5,37.8,30.13,NNE,30,8.0,10.0,46,0.00,,---,0.00,VWS V14.01,2013-11-12 16:53:00,
2013-11-12 11:54:00,58.5,37.8,30.13,NE,34,6.0,11.0,46,0.00,,---,0.00,VWS V14.01,2013-11-12 16:54:00,
2013-11-12 11:55:00,58.6,37.9,30.13,NE,49,9.0,9.0,46,0.00,,---,0.00,VWS V14.01,2013-11-12 16:55:00,
2013-11-12 11:56:00,58.6,37.9,30.13,NE,44,6.0,9.0,46,0.00,,---,0.00,VWS V14.01,2013-11-12 16:56:00,
2013-11-12 11:57:00,58.6,37.9,30.13,NE,38,4.0,8.0,46,0.00,,---,0.00,VWS V14.01,2013-11-12 16:57:00,
2013-11-12 11:58:00,58.6,37.9,30.13,NNW,347,6.0,8.0,46,0.00,,---,0.00,VWS V14.01,2013-11-12 16:58:00,
2013-11-12 11:59:00,58.7,38.5,30.13,NNW,346,5.0,5.0,47,0.00,,---,0.00,VWS V14.01,2013-11-12 16:59:00,
2013-11-12 12:02:00,58.7,38.5,30.12,NNE,32,5.0,5.0,47,0.00,,---,0.00,VWS V14.01,2013-11-12 17:02:00,
2013-11-12 12:03:00,59.0,38.3,30.12,NNE,24,6.0,7.0,46,0.00,,---,0.00,VWS V14.01,2013-11-12 17:03:00,
2013-11-12 12:04:00,59.0,38.8,30.12,NNE,29,9.0,9.0,47,0.00,,---,0.00,VWS V14.01,2013-11-12 17:04:00,
2013-11-12 12:05:00,59.1,38.9,30.12,NNE,28,6.0,9.0,47,0.00,,---,0.00,VWS V14.01,2013-11-12 17:05:00,
2013-11-12 12:06:00,59.1,38.9,30.12,NNE,29,7.0,7.0,47,0.00,,---,0.00,VWS V14.01,2013-11-12 17:06:00,
2013-11-12 12:07:00,59.1,38.9,30.12,ENE,57,3.0,7.0,47,0.00,,---,0.00,VWS V14.01,2013-11-12 17:07:00,
2013-11-12 12:08:00,59.3,38.5,30.12,NNE,20,5.0,8.0,46,0.00,,---,0.00,VWS V14.01,2013-11-12 17:08:00,
2013-11-12 12:09:00,59.4,38.6,30.12,NNE,30,8.0,8.0,46,0.00,,---,0.00,VWS V14.01,2013-11-12 17:09:00,
2013-11-12 12:10:00,59.5,38.7,30.12,NE,38,8.0,8.0,46,0.00,,---,0.00,VWS V14.01,2013-11-12 17:10:00,
2013-11-12 12:11:00,59.5,38.7,30.12,NE,51,10.0,10.0,46,0.00,,---,0.00,VWS V14.01,2013-11-12 17:11:00,
2013-11-12 12:12:00,59.5,38.7,30.12,NNE,30,3.0,10.0,46,0.00,,---,0.00,VWS V14.01,2013-11-12 17:12:00,
2013-11-12 12:13:00,59.6,38.8,30.12,NNE,24,5.0,7.0,46,0.00,,---,0.00,VWS V14.01,2013-11-12 17:13:00,
2013-11-12 12:14:00,59.6,38.8,30.12,NNE,28,10.0,10.0,46,0.00,,---,0.00,VWS V14.01,2013-11-12 17:14:00,
2013-11-12 12:15:00,59.6,38.8,30.12,NNE,32,5.0,10.0,46,0.00,,---,0.00,VWS V14.01,2013-11-12 17:15:00,
2013-11-12 12:16:00,59.6,38.8,30.12,North,351,5.0,5.0,46,0.00,,---,0.00,VWS V14.01,2013-11-12 17:16:00,
2013-11-12 12:17:00,59.6,38.8,30.12,ENE,57,5.0,5.0,46,0.00,,---,0.00,VWS V14.01,2013-11-12 17:17:00,
2013-11-12 12:18:00,59.7,38.9,30.12,ENE,78,11.0,11.0,46,0.00,,---,0.00,VWS V14.01,2013-11-12 17:18:00,
2013-11-12 12:19:00,59.7,38.3,30.12,NNE,31,7.0,7.0,45,0.00,,---,0.00,VWS V14.01,2013-11-12 17:19:00,
2013-11-12 12:20:00,59.7,38.3,30.12,NNE,27,7.0,7.0,45,0.00,,---,0.00,VWS V14.01,2013-11-12 17:20:00,
2013-11-12 12:21:00,59.7,38.9,30.12,NNE,17,14.0,14.0,46,0.00,,---,0.00,VWS V14.01,2013-11-12 17:21:00,
2013-11-12 12:22:00,59.7,38.3,30.12,NNE,20,13.0,14.0,45,0.00,,---,0.00,VWS V14.01,2013-11-12 17:22:00,
2013-11-12 12:23:00,59.7,38.3,30.12,North,349,8.0,14.0,45,0.00,,---,0.00,VWS V14.01,2013-11-12 17:23:00,
2013-11-12 12:24:00,59.7,37.8,30.12,NE,36,8.0,11.0,44,0.00,,---,0.00,VWS V14.01,2013-11-12 17:24:00,
2013-11-12 12:25:00,59.7,37.8,30.12,North,11,7.0,11.0,44,0.00,,---,0.00,VWS V14.01,2013-11-12 17:25:00,
2013-11-12 12:26:00,59.8,38.4,30.12,ENE,57,13.0,13.0,45,0.00,,---,0.00,VWS V14.01,2013-11-12 17:26:00,
2013-11-12 12:27:00,59.8,37.9,30.12,NNW,344,6.0,13.0,44,0.00,,---,0.00,VWS V14.01,2013-11-12 17:27:00,
2013-11-12 12:28:00,59.9,38.0,30.12,NNE,29,8.0,12.0,44,0.00,,---,0.00,VWS V14.01,2013-11-12 17:28:00,
2013-11-12 12:29:00,60.0,37.5,30.12,NNE,32,12.0,12.0,43,0.00,,---,0.00,VWS V14.01,2013-11-12 17:29:00,
2013-11-12 12:30:00,60.0,37.5,30.12,NNE,27,8.0,12.0,43,0.00,,---,0.00,VWS V14.01,2013-11-12 17:30:00,
2013-11-12 12:31:00,60.1,37.5,30.12,NNW,342,8.0,8.0,43,0.00,,---,0.00,VWS V14.01,2013-11-12 17:31:00,
2013-11-12 12:32:00,60.1,37.5,30.12,NNE,23,7.0,11.0,43,0.00,,---,0.00,VWS V14.01,2013-11-12 17:32:00,
2013-11-12 12:33:00,60.2,37.6,30.12,NNE,32,7.0,10.0,43,0.00,,---,0.00,VWS V14.01,2013-11-12 17:33:00,
2013-11-12 12:34:00,60.3,37.7,30.12,NNW,346,10.0,10.0,43,0.00,,---,0.00,VWS V14.01,2013-11-12 17:34:00,
2013-11-12 12:35:00,60.3,37.7,30.12,NNE,22,10.0,10.0,43,0.00,,---,0.00,VWS V14.01,2013-11-12 17:35:00,
2013-11-12 12:36:00,60.3,37.7,30.12,NNE,18,6.0,10.0,43,0.00,,---,0.00,VWS V14.01,2013-11-12 17:36:00,
2013-11-12 12:37:00,60.4,37.8,30.12,NNE,32,6.0,9.0,43,0.00,,---,0.00,VWS V14.01,2013-11-12 17:37:00,
2013-11-12 12:38:00,60.4,37.8,30.12,NE,38,6.0,8.0,43,0.00,,---,0.00,VWS V14.01,2013-11-12 17:38:00,
2013-11-12 12:39:00,60.4,37.8,30.11,NE,42,6.0,6.0,43,0.00,,---,0.00,VWS V14.01,2013-11-12 17:39:00,
2013-11-12 12:40:00,60.5,37.9,30.11,NNE,19,11.0,11.0,43,0.00,,---,0.00,VWS V14.01,2013-11-12 17:40:00,
2013-11-12 12:41:00,60.5,37.3,30.12,NE,45,6.0,11.0,42,0.00,,---,0.00,VWS V14.01,2013-11-12 17:41:00,
2013-11-12 12:42:00,60.6,38.0,30.11,ENE,61,10.0,10.0,43,0.00,,---,0.00,VWS V14.01,2013-11-12 17:42:00,
2013-11-12 12:43:00,60.6,38.0,30.11,NE,49,10.0,10.0,43,0.00,,---,0.00,VWS V14.01,2013-11-12 17:43:00,
2013-11-12 12:44:00,60.6,37.4,30.11,NE,46,9.0,10.0,42,0.00,,---,0.00,VWS V14.01,2013-11-12 17:44:00,
2013-11-12 12:45:00,60.6,38.0,30.11,North,5,5.0,10.0,43,0.00,,---,0.00,VWS V14.01,2013-11-12 17:45:00,
2013-11-12 12:46:00,60.6,38.0,30.11,NNE,27,4.0,7.0,43,0.00,,---,0.00,VWS V14.01,2013-11-12 17:46:00,
2013-11-12 12:47:00,60.7,38.1,30.11,NE,50,9.0,11.0,43,0.00,,---,0.00,VWS V14.01,2013-11-12 17:47:00,
2013-11-12 12:48:00,60.7,38.1,30.11,NE,48,11.0,11.0,43,0.00,,---,0.00,VWS V14.01,2013-11-12 17:48:00,
2013-11-12 12:49:00,60.7,38.1,30.11,NNE,29,7.0,10.0,43,0.00,,---,0.00,VWS V14.01,2013-11-12 17:49:00,
2013-11-12 12:50:00,60.7,38.1,30.11,NNE,32,8.0,10.0,43,0.00,,---,0.00,VWS V14.01,2013-11-12 17:50:00,
2013-11-12 12:51:00,60.8,38.2,30.11,NE,47,4.0,8.0,43,0.00,,---,0.00,VWS V14.01,2013-11-12 17:51:00,
2013-11-12 12:52:00,60.8,38.8,30.11,North,5,8.0,10.0,44,0.00,,---,0.00,VWS V14.01,2013-11-12 17:52:00,
2013-11-12 12:53:00,60.9,38.3,30.11,NNE,28,11.0,11.0,43,0.00,,---,0.00,VWS V14.01,2013-11-12 17:53:00,
2013-11-12 12:54:00,60.8,38.2,30.11,NE,46,9.0,9.0,43,0.00,,---,0.00,VWS V14.01,2013-11-12 17:54:00,
2013-11-12 12:55:00,60.8,38.2,30.11,NNW,346,4.0,9.0,43,0.00,,---,0.00,VWS V14.01,2013-11-12 17:55:00,
2013-11-12 12:56:00,60.8,38.2,30.12,North,11,9.0,9.0,43,0.00,,---,0.00,VWS V14.01,2013-11-12 17:56:00,
2013-11-12 12:57:00,60.7,38.1,30.11,NNE,19,5.0,11.0,43,0.00,,---,0.00,VWS V14.01,2013-11-12 17:57:00,
2013-11-12 12:58:00,60.7,38.1,30.11,NE,43,7.0,9.0,43,0.00,,---,0.00,VWS V14.01,2013-11-12 17:58:00,
2013-11-12 12:59:00,60.7,38.1,30.11,NNE,18,8.0,8.0,43,0.00,,---,0.00,VWS V14.01,2013-11-12 17:59:00,
2013-11-12 13:00:00,60.7,38.1,30.11,NNE,31,8.0,9.0,43,0.00,,---,0.00,VWS V14.01,2013-11-12 18:00:00,
2013-11-12 13:01:00,60.7,38.1,30.11,North,360,8.0,10.0,43,0.00,,---,0.00,VWS V14.01,2013-11-12 18:01:00,
2013-11-12 13:02:00,60.7,38.1,30.11,NNW,346,5.0,8.0,43,0.00,,---,0.00,VWS V14.01,2013-11-12 18:02:00,
2013-11-12 13:03:00,60.7,38.1,30.11,NNE,23,5.0,6.0,43,0.00,,---,0.00,VWS V14.01,2013-11-12 18:03:00,
2013-11-12 13:04:00,60.7,37.5,30.11,North,360,7.0,10.0,42,0.00,,---,0.00,VWS V14.01,2013-11-12 18:04:00,
2013-11-12 13:06:00,60.6,38.0,30.12,NE,48,5.0,5.0,43,0.00,,---,0.00,VWS V14.01,2013-11-12 18:06:00,
2013-11-12 13:08:00,60.7,38.1,30.12,NNE,31,6.0,8.0,43,0.00,,---,0.00,VWS V14.01,2013-11-12 18:08:00,
2013-11-12 13:09:00,60.7,37.5,30.12,NNW,342,8.0,13.0,42,0.00,,---,0.00,VWS V14.01,2013-11-12 18:09:00,
2013-11-12 13:10:00,60.6,37.4,30.12,NE,48,14.0,14.0,42,0.00,,---,0.00,VWS V14.01,2013-11-12 18:10:00,
2013-11-12 13:11:00,60.5,37.3,30.12,NE,52,14.0,14.0,42,0.00,,---,0.00,VWS V14.01,2013-11-12 18:11:00,
2013-11-12 13:12:00,60.5,37.9,30.12,NE,34,4.0,14.0,43,0.00,,---,0.00,VWS V14.01,2013-11-12 18:12:00,
2013-11-12 13:13:00,60.5,37.9,30.12,NE,44,5.0,6.0,43,0.00,,---,0.00,VWS V14.01,2013-11-12 18:13:00,
2013-11-12 13:14:00,60.5,37.9,30.12,NNE,19,7.0,8.0,43,0.00,,---,0.00,VWS V14.01,2013-11-12 18:14:00,
2013-11-12 13:15:00,60.5,37.9,30.12,NNE,27,11.0,11.0,43,0.00,,---,0.00,VWS V14.01,2013-11-12 18:15:00,
2013-11-12 13:16:00,60.5,37.9,30.12,NNE,32,5.0,11.0,43,0.00,,---,0.00,VWS V14.01,2013-11-12 18:16:00,
2013-11-12 13:17:00,60.5,37.9,30.12,NNE,27,6.0,6.0,43,0.00,,---,0.00,VWS V14.01,2013-11-12 18:17:00,
2013-11-12 13:18:00,60.4,37.8,30.12,NE,39,6.0,13.0,43,0.00,,---,0.00,VWS V14.01,2013-11-12 18:18:00,
2013-11-12 13:19:00,60.4,37.8,30.12,NNE,23,9.0,9.0,43,0.00,,---,0.00,VWS V14.01,2013-11-12 18:19:00,
2013-11-12 13:22:00,60.1,37.5,30.13,NE,36,8.0,10.0,43,0.00,,---,0.00,VWS V14.01,2013-11-12 18:22:00,
2013-11-12 13:23:00,60.0,37.5,30.13,NNE,32,8.0,11.0,43,0.00,,---,0.00,VWS V14.01,2013-11-12 18:23:00,
2013-11-12 13:24:00,59.9,37.4,30.13,ENE,57,8.0,11.0,43,0.00,,---,0.00,VWS V14.01,2013-11-12 18:24:00,
2013-11-12 13:25:00,59.9,37.4,30.13,NNE,12,5.0,11.0,43,0.00,,---,0.00,VWS V14.01,2013-11-12 18:25:00,
2013-11-12 13:26:00,59.8,37.9,30.13,NE,46,9.0,11.0,44,0.00,,---,0.00,VWS V14.01,2013-11-12 18:26:00,
2013-11-12 13:27:00,59.8,37.3,30.13,NNE,31,7.0,10.0,43,0.00,,---,0.00,VWS V14.01,2013-11-12 18:27:00,
2013-11-12 13:28:00,59.7,37.8,30.13,NNE,24,6.0,11.0,44,0.00,,---,0.00,VWS V14.01,2013-11-12 18:28:00,
2013-11-12 13:29:00,59.7,37.8,30.13,North,349,6.0,7.0,44,0.00,,---,0.00,VWS V14.01,2013-11-12 18:29:00,
2013-11-12 13:31:00,59.7,37.8,30.13,NNE,23,10.0,10.0,44,0.00,,---,0.00,VWS V14.01,2013-11-12 18:31:00,
2013-11-12 13:32:00,59.7,37.8,30.13,NNE,24,6.0,10.0,44,0.00,,---,0.00,VWS V14.01,2013-11-12 18:32:00,
2013-11-12 13:33:00,59.7,37.8,30.13,NNE,32,8.0,12.0,44,0.00,,---,0.00,VWS V14.01,2013-11-12 18:33:00,
2013-11-12 13:34:00,59.7,37.2,30.13,NNE,23,11.0,11.0,43,0.00,,---,0.00,VWS V14.01,2013-11-12 18:34:00,
2013-11-12 13:35:00,59.7,37.2,30.13,North,351,6.0,11.0,43,0.00,,---,0.00,VWS V14.01,2013-11-12 18:35:00,
2013-11-12 13:36:00,59.6,37.1,30.13,ENE,57,12.0,13.0,43,0.00,,---,0.00,VWS V14.01,2013-11-12 18:36:00,
2013-11-12 13:37:00,59.5,37.0,30.14,NE,36,10.0,14.0,43,0.00,,---,0.00,VWS V14.01,2013-11-12 18:37:00,
2013-11-12 13:38:00,59.3,36.8,30.14,NE,38,13.0,13.0,43,0.00,,---,0.00,VWS V14.01,2013-11-12 18:38:00,
2013-11-12 13:39:00,59.2,36.7,30.14,NNE,12,13.0,13.0,43,0.00,,---,0.00,VWS V14.01,2013-11-12 18:39:00,
2013-11-12 13:40:00,59.1,36.7,30.14,NE,39,9.0,13.0,43,0.00,,---,0.00,VWS V14.01,2013-11-12 18:40:00,
2013-11-12 13:41:00,59.1,36.7,30.14,NNE,32,9.0,10.0,43,0.00,,---,0.00,VWS V14.01,2013-11-12 18:41:00,
2013-11-12 13:42:00,59.0,36.6,30.14,NE,54,5.0,11.0,43,0.00,,---,0.00,VWS V14.01,2013-11-12 18:42:00,
2013-11-12 13:43:00,59.0,37.1,30.14,NNE,29,8.0,8.0,44,0.00,,---,0.00,VWS V14.01,2013-11-12 18:43:00,
2013-11-12 13:44:00,58.9,36.5,30.14,NE,34,7.0,11.0,43,0.00,,---,0.00,VWS V14.01,2013-11-12 18:44:00,
2013-11-12 13:45:00,58.9,36.5,30.14,NNE,32,7.0,11.0,43,0.00,,---,0.00,VWS V14.01,2013-11-12 18:45:00,
2013-11-12 13:46:00,58.8,36.4,30.14,NNE,26,8.0,8.0,43,0.00,,---,0.00,VWS V14.01,2013-11-12 18:46:00,
2013-11-12 13:47:00,58.8,37.0,30.14,North,351,4.0,9.0,44,0.00,,---,0.00,VWS V14.01,2013-11-12 18:47:00,
2013-11-12 13:48:00,58.8,37.0,30.14,NNW,348,7.0,9.0,44,0.00,,---,0.00,VWS V14.01,2013-11-12 18:48:00,
2013-11-12 13:49:00,58.8,36.4,30.14,NE,46,8.0,12.0,43,0.00,,---,0.00,VWS V14.01,2013-11-12 18:49:00,
2013-11-12 13:50:00,58.8,36.4,30.14,NNE,27,6.0,12.0,43,0.00,,---,0.00,VWS V14.01,2013-11-12 18:50:00,
2013-11-12 13:51:00,58.7,36.3,30.14,NNE,23,5.0,11.0,43,0.00,,---,0.00,VWS V14.01,2013-11-12 18:51:00,
2013-11-12 13:52:00,58.7,36.3,30.14,NE,44,13.0,14.0,43,0.00,,---,0.00,VWS V14.01,2013-11-12 18:52:00,
2013-11-12 13:53:00,58.6,36.8,30.14,NNE,17,6.0,14.0,44,0.00,,---,0.00,VWS V14.01,2013-11-12 18:53:00,
2013-11-12 13:54:00,58.5,36.7,30.14,NE,47,10.0,12.0,44,0.00,,---,0.00,VWS V14.01,2013-11-12 18:54:00,
2013-11-12 13:55:00,58.5,36.7,30.14,NNE,20,6.0,12.0,44,0.00,,---,0.00,VWS V14.01,2013-11-12 18:55:00,
2013-11-12 13:56:00,58.4,36.6,30.14,NNE,22,8.0,10.0,44,0.00,,---,0.00,VWS V14.01,2013-11-12 18:56:00,
2013-11-12 13:57:00,58.3,36.5,30.14,NE,46,8.0,10.0,44,0.00,,---,0.00,VWS V14.01,2013-11-12 18:57:00,
2013-11-12 13:58:00,58.2,36.4,30.15,NE,34,10.0,11.0,44,0.00,,---,0.00,VWS V14.01,2013-11-12 18:58:00,
2013-11-12 13:59:00,58.2,36.4,30.14,NNE,27,8.0,10.0,44,0.00,,---,0.00,VWS V14.01,2013-11-12 18:59:00,
2013-11-12 14:00:00,58.1,36.3,30.14,NNE,32,7.0,10.0,44,0.00,,---,0.00,VWS V14.01,2013-11-12 19:00:00,
2013-11-12 14:01:00,58.0,36.2,30.14,NNE,33,10.0,10.0,44,0.00,,---,0.00,VWS V14.01,2013-11-12 19:01:00,
2013-11-12 14:02:00,58.0,36.2,30.14,NNE,30,6.0,12.0,44,0.00,,---,0.00,VWS V14.01,2013-11-12 19:02:00,
2013-11-12 14:03:00,57.9,36.1,30.14,NE,47,9.0,10.0,44,0.00,,---,0.00,VWS V14.01,2013-11-12 19:03:00,
2013-11-12 14:04:00,57.8,36.0,30.15,NE,54,7.0,12.0,44,0.00,,---,0.00,VWS V14.01,2013-11-12 19:04:00,
2013-11-12 14:05:00,57.8,36.0,30.15,NE,35,8.0,12.0,44,0.00,,---,0.00,VWS V14.01,2013-11-12 19:05:00,
2013-11-12 14:06:00,57.7,36.0,30.15,NE,35,6.0,11.0,44,0.00,,---,0.00,VWS V14.01,2013-11-12 19:06:00,
2013-11-12 14:07:00,57.6,35.9,30.14,NE,44,7.0,10.0,44,0.00,,---,0.00,VWS V14.01,2013-11-12 19:07:00,
2013-11-12 14:08:00,57.5,35.8,30.15,NNE,20,9.0,11.0,44,0.00,,---,0.00,VWS V14.01,2013-11-12 19:08:00,
2013-11-12 14:09:00,57.4,36.2,30.15,NE,44,7.0,10.0,45,0.00,,---,0.00,VWS V14.01,2013-11-12 19:09:00,
2013-11-12 14:10:00,57.4,36.2,30.15,ENE,57,10.0,10.0,45,0.00,,---,0.00,VWS V14.01,2013-11-12 19:10:00,
2013-11-12 14:11:00,57.3,36.2,30.15,NE,42,5.0,10.0,45,0.00,,---,0.00,VWS V14.01,2013-11-12 19:11:00,
2013-11-12 14:12:00,57.3,36.2,30.15,NE,51,7.0,7.0,45,0.00,,---,0.00,VWS V14.01,2013-11-12 19:12:00,
2013-11-12 14:13:00,57.2,36.6,30.15,NE,46,9.0,12.0,46,0.00,,---,0.00,VWS V14.01,2013-11-12 19:13:00,
2013-11-12 14:14:00,57.2,36.6,30.15,NNE,20,10.0,13.0,46,0.00,,---,0.00,VWS V14.01,2013-11-12 19:14:00,
2013-11-12 14:15:00,57.1,36.5,30.15,NE,34,10.0,13.0,46,0.00,,---,0.00,VWS V14.01,2013-11-12 19:15:00,
2013-11-12 14:16:00,57.0,36.4,30.15,NE,47,14.0,18.0,46,0.00,,---,0.00,VWS V14.01,2013-11-12 19:16:00,
2013-11-12 14:17:00,56.8,36.8,30.15,NE,46,9.0,16.0,47,0.00,,---,0.00,VWS V14.01,2013-11-12 19:17:00,
2013-11-12 14:18:00,56.7,36.7,30.15,NE,52,8.0,10.0,47,0.00,,---,0.00,VWS V14.01,2013-11-12 19:18:00,
2013-11-12 14:19:00,56.5,36.5,30.15,NNE,24,11.0,13.0,47,0.00,,---,0.00,VWS V14.01,2013-11-12 19:19:00,
2013-11-12 14:20:00,56.5,36.5,30.15,NNE,30,7.0,13.0,47,0.00,,---,0.00,VWS V14.01,2013-11-12 19:20:00,
2013-11-12 14:21:00,56.4,37.0,30.15,NNE,33,9.0,9.0,48,0.00,,---,0.00,VWS V14.01,2013-11-12 19:21:00,
2013-11-12 14:22:00,56.3,36.9,30.16,NE,38,6.0,10.0,48,0.00,,---,0.00,VWS V14.01,2013-11-12 19:22:00,
2013-11-12 14:23:00,56.2,37.3,30.15,NNE,26,6.0,6.0,49,0.00,,---,0.00,VWS V14.01,2013-11-12 19:23:00,
2013-11-12 14:24:00,56.2,37.3,30.15,ENE,65,9.0,11.0,49,0.00,,---,0.00,VWS V14.01,2013-11-12 19:24:00,
2013-11-12 14:25:00,56.1,37.2,30.15,ENE,57,4.0,11.0,49,0.00,,---,0.00,VWS V14.01,2013-11-12 19:25:00,
2013-11-12 14:26:00,56.1,37.2,30.15,NE,46,8.0,8.0,49,0.00,,---,0.00,VWS V14.01,2013-11-12 19:26:00,
2013-11-12 14:27:00,56.0,37.1,30.16,NNE,23,11.0,11.0,49,0.00,,---,0.00,VWS V14.01,2013-11-12 19:27:00,
2013-11-12 14:28:00,55.9,37.0,30.16,NE,35,11.0,11.0,49,0.00,,---,0.00,VWS V14.01,2013-11-12 19:28:00,
2013-11-12 14:29:00,55.8,36.9,30.16,ENE,57,9.0,10.0,49,0.00,,---,0.00,VWS V14.01,2013-11-12 19:29:00,
2013-11-12 14:30:00,55.7,36.8,30.16,NNE,30,12.0,12.0,49,0.00,,---,0.00,VWS V14.01,2013-11-12 19:30:00,
2013-11-12 14:31:00,55.6,36.8,30.16,NNE,31,10.0,12.0,49,0.00,,---,0.00,VWS V14.01,2013-11-12 19:31:00,
2013-11-12 14:32:00,55.5,36.7,30.16,NE,47,10.0,15.0,49,0.00,,---,0.00,VWS V14.01,2013-11-12 19:32:00,
2013-11-12 14:33:00,55.5,37.2,30.16,NNE,30,11.0,11.0,50,0.00,,---,0.00,VWS V14.01,2013-11-12 19:33:00,
2013-11-12 14:34:00,55.4,37.1,30.16,NNE,32,7.0,9.0,50,0.00,,---,0.00,VWS V14.01,2013-11-12 19:34:00,
2013-11-12 14:35:00,55.3,37.0,30.16,NNE,16,10.0,10.0,50,0.00,,---,0.00,VWS V14.01,2013-11-12 19:35:00,
2013-11-12 14:36:00,55.3,37.0,30.16,NNE,33,12.0,16.0,50,0.00,,---,0.00,VWS V14.01,2013-11-12 19:36:00,
2013-11-12 14:37:00,55.2,36.9,30.16,NE,39,10.0,13.0,50,0.00,,---,0.00,VWS V14.01,2013-11-12 19:37:00,
2013-11-12 14:38:00,55.1,36.8,30.16,NE,36,10.0,12.0,50,0.00,,---,0.00,VWS V14.01,2013-11-12 19:38:00,
2013-11-12 14:39:00,55.0,37.2,30.16,NNE,12,8.0,9.0,51,0.00,,---,0.00,VWS V14.01,2013-11-12 19:39:00,
2013-11-12 14:40:00,55.0,37.2,30.16,NE,55,11.0,14.0,51,0.00,,---,0.00,VWS V14.01,2013-11-12 19:40:00,
2013-11-12 14:41:00,54.9,37.1,30.16,NNE,28,12.0,18.0,51,0.00,,---,0.00,VWS V14.01,2013-11-12 19:41:00,
2013-11-12 14:42:00,54.8,37.0,30.16,NNE,22,13.0,14.0,51,0.00,,---,0.00,VWS V14.01,2013-11-12 19:42:00,
2013-11-12 14:43:00,54.7,36.9,30.16,NE,49,12.0,15.0,51,0.00,,---,0.00,VWS V14.01,2013-11-12 19:43:00,
2013-11-12 14:44:00,54.6,37.3,30.16,NE,38,8.0,8.0,52,0.00,,---,0.00,VWS V14.01,2013-11-12 19:44:00,
2013-11-12 14:45:00,54.6,37.3,30.16,NE,47,7.0,8.0,52,0.00,,---,0.00,VWS V14.01,2013-11-12 19:45:00,
2013-11-12 14:46:00,54.6,37.3,30.16,NE,43,13.0,13.0,52,0.00,,---,0.00,VWS V14.01,2013-11-12 19:46:00,
2013-11-12 14:47:00,54.5,37.7,30.16,NE,38,11.0,14.0,53,0.00,,---,0.00,VWS V14.01,2013-11-12 19:47:00,
2013-11-12 14:48:00,54.5,37.7,30.17,NE,47,17.0,17.0,53,0.00,,---,0.00,VWS V14.01,2013-11-12 19:48:00,
2013-11-12 14:49:00,54.3,37.5,30.16,NE,46,16.0,16.0,53,0.00,,---,0.00,VWS V14.01,2013-11-12 19:49:00,
2013-11-12 14:50:00,54.2,37.5,30.16,NE,47,10.0,16.0,53,0.00,,---,0.00,VWS V14.01,2013-11-12 19:50:00,
2013-11-12 14:51:00,54.2,37.5,30.16,ENE,60,8.0,13.0,53,0.00,,---,0.00,VWS V14.01,2013-11-12 19:51:00,
2013-11-12 14:52:00,54.1,37.8,30.17,ENE,62,15.0,15.0,54,0.00,,---,0.00,VWS V14.01,2013-11-12 19:52:00,
2013-11-12 14:53:00,54.0,37.8,30.17,NE,48,6.0,15.0,54,0.00,,---,0.00,VWS V14.01,2013-11-12 19:53:00,
2013-11-12 14:54:00,54.0,38.2,30.17,NE,54,5.0,5.0,55,0.00,,---,0.00,VWS V14.01,2013-11-12 19:54:00,
2013-11-12 14:55:00,54.0,38.2,30.17,ENE,72,8.0,8.0,55,0.00,,---,0.00,VWS V14.01,2013-11-12 19:55:00,
2013-11-12 14:56:00,54.0,38.2,30.17,ENE,57,7.0,8.0,55,0.00,,---,0.00,VWS V14.01,2013-11-12 19:56:00,
2013-11-12 14:57:00,53.9,38.1,30.17,NNE,27,8.0,16.0,55,0.00,,---,0.00,VWS V14.01,2013-11-12 19:57:00,
2013-11-12 14:58:00,53.9,38.6,30.17,NE,44,12.0,12.0,56,0.00,,---,0.00,VWS V14.01,2013-11-12 19:58:00,
2013-11-12 14:59:00,53.8,38.5,30.17,ENE,73,12.0,12.0,56,0.00,,---,0.00,VWS V14.01,2013-11-12 19:59:00,
2013-11-12 15:00:00,53.7,38.4,30.17,NNE,30,7.0,13.0,56,0.00,,---,0.00,VWS V14.01,2013-11-12 20:00:00,
2013-11-12 15:01:00,53.7,38.4,30.17,ENE,59,11.0,12.0,56,0.00,,---,0.00,VWS V14.01,2013-11-12 20:01:00,
2013-11-12 15:02:00,53.7,38.4,30.17,NNE,17,10.0,15.0,56,0.00,,---,0.00,VWS V14.01,2013-11-12 20:02:00,
2013-11-12 15:03:00,53.6,38.3,30.17,NE,53,8.0,13.0,56,0.00,,---,0.00,VWS V14.01,2013-11-12 20:03:00,
2013-11-12 15:04:00,53.6,38.8,30.17,ENE,67,12.0,12.0,57,0.00,,---,0.00,VWS V14.01,2013-11-12 20:04:00,
2013-11-12 15:05:00,53.5,38.7,30.17,NNE,28,9.0,12.0,57,0.00,,---,0.00,VWS V14.01,2013-11-12 20:05:00,
2013-11-12 15:06:00,53.4,38.6,30.17,NE,47,8.0,10.0,57,0.00,,---,0.00,VWS V14.01,2013-11-12 20:06:00,
2013-11-12 15:07:00,53.4,38.6,30.17,East,79,7.0,14.0,57,0.00,,---,0.00,VWS V14.01,2013-11-12 20:07:00,
2013-11-12 15:08:00,53.4,38.6,30.17,NNE,27,9.0,9.0,57,0.00,,---,0.00,VWS V14.01,2013-11-12 20:08:00,
2013-11-12 15:09:00,53.3,38.9,30.18,NE,44,4.0,5.0,58,0.00,,---,0.00,VWS V14.01,2013-11-12 20:09:00,
2013-11-12 15:10:00,53.3,38.9,30.18,NNE,30,10.0,10.0,58,0.00,,---,0.00,VWS V14.01,2013-11-12 20:10:00,
2013-11-12 15:11:00,53.3,38.9,30.18,ENE,76,10.0,13.0,58,0.00,,---,0.00,VWS V14.01,2013-11-12 20:11:00,
2013-11-12 15:12:00,53.2,38.8,30.18,NE,35,8.0,10.0,58,0.00,,---,0.00,VWS V14.01,2013-11-12 20:12:00,
2013-11-12 15:13:00,53.2,38.8,30.18,NE,38,8.0,14.0,58,0.00,,---,0.00,VWS V14.01,2013-11-12 20:13:00,
2013-11-12 15:14:00,53.1,38.7,30.18,ENE,74,9.0,13.0,58,0.00,,---,0.00,VWS V14.01,2013-11-12 20:14:00,
2013-11-12 15:15:00,53.0,39.1,30.18,NNE,30,8.0,13.0,59,0.00,,---,0.00,VWS V14.01,2013-11-12 20:15:00,
2013-11-12 15:16:00,53.0,39.1,30.18,NNE,32,8.0,10.0,59,0.00,,---,0.00,VWS V14.01,2013-11-12 20:16:00,
2013-11-12 15:17:00,52.9,39.0,30.18,NE,51,12.0,16.0,59,0.00,,---,0.00,VWS V14.01,2013-11-12 20:17:00,
2013-11-12 15:18:00,52.9,39.0,30.18,NE,42,10.0,15.0,59,0.00,,---,0.00,VWS V14.01,2013-11-12 20:18:00,
2013-11-12 15:19:00,52.8,38.9,30.19,NNE,29,12.0,12.0,59,0.00,,---,0.00,VWS V14.01,2013-11-12 20:19:00,
2013-11-12 15:20:00,52.7,38.8,30.19,NNE,27,9.0,12.0,59,0.00,,---,0.00,VWS V14.01,2013-11-12 20:20:00,
2013-11-12 15:21:00,52.7,38.8,30.18,NE,36,12.0,12.0,59,0.00,,---,0.00,VWS V14.01,2013-11-12 20:21:00,
2013-11-12 15:22:00,52.6,38.7,30.19,NE,53,10.0,14.0,59,0.00,,---,0.00,VWS V14.01,2013-11-12 20:22:00,
2013-11-12 15:23:00,52.6,38.7,30.19,ENE,57,12.0,13.0,59,0.00,,---,0.00,VWS V14.01,2013-11-12 20:23:00,
2013-11-12 15:24:00,52.4,38.5,30.19,NE,50,12.0,12.0,59,0.00,,---,0.00,VWS V14.01,2013-11-12 20:24:00,
2013-11-12 15:25:00,52.4,38.5,30.19,NE,53,9.0,12.0,59,0.00,,---,0.00,VWS V14.01,2013-11-12 20:25:00,
2013-11-12 15:26:00,52.4,38.5,30.19,NE,43,7.0,10.0,59,0.00,,---,0.00,VWS V14.01,2013-11-12 20:26:00,
2013-11-12 15:27:00,52.3,38.4,30.19,NE,36,9.0,9.0,59,0.00,,---,0.00,VWS V14.01,2013-11-12 20:27:00,
2013-11-12 15:28:00,52.3,38.4,30.19,ENE,66,7.0,11.0,59,0.00,,---,0.00,VWS V14.01,2013-11-12 20:28:00,
2013-11-12 15:29:00,52.2,38.3,30.19,NE,34,6.0,9.0,59,0.00,,---,0.00,VWS V14.01,2013-11-12 20:29:00,
2013-11-12 15:30:00,52.2,38.8,30.19,ENE,67,10.0,11.0,60,0.00,,---,0.00,VWS V14.01,2013-11-12 20:30:00,
2013-11-12 15:31:00,52.1,38.2,30.19,NE,46,16.0,16.0,59,0.00,,---,0.00,VWS V14.01,2013-11-12 20:31:00,
2013-11-12 15:32:00,52.0,37.7,30.20,NE,35,13.0,19.0,58,0.00,,---,0.00,VWS V14.01,2013-11-12 20:32:00,
2013-11-12 15:33:00,51.9,37.2,30.20,NE,51,15.0,17.0,57,0.00,,---,0.00,VWS V14.01,2013-11-12 20:33:00,
2013-11-12 15:34:00,51.7,37.0,30.20,NE,51,8.0,13.0,57,0.00,,---,0.00,VWS V14.01,2013-11-12 20:34:00,
2013-11-12 15:35:00,51.6,36.9,30.20,NE,35,5.0,13.0,57,0.00,,---,0.00,VWS V14.01,2013-11-12 20:35:00,
2013-11-12 15:36:00,51.5,36.8,30.20,NE,48,9.0,11.0,57,0.00,,---,0.00,VWS V14.01,2013-11-12 20:36:00,
2013-11-12 15:37:00,51.4,36.2,30.21,NNE,26,8.0,14.0,56,0.00,,---,0.00,VWS V14.01,2013-11-12 20:37:00,
2013-11-12 15:38:00,51.1,35.0,30.21,NNE,33,11.0,13.0,54,0.00,,---,0.00,VWS V14.01,2013-11-12 20:38:00,
2013-11-12 15:39:00,50.8,34.8,30.21,NE,47,6.0,8.0,54,0.00,,---,0.00,VWS V14.01,2013-11-12 20:39:00,
2013-11-12 15:40:00,50.6,34.6,30.21,North,5,6.0,8.0,54,0.00,,---,0.00,VWS V14.01,2013-11-12 20:40:00,
2013-11-12 15:41:00,50.4,34.4,30.21,NE,40,5.0,8.0,54,0.00,,---,0.00,VWS V14.01,2013-11-12 20:41:00,
2013-11-12 15:42:00,50.3,34.3,30.21,NNE,27,10.0,10.0,54,0.00,,---,0.00,VWS V14.01,2013-11-12 20:42:00,
2013-11-12 15:43:00,50.1,33.7,30.21,NNE,25,12.0,12.0,53,0.00,,---,0.00,VWS V14.01,2013-11-12 20:43:00,
2013-11-12 15:44:00,49.8,32.4,30.22,NNE,16,10.0,11.0,51,0.00,,---,0.00,VWS V14.01,2013-11-12 20:44:00,
2013-11-12 15:45:00,49.6,32.7,30.22,NNE,26,8.0,11.0,52,0.00,,---,0.00,VWS V14.01,2013-11-12 20:45:00,
2013-11-12 15:46:00,49.4,32.5,30.22,NE,38,8.0,11.0,52,0.00,,---,0.00,VWS V14.01,2013-11-12 20:46:00,
2013-11-12 15:47:00,49.2,32.3,30.22,NNE,32,7.0,8.0,52,0.00,,---,0.00,VWS V14.01,2013-11-12 20:47:00,
2013-11-12 15:48:00,49.1,32.2,30.22,NE,55,8.0,14.0,52,0.00,,---,0.00,VWS V14.01,2013-11-12 20:48:00,
2013-11-12 15:49:00,48.9,32.5,30.22,NE,47,7.0,8.0,53,0.00,,---,0.00,VWS V14.01,2013-11-12 20:49:00,
2013-11-12 15:50:00,48.8,32.4,30.22,NE,36,12.0,15.0,53,0.00,,---,0.00,VWS V14.01,2013-11-12 20:50:00,
2013-11-12 15:51:00,48.7,31.9,30.22,NNE,30,7.0,13.0,52,0.00,,---,0.00,VWS V14.01,2013-11-12 20:51:00,
2013-11-12 15:52:00,48.6,31.8,30.22,NNE,22,13.0,13.0,52,0.00,,---,0.00,VWS V14.01,2013-11-12 20:52:00,
2013-11-12 15:53:00,48.5,31.7,30.23,NE,39,10.0,13.0,52,0.00,,---,0.00,VWS V14.01,2013-11-12 20:53:00,
2013-11-12 15:54:00,48.3,31.5,30.23,NE,49,12.0,14.0,52,0.00,,---,0.00,VWS V14.01,2013-11-12 20:54:00,
2013-11-12 15:55:00,48.1,31.3,30.23,NE,40,10.0,19.0,52,0.00,,---,0.00,VWS V14.01,2013-11-12 20:55:00,
2013-11-12 15:56:00,48.0,31.2,30.23,NNE,30,11.0,18.0,52,0.00,,---,0.00,VWS V14.01,2013-11-12 20:56:00,
2013-11-12 15:57:00,47.9,31.1,30.23,NNE,27,14.0,14.0,52,0.00,,---,0.00,VWS V14.01,2013-11-12 20:57:00,
2013-11-12 15:58:00,47.7,31.0,30.23,NNE,23,13.0,17.0,52,0.00,,---,0.00,VWS V14.01,2013-11-12 20:58:00,
2013-11-12 15:59:00,47.5,30.8,30.24,North,5,11.0,11.0,52,0.00,,---,0.00,VWS V14.01,2013-11-12 20:59:00,
2013-11-12 16:00:00,47.3,30.6,30.24,NNE,24,14.0,14.0,52,0.00,,---,0.00,VWS V14.01,2013-11-12 21:00:00,
2013-11-12 16:01:00,47.2,30.5,30.24,NE,39,11.0,14.0,52,0.00,,---,0.00,VWS V14.01,2013-11-12 21:01:00,
2013-11-12 16:02:00,47.0,30.3,30.23,NE,39,12.0,15.0,52,0.00,,---,0.00,VWS V14.01,2013-11-12 21:02:00,
2013-11-12 16:03:00,46.9,30.2,30.24,ENE,61,16.0,22.0,52,0.00,,---,0.00,VWS V14.01,2013-11-12 21:03:00,
2013-11-12 16:04:00,46.6,29.9,30.24,NE,47,17.0,17.0,52,0.00,,---,0.00,VWS V14.01,2013-11-12 21:04:00,
2013-11-12 16:05:00,46.5,29.8,30.24,NNE,29,13.0,18.0,52,0.00,,---,0.00,VWS V14.01,2013-11-12 21:05:00,
2013-11-12 16:06:00,46.3,30.1,30.24,NNE,32,11.0,13.0,53,0.00,,---,0.00,VWS V14.01,2013-11-12 21:06:00,
2013-11-12 16:07:00,46.2,30.0,30.24,NNE,23,9.0,11.0,53,0.00,,---,0.00,VWS V14.01,2013-11-12 21:07:00,
2013-11-12 16:08:00,46.1,29.9,30.24,NE,34,12.0,13.0,53,0.00,,---,0.00,VWS V14.01,2013-11-12 21:08:00,
2013-11-12 16:09:00,46.0,29.8,30.25,ENE,63,14.0,15.0,53,0.00,,---,0.00,VWS V14.01,2013-11-12 21:09:00,
2013-11-12 16:10:00,45.9,30.2,30.25,NE,34,11.0,15.0,54,0.00,,---,0.00,VWS V14.01,2013-11-12 21:10:00,
2013-11-12 16:11:00,45.7,30.0,30.25,NNE,19,16.0,17.0,54,0.00,,---,0.00,VWS V14.01,2013-11-12 21:11:00,
2013-11-12 16:12:00,45.6,29.9,30.25,NNE,28,10.0,20.0,54,0.00,,---,0.00,VWS V14.01,2013-11-12 21:12:00,
2013-11-12 16:13:00,45.6,29.9,30.25,NNE,33,7.0,17.0,54,0.00,,---,0.00,VWS V14.01,2013-11-12 21:13:00,
2013-11-12 16:14:00,45.4,30.2,30.25,ENE,65,13.0,13.0,55,0.00,,---,0.00,VWS V14.01,2013-11-12 21:14:00,
2013-11-12 16:15:00,45.3,30.1,30.25,East,90,8.0,15.0,55,0.00,,---,0.00,VWS V14.01,2013-11-12 21:15:00,
2013-11-12 16:16:00,45.2,30.0,30.25,NNE,22,14.0,17.0,55,0.00,,---,0.00,VWS V14.01,2013-11-12 21:16:00,
2013-11-12 16:17:00,45.1,30.4,30.25,NE,34,9.0,14.0,56,0.00,,---,0.00,VWS V14.01,2013-11-12 21:17:00,
2013-11-12 16:18:00,45.1,30.4,30.26,NE,50,10.0,17.0,56,0.00,,---,0.00,VWS V14.01,2013-11-12 21:18:00,
2013-11-12 16:19:00,44.9,30.2,30.25,ENE,59,12.0,12.0,56,0.00,,---,0.00,VWS V14.01,2013-11-12 21:19:00,
2013-11-12 16:20:00,44.9,30.6,30.25,ENE,66,9.0,12.0,57,0.00,,---,0.00,VWS V14.01,2013-11-12 21:20:00,
2013-11-12 16:21:00,44.8,30.5,30.25,NE,34,7.0,11.0,57,0.00,,---,0.00,VWS V14.01,2013-11-12 21:21:00,
2013-11-12 16:22:00,44.7,30.4,30.25,NNE,28,8.0,14.0,57,0.00,,---,0.00,VWS V14.01,2013-11-12 21:22:00,
2013-11-12 16:23:00,44.6,30.8,30.26,ENE,57,8.0,8.0,58,0.00,,---,0.00,VWS V14.01,2013-11-12 21:23:00,
2013-11-12 16:24:00,44.5,30.7,30.26,NE,39,7.0,10.0,58,0.00,,---,0.00,VWS V14.01,2013-11-12 21:24:00,
2013-11-12 16:25:00,44.5,30.7,30.26,NNE,16,8.0,10.0,58,0.00,,---,0.00,VWS V14.01,2013-11-12 21:25:00,
2013-11-12 16:26:00,44.4,31.0,30.26,NE,35,12.0,14.0,59,0.00,,---,0.00,VWS V14.01,2013-11-12 21:26:00,
2013-11-12 16:27:00,44.3,30.9,30.26,NNE,27,10.0,13.0,59,0.00,,---,0.00,VWS V14.01,2013-11-12 21:27:00,
2013-11-12 16:28:00,44.2,30.8,30.26,NE,49,10.0,13.0,59,0.00,,---,0.00,VWS V14.01,2013-11-12 21:28:00,
2013-11-12 16:29:00,44.1,31.1,30.27,NNE,31,7.0,14.0,60,0.00,,---,0.00,VWS V14.01,2013-11-12 21:29:00,
2013-11-12 16:30:00,44.1,31.1,30.27,NE,39,8.0,16.0,60,0.00,,---,0.00,VWS V14.01,2013-11-12 21:30:00,
2013-11-12 16:31:00,44.0,31.0,30.27,NNE,27,12.0,12.0,60,0.00,,---,0.00,VWS V14.01,2013-11-12 21:31:00,
2013-11-12 16:32:00,43.9,30.9,30.27,NE,39,7.0,12.0,60,0.00,,---,0.00,VWS V14.01,2013-11-12 21:32:00,
2013-11-12 16:33:00,43.8,31.2,30.27,NE,47,11.0,12.0,61,0.00,,---,0.00,VWS V14.01,2013-11-12 21:33:00,
2013-11-12 16:34:00,43.8,31.2,30.27,ENE,58,12.0,13.0,61,0.00,,---,0.00,VWS V14.01,2013-11-12 21:34:00,
2013-11-12 16:35:00,43.7,31.1,30.27,NE,47,11.0,15.0,61,0.00,,---,0.00,VWS V14.01,2013-11-12 21:35:00,
2013-11-12 16:36:00,43.7,31.1,30.27,NE,42,7.0,11.0,61,0.00,,---,0.00,VWS V14.01,2013-11-12 21:36:00,
2013-11-12 16:37:00,43.6,31.0,30.27,NNE,23,9.0,14.0,61,0.00,,---,0.00,VWS V14.01,2013-11-12 21:37:00,
2013-11-12 16:38:00,43.6,31.5,30.28,North,355,7.0,10.0,62,0.00,,---,0.00,VWS V14.01,2013-11-12 21:38:00,
2013-11-12 16:39:00,43.5,31.4,30.28,ENE,57,13.0,13.0,62,0.00,,---,0.00,VWS V14.01,2013-11-12 21:39:00,
2013-11-12 16:40:00,43.5,31.4,30.28,NNE,26,11.0,13.0,62,0.00,,---,0.00,VWS V14.01,2013-11-12 21:40:00,
2013-11-12 16:41:00,43.5,31.4,30.28,NNE,22,11.0,14.0,62,0.00,,---,0.00,VWS V14.01,2013-11-12 21:41:00,
2013-11-12 16:42:00,43.4,31.3,30.28,NNE,28,20.0,20.0,62,0.00,,---,0.00,VWS V14.01,2013-11-12 21:42:00,
2013-11-12 16:43:00,43.3,31.6,30.28,North,350,9.0,20.0,63,0.00,,---,0.00,VWS V14.01,2013-11-12 21:43:00,
2013-11-12 16:44:00,43.2,31.5,30.29,NE,38,12.0,12.0,63,0.00,,---,0.00,VWS V14.01,2013-11-12 21:44:00,
2013-11-12 16:45:00,43.1,31.4,30.29,NNE,32,9.0,13.0,63,0.00,,---,0.00,VWS V14.01,2013-11-12 21:45:00,
2013-11-12 16:46:00,43.1,31.8,30.29,North,11,13.0,14.0,64,0.00,,---,0.00,VWS V14.01,2013-11-12 21:46:00,
2013-11-12 16:47:00,43.0,31.7,30.28,NNE,17,13.0,15.0,64,0.00,,---,0.00,VWS V14.01,2013-11-12 21:47:00,
2013-11-12 16:48:00,42.9,31.6,30.28,ENE,74,11.0,15.0,64,0.00,,---,0.00,VWS V14.01,2013-11-12 21:48:00,
2013-11-12 16:49:00,42.9,31.6,30.28,NNE,33,15.0,15.0,64,0.00,,---,0.00,VWS V14.01,2013-11-12 21:49:00,
2013-11-12 16:50:00,42.8,31.5,30.28,NE,51,11.0,15.0,64,0.00,,---,0.00,VWS V14.01,2013-11-12 21:50:00,
2013-11-12 16:51:00,42.8,31.9,30.29,NNE,30,6.0,11.0,65,0.00,,---,0.00,VWS V14.01,2013-11-12 21:51:00,
2013-11-12 16:52:00,42.7,31.8,30.29,NNE,19,6.0,9.0,65,0.00,,---,0.00,VWS V14.01,2013-11-12 21:52:00,
2013-11-12 16:53:00,42.7,31.8,30.29,NE,50,7.0,10.0,65,0.00,,---,0.00,VWS V14.01,2013-11-12 21:53:00,
2013-11-12 16:54:00,42.7,32.2,30.29,NNE,22,9.0,9.0,66,0.00,,---,0.00,VWS V14.01,2013-11-12 21:54:00,
2013-11-12 16:55:00,42.6,32.0,30.29,NE,38,11.0,14.0,66,0.00,,---,0.00,VWS V14.01,2013-11-12 21:55:00,
2013-11-12 16:56:00,42.5,32.0,30.29,NNE,28,9.0,12.0,66,0.00,,---,0.00,VWS V14.01,2013-11-12 21:56:00,
2013-11-12 16:57:00,42.5,32.0,30.29,NE,53,9.0,10.0,66,0.00,,---,0.00,VWS V14.01,2013-11-12 21:57:00,
2013-11-12 16:58:00,42.4,31.9,30.29,NNE,24,8.0,15.0,66,0.00,,---,0.00,VWS V14.01,2013-11-12 21:58:00,
2013-11-12 16:59:00,42.4,31.9,30.29,NE,34,6.0,6.0,66,0.00,,---,0.00,VWS V14.01,2013-11-12 21:59:00,
2013-11-12 17:00:00,42.3,32.1,30.29,NNE,16,4.0,8.0,67,0.00,,---,0.00,VWS V14.01,2013-11-12 22:00:00,
2013-11-12 17:01:00,42.3,32.1,30.29,NE,44,9.0,9.0,67,0.00,,---,0.00,VWS V14.01,2013-11-12 22:01:00,
2013-11-12 17:02:00,42.3,32.1,30.29,NNE,32,7.0,12.0,67,0.00,,---,0.00,VWS V14.01,2013-11-12 22:02:00,
2013-11-12 17:03:00,42.2,32.0,30.29,NNE,24,9.0,9.0,67,0.00,,---,0.00,VWS V14.01,2013-11-12 22:03:00,
2013-11-12 17:04:00,42.1,32.0,30.30,NNE,19,6.0,10.0,67,0.00,,---,0.00,VWS V14.01,2013-11-12 22:04:00,
2013-11-12 17:05:00,42.1,32.3,30.30,NE,53,5.0,11.0,68,0.00,,---,0.00,VWS V14.01,2013-11-12 22:05:00,
2013-11-12 17:06:00,42.0,32.2,30.30,NNE,33,15.0,15.0,68,0.00,,---,0.00,VWS V14.01,2013-11-12 22:06:00,
2013-11-12 17:07:00,41.9,32.1,30.30,NNE,29,14.0,17.0,68,0.00,,---,0.00,VWS V14.01,2013-11-12 22:07:00,
2013-11-12 17:08:00,41.8,32.0,30.30,NNE,26,8.0,14.0,68,0.00,,---,0.00,VWS V14.01,2013-11-12 22:08:00,
2013-11-12 17:09:00,41.6,32.2,30.30,NE,38,14.0,16.0,69,0.00,,---,0.00,VWS V14.01,2013-11-12 22:09:00,
2013-11-12 17:10:00,41.5,32.1,30.30,NE,42,10.0,14.0,69,0.00,,---,0.00,VWS V14.01,2013-11-12 22:10:00,
2013-11-12 17:11:00,41.4,32.0,30.30,NE,53,14.0,16.0,69,0.00,,---,0.00,VWS V14.01,2013-11-12 22:11:00,
2013-11-12 17:12:00,41.3,32.3,30.30,NNE,17,9.0,14.0,70,0.00,,---,0.00,VWS V14.01,2013-11-12 22:12:00,
2013-11-12 17:13:00,41.2,32.5,30.30,NNE,30,7.0,18.0,71,0.00,,---,0.00,VWS V14.01,2013-11-12 22:13:00,
2013-11-12 17:14:00,41.1,32.4,30.30,NE,55,7.0,10.0,71,0.00,,---,0.00,VWS V14.01,2013-11-12 22:14:00,
2013-11-12 17:15:00,41.1,32.8,30.30,NE,34,5.0,13.0,72,0.00,,---,0.00,VWS V14.01,2013-11-12 22:15:00,
2013-11-12 17:16:00,41.0,32.7,30.30,NNE,30,6.0,12.0,72,0.00,,---,0.00,VWS V14.01,2013-11-12 22:16:00,
2013-11-12 17:17:00,40.9,32.6,30.30,NNE,23,10.0,10.0,72,0.00,,---,0.00,VWS V14.01,2013-11-12 22:17:00,
2013-11-12 17:18:00,40.8,32.8,30.30,NNE,23,7.0,10.0,73,0.00,,---,0.00,VWS V14.01,2013-11-12 22:18:00,
2013-11-12 17:19:00,40.8,32.8,30.31,NNE,29,9.0,9.0,73,0.00,,---,0.00,VWS V14.01,2013-11-12 22:19:00,
2013-11-12 17:20:00,40.7,32.7,30.31,NE,38,9.0,11.0,73,0.00,,---,0.00,VWS V14.01,2013-11-12 22:20:00,
2013-11-12 17:21:00,40.7,33.1,30.31,NNE,32,12.0,12.0,74,0.00,,---,0.00,VWS V14.01,2013-11-12 22:21:00,
2013-11-12 17:22:00,40.5,32.5,30.31,NNE,27,10.0,12.0,73,0.00,,---,0.00,VWS V14.01,2013-11-12 22:22:00,
2013-11-12 17:23:00,40.5,32.9,30.31,NE,45,11.0,12.0,74,0.00,,---,0.00,VWS V14.01,2013-11-12 22:23:00,
2013-11-12 17:24:00,40.4,32.8,30.31,ENE,67,9.0,12.0,74,0.00,,---,0.00,VWS V14.01,2013-11-12 22:24:00,
2013-11-12 17:25:00,40.3,32.7,30.31,NE,47,6.0,11.0,74,0.00,,---,0.00,VWS V14.01,2013-11-12 22:25:00,
2013-11-12 17:26:00,40.2,32.9,30.31,NE,36,6.0,10.0,75,0.00,,---,0.00,VWS V14.01,2013-11-12 22:26:00,
2013-11-12 17:27:00,40.1,32.8,30.31,NNE,23,7.0,11.0,75,0.00,,---,0.00,VWS V14.01,2013-11-12 22:27:00,
2013-11-12 17:28:00,40.1,32.8,30.31,North,350,10.0,13.0,75,0.00,,---,0.00,VWS V14.01,2013-11-12 22:28:00,
2013-11-12 17:29:00,39.9,32.6,30.31,NE,48,12.0,12.0,75,0.00,,---,0.00,VWS V14.01,2013-11-12 22:29:00,
2013-11-12 17:30:00,39.8,32.2,30.31,NE,38,19.0,19.0,74,0.00,,---,0.00,VWS V14.01,2013-11-12 22:30:00,
2013-11-12 17:31:00,39.7,32.1,30.31,NE,48,9.0,19.0,74,0.00,,---,0.00,VWS V14.01,2013-11-12 22:31:00,
2013-11-12 17:32:00,39.6,32.0,30.32,ENE,69,12.0,17.0,74,0.00,,---,0.00,VWS V14.01,2013-11-12 22:32:00,
2013-11-12 17:33:00,39.5,32.2,30.32,NE,50,8.0,12.0,75,0.00,,---,0.00,VWS V14.01,2013-11-12 22:33:00,
2013-11-12 17:34:00,39.5,32.2,30.32,NE,42,6.0,9.0,75,0.00,,---,0.00,VWS V14.01,2013-11-12 22:34:00,
2013-11-12 17:35:00,39.4,32.5,30.32,NE,36,11.0,11.0,76,0.00,,---,0.00,VWS V14.01,2013-11-12 22:35:00,
2013-11-12 17:36:00,39.3,32.4,30.32,NE,50,9.0,12.0,76,0.00,,---,0.00,VWS V14.01,2013-11-12 22:36:00,
2013-11-12 17:37:00,39.3,32.4,30.32,NNE,31,4.0,9.0,76,0.00,,---,0.00,VWS V14.01,2013-11-12 22:37:00,
2013-11-12 17:38:00,39.2,32.3,30.32,NE,38,6.0,11.0,76,0.00,,---,0.00,VWS V14.01,2013-11-12 22:38:00,
2013-11-12 17:39:00,39.1,32.2,30.32,NE,49,17.0,17.0,76,0.00,,---,0.00,VWS V14.01,2013-11-12 22:39:00,
2013-11-12 17:40:00,39.1,32.2,30.32,NE,53,8.0,17.0,76,0.00,,---,0.00,VWS V14.01,2013-11-12 22:40:00,
2013-11-12 17:41:00,39.0,32.1,30.32,ENE,74,9.0,10.0,76,0.00,,---,0.00,VWS V14.01,2013-11-12 22:41:00,
2013-11-12 17:42:00,38.9,32.0,30.32,NE,47,10.0,13.0,76,0.00,,---,0.00,VWS V14.01,2013-11-12 22:42:00,
2013-11-12 17:43:00,38.9,32.0,30.32,NE,51,13.0,13.0,76,0.00,,---,0.00,VWS V14.01,2013-11-12 22:43:00,
2013-11-12 17:44:00,38.8,31.9,30.32,NNE,30,11.0,14.0,76,0.00,,---,0.00,VWS V14.01,2013-11-12 22:44:00,
2013-11-12 17:45:00,38.7,31.8,30.32,ENE,66,5.0,11.0,76,0.00,,---,0.00,VWS V14.01,2013-11-12 22:45:00,
2013-11-12 17:46:00,38.7,31.8,30.33,NE,34,8.0,12.0,76,0.00,,---,0.00,VWS V14.01,2013-11-12 22:46:00,
2013-11-12 17:47:00,38.7,31.8,30.33,NE,39,10.0,14.0,76,0.00,,---,0.00,VWS V14.01,2013-11-12 22:47:00,
2013-11-12 17:48:00,38.6,31.7,30.32,NNE,28,8.0,14.0,76,0.00,,---,0.00,VWS V14.01,2013-11-12 22:48:00,
2013-11-12 17:49:00,38.5,31.6,30.32,NNE,13,8.0,10.0,76,0.00,,---,0.00,VWS V14.01,2013-11-12 22:49:00,
2013-11-12 17:50:00,38.5,31.6,30.33,NNE,30,8.0,11.0,76,0.00,,---,0.00,VWS V14.01,2013-11-12 22:50:00,
2013-11-12 17:51:00,38.5,31.6,30.33,NE,36,8.0,11.0,76,0.00,,---,0.00,VWS V14.01,2013-11-12 22:51:00,
2013-11-12 17:52:00,38.4,31.5,30.33,NE,53,8.0,15.0,76,0.00,,---,0.00,VWS V14.01,2013-11-12 22:52:00,
2013-11-12 17:53:00,38.4,31.5,30.33,NNE,23,7.0,12.0,76,0.00,,---,0.00,VWS V14.01,2013-11-12 22:53:00,
2013-11-12 17:54:00,38.4,31.5,30.33,ENE,62,12.0,12.0,76,0.00,,---,0.00,VWS V14.01,2013-11-12 22:54:00,
2013-11-12 17:55:00,38.4,31.5,30.33,NNE,32,8.0,10.0,76,0.00,,---,0.00,VWS V14.01,2013-11-12 22:55:00,
2013-11-12 17:56:00,38.4,31.5,30.33,NE,55,12.0,12.0,76,0.00,,---,0.00,VWS V14.01,2013-11-12 22:56:00,
2013-11-12 17:57:00,38.3,31.7,30.32,NE,38,12.0,16.0,77,0.00,,---,0.00,VWS V14.01,2013-11-12 22:57:00,
2013-11-12 17:58:00,38.3,31.4,30.33,ENE,58,16.0,16.0,76,0.00,,---,0.00,VWS V14.01,2013-11-12 22:58:00,
2013-11-12 17:59:00,38.3,31.7,30.33,NE,47,7.0,7.0,77,0.00,,---,0.00,VWS V14.01,2013-11-12 22:59:00,
2013-11-12 18:00:00,38.3,31.7,30.33,NE,48,10.0,13.0,77,0.00,,---,0.00,VWS V14.01,2013-11-12 23:00:00,
2013-11-12 18:01:00,38.2,31.6,30.33,NE,44,12.0,15.0,77,0.00,,---,0.00,VWS V14.01,2013-11-12 23:01:00,
2013-11-12 18:02:00,38.2,31.6,30.33,NE,53,7.0,16.0,77,0.00,,---,0.00,VWS V14.01,2013-11-12 23:02:00,
2013-11-12 18:03:00,38.2,31.6,30.33,NE,47,12.0,13.0,77,0.00,,---,0.00,VWS V14.01,2013-11-12 23:03:00,
2013-11-12 18:04:00,38.2,31.6,30.33,NE,47,12.0,13.0,77,0.00,,---,0.00,VWS V14.01,2013-11-12 23:04:00,
2013-11-12 18:05:00,38.1,31.9,30.33,ENE,61,11.0,12.0,78,0.00,,---,0.00,VWS V14.01,2013-11-12 23:05:00,
2013-11-12 18:06:00,38.1,31.9,30.33,NE,48,7.0,14.0,78,0.00,,---,0.00,VWS V14.01,2013-11-12 23:06:00,
2013-11-12 18:07:00,38.1,31.9,30.33,NE,39,9.0,9.0,78,0.00,,---,0.00,VWS V14.01,2013-11-12 23:07:00,
2013-11-12 18:08:00,38.1,31.9,30.33,NE,36,8.0,8.0,78,0.00,,---,0.00,VWS V14.01,2013-11-12 23:08:00,
2013-11-12 18:09:00,38.0,31.8,30.33,NNE,23,8.0,8.0,78,0.00,,---,0.00,VWS V14.01,2013-11-12 23:09:00,
2013-11-12 18:10:00,38.0,31.8,30.34,NE,39,9.0,10.0,78,0.00,,---,0.00,VWS V14.01,2013-11-12 23:10:00,
2013-11-12 18:11:00,38.0,32.1,30.34,NNE,23,12.0,12.0,79,0.00,,---,0.00,VWS V14.01,2013-11-12 23:11:00,
2013-11-12 18:12:00,38.0,32.1,30.34,NE,41,8.0,12.0,79,0.00,,---,0.00,VWS V14.01,2013-11-12 23:12:00,
2013-11-12 18:13:00,38.0,32.1,30.34,ENE,65,7.0,11.0,79,0.00,,---,0.00,VWS V14.01,2013-11-12 23:13:00,
2013-11-12 18:14:00,37.9,32.0,30.34,NE,53,10.0,11.0,79,0.00,,---,0.00,VWS V14.01,2013-11-12 23:14:00,
2013-11-12 18:15:00,37.9,32.0,30.34,ENE,57,14.0,14.0,79,0.00,,---,0.00,VWS V14.01,2013-11-12 23:15:00,
2013-11-12 18:16:00,37.9,32.0,30.34,ENE,61,10.0,14.0,79,0.00,,---,0.00,VWS V14.01,2013-11-12 23:16:00,
2013-11-12 18:17:00,37.8,31.9,30.34,NE,36,8.0,13.0,79,0.00,,---,0.00,VWS V14.01,2013-11-12 23:17:00,
2013-11-12 18:18:00,37.7,32.1,30.34,NNE,19,8.0,15.0,80,0.00,,---,0.00,VWS V14.01,2013-11-12 23:18:00,
2013-11-12 18:19:00,37.7,32.1,30.34,NNE,19,8.0,15.0,80,0.00,,---,0.00,VWS V14.01,2013-11-12 23:19:00,
2013-11-12 18:20:00,37.6,32.0,30.34,NNE,28,9.0,12.0,80,0.00,,---,0.00,VWS V14.01,2013-11-12 23:20:00,
2013-11-12 18:21:00,37.6,32.0,30.34,NE,47,10.0,11.0,80,0.00,,---,0.00,VWS V14.01,2013-11-12 23:21:00,
2013-11-12 18:22:00,37.6,32.0,30.34,NE,48,8.0,14.0,80,0.00,,---,0.00,VWS V14.01,2013-11-12 23:22:00,
2013-11-12 18:23:00,37.5,32.2,30.34,NE,36,9.0,11.0,81,0.00,,---,0.00,VWS V14.01,2013-11-12 23:23:00,
2013-11-12 18:24:00,37.5,32.2,30.34,NNE,32,9.0,11.0,81,0.00,,---,0.00,VWS V14.01,2013-11-12 23:24:00,
2013-11-12 18:25:00,37.4,32.1,30.35,NE,42,6.0,9.0,81,0.00,,---,0.00,VWS V14.01,2013-11-12 23:25:00,
2013-11-12 18:26:00,37.4,32.1,30.35,ENE,58,8.0,12.0,81,0.00,,---,0.00,VWS V14.01,2013-11-12 23:26:00,
2013-11-12 18:27:00,37.3,32.0,30.35,NE,47,6.0,9.0,81,0.00,,---,0.00,VWS V14.01,2013-11-12 23:27:00,
2013-11-12 18:28:00,37.3,32.3,30.35,NE,55,8.0,13.0,82,0.00,,---,0.00,VWS V14.01,2013-11-12 23:28:00,
2013-11-12 18:29:00,37.3,32.3,30.35,ENE,69,9.0,13.0,82,0.00,,---,0.00,VWS V14.01,2013-11-12 23:29:00,
2013-11-12 18:30:00,37.2,32.2,30.35,NE,53,17.0,17.0,82,0.00,,---,0.00,VWS V14.01,2013-11-12 23:30:00,
2013-11-12 18:31:00,37.2,31.9,30.35,ENE,65,11.0,17.0,81,0.00,,---,0.00,VWS V14.01,2013-11-12 23:31:00,
2013-11-12 18:32:00,37.1,31.8,30.35,ENE,59,8.0,12.0,81,0.00,,---,0.00,VWS V14.01,2013-11-12 23:32:00,
2013-11-12 18:33:00,37.1,31.8,30.35,NNE,22,9.0,12.0,81,0.00,,---,0.00,VWS V14.01,2013-11-12 23:33:00,
2013-11-12 18:34:00,37.1,31.8,30.35,NE,47,7.0,12.0,81,0.00,,---,0.00,VWS V14.01,2013-11-12 23:34:00,
2013-11-12 18:35:00,37.1,31.8,30.35,NNE,17,11.0,17.0,81,0.00,,---,0.00,VWS V14.01,2013-11-12 23:35:00,
2013-11-12 18:36:00,37.0,31.4,30.35,ENE,58,10.0,12.0,80,0.00,,---,0.00,VWS V14.01,2013-11-12 23:36:00,
2013-11-12 18:37:00,37.0,31.7,30.35,NE,55,10.0,15.0,81,0.00,,---,0.00,VWS V14.01,2013-11-12 23:37:00,
2013-11-12 18:38:00,36.9,31.6,30.35,NE,45,7.0,12.0,81,0.00,,---,0.00,VWS V14.01,2013-11-12 23:38:00,
2013-11-12 18:39:00,36.9,31.6,30.35,NNE,20,9.0,12.0,81,0.00,,---,0.00,VWS V14.01,2013-11-12 23:39:00,
2013-11-12 18:40:00,36.9,31.6,30.35,ENE,63,9.0,9.0,81,0.00,,---,0.00,VWS V14.01,2013-11-12 23:40:00,
2013-11-12 18:41:00,36.9,31.6,30.35,NE,47,11.0,13.0,81,0.00,,---,0.00,VWS V14.01,2013-11-12 23:41:00,
2013-11-12 18:42:00,36.9,31.6,30.35,ENE,69,9.0,11.0,81,0.00,,---,0.00,VWS V14.01,2013-11-12 23:42:00,
2013-11-12 18:43:00,36.8,31.5,30.35,NE,47,6.0,11.0,81,0.00,,---,0.00,VWS V14.01,2013-11-12 23:43:00,
2013-11-12 18:44:00,36.8,31.5,30.35,NE,46,6.0,11.0,81,0.00,,---,0.00,VWS V14.01,2013-11-12 23:44:00,
2013-11-12 18:45:00,36.8,31.5,30.35,ENE,63,10.0,11.0,81,0.00,,---,0.00,VWS V14.01,2013-11-12 23:45:00,
2013-11-12 18:46:00,36.8,31.5,30.36,NNE,30,7.0,10.0,81,0.00,,---,0.00,VWS V14.01,2013-11-12 23:46:00,
2013-11-12 18:47:00,36.8,31.5,30.36,NE,35,4.0,7.0,81,0.00,,---,0.00,VWS V14.01,2013-11-12 23:47:00,
2013-11-12 18:48:00,36.7,31.7,30.36,NE,53,4.0,7.0,82,0.00,,---,0.00,VWS V14.01,2013-11-12 23:48:00,
2013-11-12 18:49:00,36.7,31.7,30.36,NNE,23,4.0,7.0,82,0.00,,---,0.00,VWS V14.01,2013-11-12 23:49:00,
2013-11-12 18:50:00,36.7,31.7,30.36,NE,47,7.0,11.0,82,0.00,,---,0.00,VWS V14.01,2013-11-12 23:50:00,
2013-11-12 18:51:00,36.7,31.4,30.36,ENE,58,7.0,9.0,81,0.00,,---,0.00,VWS V14.01,2013-11-12 23:51:00,
2013-11-12 18:52:00,36.7,31.4,30.36,ENE,62,7.0,7.0,81,0.00,,---,0.00,VWS V14.01,2013-11-12 23:52:00,
2013-11-12 18:53:00,36.8,31.5,30.36,ENE,67,9.0,9.0,81,0.00,,---,0.00,VWS V14.01,2013-11-12 23:53:00,
2013-11-12 18:54:00,36.8,31.5,30.36,NE,48,4.0,9.0,81,0.00,,---,0.00,VWS V14.01,2013-11-12 23:54:00,
2013-11-12 18:55:00,36.8,31.5,30.36,ENE,67,5.0,5.0,81,0.00,,---,0.00,VWS V14.01,2013-11-12 23:55:00,
2013-11-12 18:56:00,36.8,31.5,30.36,ENE,61,7.0,8.0,81,0.00,,---,0.00,VWS V14.01,2013-11-12 23:56:00,
2013-11-12 18:57:00,36.8,31.5,30.36,NE,47,7.0,13.0,81,0.00,,---,0.00,VWS V14.01,2013-11-12 23:57:00,
2013-11-12 18:58:00,36.8,31.5,30.36,NNE,16,11.0,11.0,81,0.00,,---,0.00,VWS V14.01,2013-11-12 23:58:00,
2013-11-12 18:59:00,36.8,31.5,30.36,NE,54,10.0,11.0,81,0.00,,---,0.00,VWS V14.01,2013-11-12 23:59:00,
2013-11-12 19:00:00,36.7,31.4,30.36,NE,48,6.0,10.0,81,0.00,,---,0.00,VWS V14.01,2013-11-13 00:00:00,
2013-11-12 19:01:00,36.8,31.2,30.36,NNE,16,7.0,8.0,80,0.00,,---,0.00,VWS V14.01,2013-11-13 00:01:00,
2013-11-12 19:02:00,36.7,31.1,30.36,NE,53,7.0,9.0,80,0.00,,---,0.00,VWS V14.01,2013-11-13 00:02:00,
2013-11-12 19:03:00,36.7,31.1,30.36,ENE,67,5.0,13.0,80,0.00,,---,0.00,VWS V14.01,2013-11-13 00:03:00,
2013-11-12 19:04:00,36.7,31.1,30.36,NE,47,11.0,13.0,80,0.00,,---,0.00,VWS V14.01,2013-11-13 00:04:00,
2013-11-12 19:05:00,36.7,31.1,30.37,NE,36,5.0,13.0,80,0.00,,---,0.00,VWS V14.01,2013-11-13 00:05:00,
2013-11-12 19:06:00,36.7,31.1,30.37,ENE,71,8.0,8.0,80,0.00,,---,0.00,VWS V14.01,2013-11-13 00:06:00,
2013-11-12 19:07:00,36.7,31.1,30.37,ENE,69,8.0,9.0,80,0.00,,---,0.00,VWS V14.01,2013-11-13 00:07:00,
2013-11-12 19:08:00,36.7,31.4,30.37,NE,50,7.0,11.0,81,0.00,,---,0.00,VWS V14.01,2013-11-13 00:08:00,
2013-11-12 19:09:00,36.7,31.4,30.37,NE,35,7.0,11.0,81,0.00,,---,0.00,VWS V14.01,2013-11-13 00:09:00,
2013-11-12 19:10:00,36.6,31.3,30.37,NE,53,4.0,10.0,81,0.00,,---,0.00,VWS V14.01,2013-11-13 00:10:00,
2013-11-12 19:11:00,36.6,31.3,30.37,ENE,71,7.0,10.0,81,0.00,,---,0.00,VWS V14.01,2013-11-13 00:11:00,
2013-11-12 19:12:00,36.5,31.2,30.37,NNE,28,3.0,7.0,81,0.00,,---,0.00,VWS V14.01,2013-11-13 00:12:00,
2013-11-12 19:13:00,36.5,31.2,30.37,NE,38,6.0,11.0,81,0.00,,---,0.00,VWS V14.01,2013-11-13 00:13:00,
2013-11-12 19:14:00,36.5,31.2,30.37,ENE,71,9.0,11.0,81,0.00,,---,0.00,VWS V14.01,2013-11-13 00:14:00,
2013-11-12 19:15:00,36.4,31.4,30.37,NNE,12,8.0,12.0,82,0.00,,---,0.00,VWS V14.01,2013-11-13 00:15:00,
2013-11-12 19:16:00,36.4,31.4,30.37,NE,34,5.0,9.0,82,0.00,,---,0.00,VWS V14.01,2013-11-13 00:16:00,
2013-11-12 19:17:00,36.3,31.3,30.37,ENE,58,4.0,7.0,82,0.00,,---,0.00,VWS V14.01,2013-11-13 00:17:00,
2013-11-12 19:18:00,36.2,31.5,30.37,NNE,33,5.0,5.0,83,0.00,,---,0.00,VWS V14.01,2013-11-13 00:18:00,
2013-11-12 19:19:00,36.1,31.5,30.37,NNE,26,5.0,5.0,83,0.00,,---,0.00,VWS V14.01,2013-11-13 00:19:00,
2013-11-12 19:20:00,36.0,31.4,30.37,NE,43,6.0,6.0,83,0.00,,---,0.00,VWS V14.01,2013-11-13 00:20:00,
2013-11-12 19:21:00,36.0,31.6,30.37,NE,42,7.0,8.0,84,0.00,,---,0.00,VWS V14.01,2013-11-13 00:21:00,
2013-11-12 19:22:00,35.9,31.5,30.37,NNE,22,8.0,10.0,84,0.00,,---,0.00,VWS V14.01,2013-11-13 00:22:00,
2013-11-12 19:23:00,35.7,31.6,30.37,NE,46,5.0,7.0,85,0.00,,---,0.00,VWS V14.01,2013-11-13 00:23:00,
2013-11-12 19:24:00,35.7,31.6,30.37,NNE,30,6.0,8.0,85,0.00,,---,0.00,VWS V14.01,2013-11-13 00:24:00,
2013-11-12 19:25:00,35.6,31.5,30.37,NNE,32,7.0,10.0,85,0.00,,---,0.00,VWS V14.01,2013-11-13 00:25:00,
2013-11-12 19:26:00,35.5,31.7,30.38,NNE,28,5.0,8.0,86,0.00,,---,0.00,VWS V14.01,2013-11-13 00:26:00,
2013-11-12 19:27:00,35.5,31.7,30.38,NE,36,1.0,5.0,86,0.00,,---,0.00,VWS V14.01,2013-11-13 00:27:00,
2013-11-12 19:28:00,35.4,31.9,30.38,NNE,27,4.0,4.0,87,0.00,,---,0.00,VWS V14.01,2013-11-13 00:28:00,
2013-11-12 19:29:00,35.4,31.9,30.38,NE,38,4.0,5.0,87,0.00,,---,0.00,VWS V14.01,2013-11-13 00:29:00,
2013-11-12 19:30:00,35.3,31.8,30.38,NNE,22,7.0,8.0,87,0.00,,---,0.00,VWS V14.01,2013-11-13 00:30:00,
2013-11-12 19:31:00,35.3,31.8,30.38,NNE,19,5.0,7.0,87,0.00,,---,0.00,VWS V14.01,2013-11-13 00:31:00,
2013-11-12 19:32:00,35.2,31.7,30.38,NNE,29,2.0,5.0,87,0.00,,---,0.00,VWS V14.01,2013-11-13 00:32:00,
2013-11-12 19:33:00,35.1,31.6,30.38,NE,51,7.0,7.0,87,0.00,,---,0.00,VWS V14.01,2013-11-13 00:33:00,
2013-11-12 19:34:00,35.1,31.9,30.38,NNE,16,7.0,7.0,88,0.00,,---,0.00,VWS V14.01,2013-11-13 00:34:00,
2013-11-12 19:35:00,35.1,31.9,30.38,NE,36,9.0,9.0,88,0.00,,---,0.00,VWS V14.01,2013-11-13 00:35:00,
2013-11-12 19:36:00,35.0,31.8,30.38,NNE,32,8.0,9.0,88,0.00,,---,0.00,VWS V14.01,2013-11-13 00:36:00,
2013-11-12 19:37:00,35.0,31.8,30.38,NNE,13,5.0,8.0,88,0.00,,---,0.00,VWS V14.01,2013-11-13 00:37:00,
2013-11-12 19:38:00,34.9,31.7,30.38,NNE,22,5.0,6.0,88,0.00,,---,0.00,VWS V14.01,2013-11-13 00:38:00,
2013-11-12 19:39:00,34.9,32.0,30.38,North,5,4.0,6.0,89,0.00,,---,0.00,VWS V14.01,2013-11-13 00:39:00,
2013-11-12 19:40:00,34.8,31.9,30.38,NE,35,4.0,5.0,89,0.00,,---,0.00,VWS V14.01,2013-11-13 00:40:00,
2013-11-12 19:41:00,34.8,31.9,30.38,NNE,30,5.0,13.0,89,0.00,,---,0.00,VWS V14.01,2013-11-13 00:41:00,
2013-11-12 19:42:00,34.8,31.9,30.38,NE,38,8.0,9.0,89,0.00,,---,0.00,VWS V14.01,2013-11-13 00:42:00,
2013-11-12 19:43:00,34.7,31.8,30.38,NW,325,1.0,6.0,89,0.00,,---,0.00,VWS V14.01,2013-11-13 00:43:00,
2013-11-12 19:44:00,34.7,31.8,30.38,ENE,57,4.0,6.0,89,0.00,,---,0.00,VWS V14.01,2013-11-13 00:44:00,
2013-11-12 19:45:00,34.7,31.8,30.38,NNE,26,6.0,6.0,89,0.00,,---,0.00,VWS V14.01,2013-11-13 00:45:00,
2013-11-12 19:46:00,34.7,31.8,30.38,NNE,32,10.0,11.0,89,0.00,,---,0.00,VWS V14.01,2013-11-13 00:46:00,
2013-11-12 19:47:00,34.7,31.8,30.38,NNE,32,4.0,11.0,89,0.00,,---,0.00,VWS V14.01,2013-11-13 00:47:00,
2013-11-12 19:48:00,34.7,32.1,30.38,NE,44,7.0,8.0,90,0.00,,---,0.00,VWS V14.01,2013-11-13 00:48:00,
2013-11-12 19:49:00,34.7,32.1,30.38,NNE,27,4.0,8.0,90,0.00,,---,0.00,VWS V14.01,2013-11-13 00:49:00,
2013-11-12 19:50:00,34.6,32.0,30.38,ENE,57,3.0,5.0,90,0.00,,---,0.00,VWS V14.01,2013-11-13 00:50:00,
2013-11-12 19:51:00,34.7,32.1,30.38,NNE,32,5.0,5.0,90,0.00,,---,0.00,VWS V14.01,2013-11-13 00:51:00,
2013-11-12 19:52:00,34.6,32.0,30.38,NE,34,2.0,5.0,90,0.00,,---,0.00,VWS V14.01,2013-11-13 00:52:00,
2013-11-12 19:53:00,34.7,32.1,30.38,NE,36,4.0,5.0,90,0.00,,---,0.00,VWS V14.01,2013-11-13 00:53:00,
2013-11-12 19:54:00,34.7,32.1,30.38,NNE,30,4.0,5.0,90,0.00,,---,0.00,VWS V14.01,2013-11-13 00:54:00,
2013-11-12 19:55:00,34.7,32.1,30.38,NE,34,4.0,5.0,90,0.00,,---,0.00,VWS V14.01,2013-11-13 00:55:00,
2013-11-12 19:56:00,34.7,32.1,30.38,NNE,24,6.0,8.0,90,0.00,,---,0.00,VWS V14.01,2013-11-13 00:56:00,
2013-11-12 19:57:00,34.7,32.1,30.38,NE,34,4.0,8.0,90,0.00,,---,0.00,VWS V14.01,2013-11-13 00:57:00,
2013-11-12 19:58:00,34.7,32.1,30.39,NE,47,4.0,7.0,90,0.00,,---,0.00,VWS V14.01,2013-11-13 00:58:00,
2013-11-12 19:59:00,34.7,32.1,30.39,NNE,26,3.0,7.0,90,0.00,,---,0.00,VWS V14.01,2013-11-13 00:59:00,
2013-11-12 20:00:00,34.8,32.2,30.38,NNE,30,4.0,4.0,90,0.00,,---,0.00,VWS V14.01,2013-11-13 01:00:00,
2013-11-12 20:01:00,34.8,32.2,30.38,NE,42,4.0,4.0,90,0.00,,---,0.00,VWS V14.01,2013-11-13 01:01:00,
2013-11-12 20:02:00,34.9,32.0,30.39,NE,51,2.0,4.0,89,0.00,,---,0.00,VWS V14.01,2013-11-13 01:02:00,
2013-11-12 20:03:00,34.9,32.0,30.38,NE,39,3.0,4.0,89,0.00,,---,0.00,VWS V14.01,2013-11-13 01:03:00,
2013-11-12 20:04:00,34.9,32.0,30.38,NE,38,0.0,4.0,89,0.00,,---,0.00,VWS V14.01,2013-11-13 01:04:00,
2013-11-12 20:05:00,34.9,32.0,30.38,NE,35,3.0,4.0,89,0.00,,---,0.00,VWS V14.01,2013-11-13 01:05:00,
2013-11-12 20:06:00,34.9,32.0,30.38,NE,55,2.0,3.0,89,0.00,,---,0.00,VWS V14.01,2013-11-13 01:06:00,
2013-11-12 20:07:00,35.0,32.1,30.38,NE,41,5.0,5.0,89,0.00,,---,0.00,VWS V14.01,2013-11-13 01:07:00,
2013-11-12 20:08:00,35.0,32.1,30.38,NE,54,4.0,5.0,89,0.00,,---,0.00,VWS V14.01,2013-11-13 01:08:00,
2013-11-12 20:09:00,35.0,32.1,30.38,NE,48,5.0,7.0,89,0.00,,---,0.00,VWS V14.01,2013-11-13 01:09:00,
2013-11-12 20:10:00,35.0,31.8,30.39,ENE,62,3.0,7.0,88,0.00,,---,0.00,VWS V14.01,2013-11-13 01:10:00,
2013-11-12 20:11:00,35.1,31.9,30.39,NNE,12,2.0,4.0,88,0.00,,---,0.00,VWS V14.01,2013-11-13 01:11:00,
2013-11-12 20:12:00,35.1,31.9,30.39,NE,48,3.0,4.0,88,0.00,,---,0.00,VWS V14.01,2013-11-13 01:12:00,
2013-11-12 20:13:00,35.2,31.7,30.39,North,349,4.0,4.0,87,0.00,,---,0.00,VWS V14.01,2013-11-13 01:13:00,
2013-11-12 20:14:00,35.2,31.7,30.39,NE,38,4.0,5.0,87,0.00,,---,0.00,VWS V14.01,2013-11-13 01:14:00,
2013-11-12 20:15:00,35.3,31.8,30.39,NNE,26,4.0,4.0,87,0.00,,---,0.00,VWS V14.01,2013-11-13 01:15:00,
2013-11-12 20:16:00,35.3,31.8,30.39,NE,51,2.0,7.0,87,0.00,,---,0.00,VWS V14.01,2013-11-13 01:16:00,
2013-11-12 20:17:00,35.3,31.5,30.39,NE,38,4.0,5.0,86,0.00,,---,0.00,VWS V14.01,2013-11-13 01:17:00,
2013-11-12 20:18:00,35.4,31.6,30.39,NE,49,3.0,4.0,86,0.00,,---,0.00,VWS V14.01,2013-11-13 01:18:00,
2013-11-12 20:19:00,35.4,31.6,30.39,NNE,18,2.0,4.0,86,0.00,,---,0.00,VWS V14.01,2013-11-13 01:19:00,
2013-11-12 20:20:00,35.5,31.7,30.39,NE,46,3.0,4.0,86,0.00,,---,0.00,VWS V14.01,2013-11-13 01:20:00,
2013-11-12 20:21:00,35.5,31.5,30.39,NE,49,5.0,5.0,85,0.00,,---,0.00,VWS V14.01,2013-11-13 01:21:00,
2013-11-12 20:22:00,35.6,31.5,30.39,NE,38,4.0,6.0,85,0.00,,---,0.00,VWS V14.01,2013-11-13 01:22:00,
2013-11-12 20:23:00,35.7,31.4,30.39,NE,49,2.0,4.0,84,0.00,,---,0.00,VWS V14.01,2013-11-13 01:23:00,
2013-11-12 20:24:00,35.7,31.4,30.39,NE,36,4.0,4.0,84,0.00,,---,0.00,VWS V14.01,2013-11-13 01:24:00,
2013-11-12 20:25:00,35.7,31.0,30.39,NE,38,3.0,6.0,83,0.00,,---,0.00,VWS V14.01,2013-11-13 01:25:00,
2013-11-12 20:26:00,35.8,31.1,30.39,NE,36,3.0,4.0,83,0.00,,---,0.00,VWS V14.01,2013-11-13 01:26:00,
2013-11-12 20:27:00,35.8,31.1,30.39,NE,38,3.0,6.0,83,0.00,,---,0.00,VWS V14.01,2013-11-13 01:27:00,
2013-11-12 20:28:00,35.9,31.2,30.39,ENE,71,3.0,4.0,83,0.00,,---,0.00,VWS V14.01,2013-11-13 01:28:00,
2013-11-12 20:29:00,35.9,31.2,30.39,NE,36,2.0,4.0,83,0.00,,---,0.00,VWS V14.01,2013-11-13 01:29:00,
2013-11-12 20:30:00,35.9,31.2,30.39,NE,38,2.0,4.0,83,0.00,,---,0.00,VWS V14.01,2013-11-13 01:30:00,
2013-11-12 20:31:00,36.0,31.4,30.39,NNE,23,4.0,5.0,83,0.00,,---,0.00,VWS V14.01,2013-11-13 01:31:00,
2013-11-12 20:32:00,36.0,31.4,30.39,NNE,23,3.0,4.0,83,0.00,,---,0.00,VWS V14.01,2013-11-13 01:32:00,
2013-11-12 20:33:00,36.0,31.4,30.40,NE,48,7.0,7.0,83,0.00,,---,0.00,VWS V14.01,2013-11-13 01:33:00,
2013-11-12 20:34:00,36.0,31.0,30.40,NE,42,3.0,7.0,82,0.00,,---,0.00,VWS V14.01,2013-11-13 01:34:00,
2013-11-12 20:35:00,36.0,31.0,30.39,NNE,29,4.0,5.0,82,0.00,,---,0.00,VWS V14.01,2013-11-13 01:35:00,
2013-11-12 20:36:00,36.0,31.0,30.40,NE,50,3.0,5.0,82,0.00,,---,0.00,VWS V14.01,2013-11-13 01:36:00,
2013-11-12 20:37:00,36.0,31.0,30.40,NE,42,5.0,5.0,82,0.00,,---,0.00,VWS V14.01,2013-11-13 01:37:00,
2013-11-12 20:38:00,36.1,31.1,30.40,NNE,32,4.0,7.0,82,0.00,,---,0.00,VWS V14.01,2013-11-13 01:38:00,
2013-11-12 20:39:00,36.1,31.1,30.40,NE,36,3.0,7.0,82,0.00,,---,0.00,VWS V14.01,2013-11-13 01:39:00,
2013-11-12 20:40:00,36.1,31.1,30.40,NNW,344,2.0,5.0,82,0.00,,---,0.00,VWS V14.01,2013-11-13 01:40:00,
2013-11-12 20:41:00,36.1,31.1,30.40,NE,55,2.0,3.0,82,0.00,,---,0.00,VWS V14.01,2013-11-13 01:41:00,
2013-11-12 20:42:00,36.2,31.2,30.40,NNE,30,5.0,5.0,82,0.00,,---,0.00,VWS V14.01,2013-11-13 01:42:00,
2013-11-12 20:43:00,36.1,31.1,30.40,NE,41,5.0,5.0,82,0.00,,---,0.00,VWS V14.01,2013-11-13 01:43:00,
2013-11-12 20:44:00,36.1,31.1,30.40,NE,36,4.0,5.0,82,0.00,,---,0.00,VWS V14.01,2013-11-13 01:44:00,
2013-11-12 20:45:00,36.1,31.1,30.40,NE,42,2.0,4.0,82,0.00,,---,0.00,VWS V14.01,2013-11-13 01:45:00,
2013-11-12 20:46:00,36.2,31.2,30.40,NE,36,4.0,4.0,82,0.00,,---,0.00,VWS V14.01,2013-11-13 01:46:00,
2013-11-12 20:47:00,36.2,31.2,30.40,NNE,13,3.0,5.0,82,0.00,,---,0.00,VWS V14.01,2013-11-13 01:47:00,
2013-11-12 20:48:00,36.2,31.2,30.41,NE,42,3.0,5.0,82,0.00,,---,0.00,VWS V14.01,2013-11-13 01:48:00,
2013-11-12 20:49:00,36.1,31.1,30.41,NNE,19,3.0,5.0,82,0.00,,---,0.00,VWS V14.01,2013-11-13 01:49:00,
2013-11-12 20:50:00,36.2,31.2,30.41,NNE,29,4.0,4.0,82,0.00,,---,0.00,VWS V14.01,2013-11-13 01:50:00,
2013-11-12 20:51:00,36.2,31.2,30.41,NNE,32,4.0,6.0,82,0.00,,---,0.00,VWS V14.01,2013-11-13 01:51:00,
2013-11-12 20:52:00,36.2,31.2,30.41,NNE,15,1.0,5.0,82,0.00,,---,0.00,VWS V14.01,2013-11-13 01:52:00,
2013-11-12 20:53:00,36.2,31.2,30.41,NE,36,3.0,4.0,82,0.00,,---,0.00,VWS V14.01,2013-11-13 01:53:00,
2013-11-12 20:54:00,36.2,31.2,30.41,NE,35,3.0,4.0,82,0.00,,---,0.00,VWS V14.01,2013-11-13 01:54:00,
2013-11-12 20:55:00,36.2,31.2,30.41,NNE,24,2.0,4.0,82,0.00,,---,0.00,VWS V14.01,2013-11-13 01:55:00,
2013-11-12 20:56:00,36.3,31.3,30.41,NNE,32,4.0,5.0,82,0.00,,---,0.00,VWS V14.01,2013-11-13 01:56:00,
2013-11-12 20:57:00,36.3,31.3,30.41,NNE,26,5.0,6.0,82,0.00,,---,0.00,VWS V14.01,2013-11-13 01:57:00,
2013-11-12 20:58:00,36.3,31.0,30.41,NE,42,3.0,6.0,81,0.00,,---,0.00,VWS V14.01,2013-11-13 01:58:00,
2013-11-12 20:59:00,36.3,31.0,30.41,NE,38,4.0,6.0,81,0.00,,---,0.00,VWS V14.01,2013-11-13 01:59:00,
2013-11-12 21:00:00,36.3,31.0,30.41,NNE,32,0.0,4.0,81,0.00,,---,0.00,VWS V14.01,2013-11-13 02:00:00,
2013-11-12 21:01:00,36.3,31.0,30.41,NNE,33,1.0,3.0,81,0.00,,---,0.00,VWS V14.01,2013-11-13 02:01:00,
2013-11-12 21:02:00,36.3,31.0,30.41,NE,42,1.0,3.0,81,0.00,,---,0.00,VWS V14.01,2013-11-13 02:02:00,
2013-11-12 21:03:00,36.3,31.0,30.41,NNE,32,2.0,2.0,81,0.00,,---,0.00,VWS V14.01,2013-11-13 02:03:00,
2013-11-12 21:04:00,36.3,31.0,30.41,NE,49,1.0,2.0,81,0.00,,---,0.00,VWS V14.01,2013-11-13 02:04:00,
2013-11-12 21:05:00,36.4,31.1,30.41,NE,42,2.0,2.0,81,0.00,,---,0.00,VWS V14.01,2013-11-13 02:05:00,
2013-11-12 21:06:00,36.3,31.3,30.41,NE,53,0.0,4.0,82,0.00,,---,0.00,VWS V14.01,2013-11-13 02:06:00,
2013-11-12 21:07:00,36.3,31.0,30.41,NE,52,2.0,2.0,81,0.00,,---,0.00,VWS V14.01,2013-11-13 02:07:00,
2013-11-12 21:08:00,36.3,31.0,30.41,NE,47,2.0,2.0,81,0.00,,---,0.00,VWS V14.01,2013-11-13 02:08:00,
2013-11-12 21:09:00,36.4,31.4,30.41,NE,38,2.0,3.0,82,0.00,,---,0.00,VWS V14.01,2013-11-13 02:09:00,
2013-11-12 21:10:00,36.3,31.0,30.41,NE,44,3.0,4.0,81,0.00,,---,0.00,VWS V14.01,2013-11-13 02:10:00,
2013-11-12 21:11:00,36.3,31.0,30.41,NE,39,2.0,3.0,81,0.00,,---,0.00,VWS V14.01,2013-11-13 02:11:00,
2013-11-12 21:12:00,36.4,31.1,30.41,NE,42,2.0,4.0,81,0.00,,---,0.00,VWS V14.01,2013-11-13 02:12:00,
2013-11-12 21:13:00,36.4,31.1,30.41,ENE,61,2.0,3.0,81,0.00,,---,0.00,VWS V14.01,2013-11-13 02:13:00,
2013-11-12 21:14:00,36.4,31.1,30.41,NE,47,1.0,3.0,81,0.00,,---,0.00,VWS V14.01,2013-11-13 02:14:00,
2013-11-12 21:15:00,36.4,31.1,30.41,NE,53,2.0,2.0,81,0.00,,---,0.00,VWS V14.01,2013-11-13 02:15:00,
2013-11-12 21:16:00,36.4,31.1,30.41,NE,47,1.0,2.0,81,0.00,,---,0.00,VWS V14.01,2013-11-13 02:16:00,
2013-11-12 21:17:00,36.4,31.1,30.41,NNE,31,2.0,2.0,81,0.00,,---,0.00,VWS V14.01,2013-11-13 02:17:00,
2013-11-12 21:18:00,36.4,31.1,30.41,NNE,23,2.0,3.0,81,0.00,,---,0.00,VWS V14.01,2013-11-13 02:18:00,
2013-11-12 21:19:00,36.4,31.1,30.41,NE,35,2.0,3.0,81,0.00,,---,0.00,VWS V14.01,2013-11-13 02:19:00,
2013-11-12 21:20:00,36.4,31.1,30.42,NE,55,2.0,3.0,81,0.00,,---,0.00,VWS V14.01,2013-11-13 02:20:00,
2013-11-12 21:21:00,36.4,31.1,30.42,NE,47,2.0,3.0,81,0.00,,---,0.00,VWS V14.01,2013-11-13 02:21:00,
2013-11-12 21:22:00,36.4,31.1,30.42,NNE,27,2.0,3.0,81,0.00,,---,0.00,VWS V14.01,2013-11-13 02:22:00,
2013-11-12 21:23:00,36.4,31.1,30.42,NNE,33,1.0,1.0,81,0.00,,---,0.00,VWS V14.01,2013-11-13 02:23:00,
2013-11-12 21:24:00,36.4,31.1,30.42,NE,47,1.0,1.0,81,0.00,,---,0.00,VWS V14.01,2013-11-13 02:24:00,
2013-11-12 21:25:00,36.5,31.2,30.42,NE,42,3.0,4.0,81,0.00,,---,0.00,VWS V14.01,2013-11-13 02:25:00,
2013-11-12 21:26:00,36.5,30.9,30.42,NNE,26,3.0,4.0,80,0.00,,---,0.00,VWS V14.01,2013-11-13 02:26:00,
2013-11-12 21:27:00,36.5,30.9,30.42,NNE,17,2.0,3.0,80,0.00,,---,0.00,VWS V14.01,2013-11-13 02:27:00,
2013-11-12 21:28:00,36.5,30.9,30.42,NE,51,1.0,1.0,80,0.00,,---,0.00,VWS V14.01,2013-11-13 02:28:00,
2013-11-12 21:29:00,36.5,30.9,30.42,NNE,28,3.0,3.0,80,0.00,,---,0.00,VWS V14.01,2013-11-13 02:29:00,
2013-11-12 21:30:00,36.5,30.9,30.42,NNE,30,3.0,3.0,80,0.00,,---,0.00,VWS V14.01,2013-11-13 02:30:00,
2013-11-12 21:31:00,36.5,30.9,30.42,NNE,28,2.0,3.0,80,0.00,,---,0.00,VWS V14.01,2013-11-13 02:31:00,
2013-11-12 21:32:00,36.5,30.9,30.42,NE,39,2.0,2.0,80,0.00,,---,0.00,VWS V14.01,2013-11-13 02:32:00,
2013-11-12 21:33:00,36.6,31.0,30.42,NE,39,3.0,3.0,80,0.00,,---,0.00,VWS V14.01,2013-11-13 02:33:00,
2013-11-12 21:34:00,36.5,30.9,30.42,North,360,4.0,4.0,80,0.00,,---,0.00,VWS V14.01,2013-11-13 02:34:00,
2013-11-12 21:35:00,36.6,30.7,30.42,NNE,32,3.0,4.0,79,0.00,,---,0.00,VWS V14.01,2013-11-13 02:35:00,
2013-11-12 21:36:00,36.6,30.7,30.42,NNE,23,3.0,4.0,79,0.00,,---,0.00,VWS V14.01,2013-11-13 02:36:00,
2013-11-12 21:37:00,36.6,30.7,30.43,NE,42,2.0,3.0,79,0.00,,---,0.00,VWS V14.01,2013-11-13 02:37:00,
2013-11-12 21:38:00,36.6,30.7,30.43,NNE,28,2.0,2.0,79,0.00,,---,0.00,VWS V14.01,2013-11-13 02:38:00,
2013-11-12 21:39:00,36.7,30.8,30.43,NE,39,3.0,4.0,79,0.00,,---,0.00,VWS V14.01,2013-11-13 02:39:00,
2013-11-12 21:40:00,36.7,30.8,30.43,NE,36,2.0,4.0,79,0.00,,---,0.00,VWS V14.01,2013-11-13 02:40:00,
2013-11-12 21:41:00,36.7,30.5,30.43,NNE,28,3.0,4.0,78,0.00,,---,0.00,VWS V14.01,2013-11-13 02:41:00,
2013-11-12 21:42:00,36.7,30.5,30.42,NE,43,3.0,4.0,78,0.00,,---,0.00,VWS V14.01,2013-11-13 02:42:00,
2013-11-12 21:43:00,36.7,30.5,30.43,NNE,23,5.0,5.0,78,0.00,,---,0.00,VWS V14.01,2013-11-13 02:43:00,
2013-11-12 21:44:00,36.7,30.5,30.43,NNE,27,2.0,5.0,78,0.00,,---,0.00,VWS V14.01,2013-11-13 02:44:00,
2013-11-12 21:45:00,36.8,30.6,30.43,NNE,31,3.0,3.0,78,0.00,,---,0.00,VWS V14.01,2013-11-13 02:45:00,
2013-11-12 21:46:00,36.7,30.5,30.43,NNE,17,4.0,4.0,78,0.00,,---,0.00,VWS V14.01,2013-11-13 02:46:00,
2013-11-12 21:47:00,36.8,30.3,30.42,NE,42,4.0,5.0,77,0.00,,---,0.00,VWS V14.01,2013-11-13 02:47:00,
2013-11-12 21:48:00,36.8,30.0,30.43,NE,49,3.0,4.0,76,0.00,,---,0.00,VWS V14.01,2013-11-13 02:48:00,
2013-11-12 21:49:00,36.8,30.0,30.43,NNE,28,1.0,4.0,76,0.00,,---,0.00,VWS V14.01,2013-11-13 02:49:00,
2013-11-12 21:50:00,36.8,30.0,30.43,NE,35,3.0,5.0,76,0.00,,---,0.00,VWS V14.01,2013-11-13 02:50:00,
2013-11-12 21:51:00,36.8,30.0,30.43,NNE,18,3.0,4.0,76,0.00,,---,0.00,VWS V14.01,2013-11-13 02:51:00,
2013-11-12 21:52:00,36.8,30.0,30.43,NE,34,4.0,5.0,76,0.00,,---,0.00,VWS V14.01,2013-11-13 02:52:00,
2013-11-12 21:53:00,36.9,29.7,30.43,NNE,20,5.0,5.0,75,0.00,,---,0.00,VWS V14.01,2013-11-13 02:53:00,
2013-11-12 21:54:00,36.9,29.7,30.43,NE,36,4.0,6.0,75,0.00,,---,0.00,VWS V14.01,2013-11-13 02:54:00,
2013-11-12 21:55:00,36.9,29.7,30.43,NNE,22,2.0,4.0,75,0.00,,---,0.00,VWS V14.01,2013-11-13 02:55:00,
2013-11-12 21:56:00,36.9,29.7,30.43,NNE,24,3.0,3.0,75,0.00,,---,0.00,VWS V14.01,2013-11-13 02:56:00,
2013-11-12 21:57:00,36.9,29.4,30.43,NE,42,4.0,4.0,74,0.00,,---,0.00,VWS V14.01,2013-11-13 02:57:00,
2013-11-12 21:58:00,36.9,29.4,30.43,NNE,19,3.0,3.0,74,0.00,,---,0.00,VWS V14.01,2013-11-13 02:58:00,
2013-11-12 21:59:00,36.9,29.4,30.43,NNE,24,3.0,4.0,74,0.00,,---,0.00,VWS V14.01,2013-11-13 02:59:00,
2013-11-12 22:00:00,36.9,29.1,30.42,NNE,32,4.0,4.0,73,0.00,,---,0.00,VWS V14.01,2013-11-13 03:00:00,
2013-11-12 22:01:00,37.0,29.2,30.42,NNE,23,3.0,4.0,73,0.00,,---,0.00,VWS V14.01,2013-11-13 03:01:00,
2013-11-12 22:02:00,37.0,29.2,30.43,North,355,3.0,3.0,73,0.00,,---,0.00,VWS V14.01,2013-11-13 03:02:00,
2013-11-12 22:03:00,37.0,29.2,30.43,NE,34,4.0,4.0,73,0.00,,---,0.00,VWS V14.01,2013-11-13 03:03:00,
2013-11-12 22:04:00,37.0,29.2,30.43,North,11,3.0,4.0,73,0.00,,---,0.00,VWS V14.01,2013-11-13 03:04:00,
2013-11-12 22:05:00,37.0,28.8,30.43,NE,34,2.0,5.0,72,0.00,,---,0.00,VWS V14.01,2013-11-13 03:05:00,
2013-11-12 22:06:00,37.0,29.2,30.43,NNE,23,3.0,4.0,73,0.00,,---,0.00,VWS V14.01,2013-11-13 03:06:00,
2013-11-12 22:07:00,37.0,28.8,30.43,NE,39,3.0,5.0,72,0.00,,---,0.00,VWS V14.01,2013-11-13 03:07:00,
2013-11-12 22:08:00,37.1,28.6,30.43,NE,39,6.0,6.0,71,0.00,,---,0.00,VWS V14.01,2013-11-13 03:08:00,
2013-11-12 22:09:00,37.1,28.6,30.43,NNE,26,3.0,6.0,71,0.00,,---,0.00,VWS V14.01,2013-11-13 03:09:00,
2013-11-12 22:10:00,37.1,28.6,30.43,NNE,25,3.0,4.0,71,0.00,,---,0.00,VWS V14.01,2013-11-13 03:10:00,
2013-11-12 22:11:00,37.1,28.2,30.43,NNE,25,4.0,4.0,70,0.00,,---,0.00,VWS V14.01,2013-11-13 03:11:00,
2013-11-12 22:12:00,37.2,28.3,30.43,NNE,24,4.0,4.0,70,0.00,,---,0.00,VWS V14.01,2013-11-13 03:12:00,
2013-11-12 22:13:00,37.2,28.3,30.43,NNE,16,1.0,1.0,70,0.00,,---,0.00,VWS V14.01,2013-11-13 03:13:00,
2013-11-12 22:14:00,37.2,28.3,30.43,NNE,32,3.0,3.0,70,0.00,,---,0.00,VWS V14.01,2013-11-13 03:14:00,
2013-11-12 22:15:00,37.2,28.7,30.43,NNE,25,3.0,5.0,71,0.00,,---,0.00,VWS V14.01,2013-11-13 03:15:00,
2013-11-12 22:16:00,37.2,28.3,30.43,NNE,23,3.0,4.0,70,0.00,,---,0.00,VWS V14.01,2013-11-13 03:16:00,
2013-11-12 22:17:00,37.2,28.3,30.43,NE,38,3.0,5.0,70,0.00,,---,0.00,VWS V14.01,2013-11-13 03:17:00,
2013-11-12 22:18:00,37.2,28.0,30.43,NNE,13,2.0,3.0,69,0.00,,---,0.00,VWS V14.01,2013-11-13 03:18:00,
2013-11-12 22:19:00,37.2,28.3,30.43,NE,38,3.0,4.0,70,0.00,,---,0.00,VWS V14.01,2013-11-13 03:19:00,
2013-11-12 22:20:00,37.2,28.0,30.43,NNE,29,4.0,5.0,69,0.00,,---,0.00,VWS V14.01,2013-11-13 03:20:00,
2013-11-12 22:21:00,37.2,28.0,30.43,NE,48,2.0,4.0,69,0.00,,---,0.00,VWS V14.01,2013-11-13 03:21:00,
2013-11-12 22:22:00,37.2,28.0,30.43,NE,38,3.0,4.0,69,0.00,,---,0.00,VWS V14.01,2013-11-13 03:22:00,
2013-11-12 22:23:00,37.2,27.6,30.43,NNE,33,5.0,5.0,68,0.00,,---,0.00,VWS V14.01,2013-11-13 03:23:00,
2013-11-12 22:24:00,37.3,27.4,30.43,NNE,19,4.0,6.0,67,0.00,,---,0.00,VWS V14.01,2013-11-13 03:24:00,
2013-11-12 22:25:00,37.3,27.4,30.43,NE,55,4.0,5.0,67,0.00,,---,0.00,VWS V14.01,2013-11-13 03:25:00,
2013-11-12 22:26:00,37.3,27.4,30.43,NNE,28,2.0,4.0,67,0.00,,---,0.00,VWS V14.01,2013-11-13 03:26:00,
2013-11-12 22:27:00,37.3,27.4,30.43,NNE,12,3.0,3.0,67,0.00,,---,0.00,VWS V14.01,2013-11-13 03:27:00,
2013-11-12 22:28:00,37.3,27.4,30.44,NNE,26,3.0,3.0,67,0.00,,---,0.00,VWS V14.01,2013-11-13 03:28:00,
2013-11-12 22:29:00,37.3,27.4,30.44,NNE,33,5.0,5.0,67,0.00,,---,0.00,VWS V14.01,2013-11-13 03:29:00,
2013-11-12 22:30:00,37.3,27.0,30.44,NNE,14,2.0,5.0,66,0.00,,---,0.00,VWS V14.01,2013-11-13 03:30:00,
2013-11-12 22:31:00,37.3,27.0,30.44,NNE,27,7.0,7.0,66,0.00,,---,0.00,VWS V14.01,2013-11-13 03:31:00,
2013-11-12 22:32:00,37.3,27.0,30.44,NNE,16,5.0,7.0,66,0.00,,---,0.00,VWS V14.01,2013-11-13 03:32:00,
2013-11-12 22:33:00,37.4,26.7,30.43,NNE,28,4.0,5.0,65,0.00,,---,0.00,VWS V14.01,2013-11-13 03:33:00,
2013-11-12 22:34:00,37.4,26.7,30.43,NNE,20,5.0,5.0,65,0.00,,---,0.00,VWS V14.01,2013-11-13 03:34:00,
2013-11-12 22:35:00,37.4,26.7,30.43,NNE,24,5.0,5.0,65,0.00,,---,0.00,VWS V14.01,2013-11-13 03:35:00,
2013-11-12 22:36:00,37.4,26.7,30.43,NNE,32,4.0,5.0,65,0.00,,---,0.00,VWS V14.01,2013-11-13 03:36:00,
2013-11-12 22:37:00,37.4,26.7,30.44,North,351,3.0,4.0,65,0.00,,---,0.00,VWS V14.01,2013-11-13 03:37:00,
2013-11-12 22:38:00,37.4,26.7,30.44,NNE,28,8.0,8.0,65,0.00,,---,0.00,VWS V14.01,2013-11-13 03:38:00,
2013-11-12 22:39:00,37.4,26.7,30.44,NNE,33,6.0,8.0,65,0.00,,---,0.00,VWS V14.01,2013-11-13 03:39:00,
2013-11-12 22:40:00,37.4,26.0,30.44,NE,35,5.0,6.0,63,0.00,,---,0.00,VWS V14.01,2013-11-13 03:40:00,
2013-11-12 22:41:00,37.5,25.7,30.44,NNE,30,4.0,8.0,62,0.00,,---,0.00,VWS V14.01,2013-11-13 03:41:00,
2013-11-12 22:42:00,37.5,25.7,30.44,NNE,24,5.0,6.0,62,0.00,,---,0.00,VWS V14.01,2013-11-13 03:42:00,
2013-11-12 22:43:00,37.5,25.7,30.44,NE,35,6.0,6.0,62,0.00,,---,0.00,VWS V14.01,2013-11-13 03:43:00,
2013-11-12 22:44:00,37.5,25.7,30.44,NNE,24,3.0,6.0,62,0.00,,---,0.00,VWS V14.01,2013-11-13 03:44:00,
2013-11-12 22:45:00,37.6,25.8,30.44,NNE,24,6.0,7.0,62,0.00,,---,0.00,VWS V14.01,2013-11-13 03:45:00,
2013-11-12 22:46:00,37.6,25.4,30.44,NNE,27,7.0,8.0,61,0.00,,---,0.00,VWS V14.01,2013-11-13 03:46:00,
2013-11-12 22:47:00,37.6,25.0,30.44,NE,55,6.0,8.0,60,0.00,,---,0.00,VWS V14.01,2013-11-13 03:47:00,
2013-11-12 22:48:00,37.6,25.0,30.44,NNE,32,6.0,6.0,60,0.00,,---,0.00,VWS V14.01,2013-11-13 03:48:00,
2013-11-12 22:49:00,37.6,25.0,30.44,NNE,26,6.0,6.0,60,0.00,,---,0.00,VWS V14.01,2013-11-13 03:49:00,
2013-11-12 22:50:00,37.6,25.0,30.44,NNE,23,8.0,10.0,60,0.00,,---,0.00,VWS V14.01,2013-11-13 03:50:00,
2013-11-12 22:51:00,37.6,24.2,30.44,NNE,24,7.0,8.0,58,0.00,,---,0.00,VWS V14.01,2013-11-13 03:51:00,
2013-11-12 22:52:00,37.7,24.3,30.44,NNE,27,7.0,8.0,58,0.00,,---,0.00,VWS V14.01,2013-11-13 03:52:00,
2013-11-12 22:53:00,37.7,24.3,30.44,NNE,26,8.0,8.0,58,0.00,,---,0.00,VWS V14.01,2013-11-13 03:53:00,
2013-11-12 22:54:00,37.7,23.9,30.44,NE,42,6.0,8.0,57,0.00,,---,0.00,VWS V14.01,2013-11-13 03:54:00,
2013-11-12 22:55:00,37.7,23.9,30.44,NNE,19,9.0,9.0,57,0.00,,---,0.00,VWS V14.01,2013-11-13 03:55:00,
2013-11-12 22:56:00,37.7,23.4,30.44,NNE,14,7.0,10.0,56,0.00,,---,0.00,VWS V14.01,2013-11-13 03:56:00,
2013-11-12 22:57:00,37.8,23.1,30.44,NE,46,8.0,9.0,55,0.00,,---,0.00,VWS V14.01,2013-11-13 03:57:00,
2013-11-12 22:58:00,37.8,23.5,30.44,NE,48,6.0,6.0,56,0.00,,---,0.00,VWS V14.01,2013-11-13 03:58:00,
2013-11-12 22:59:00,37.8,23.1,30.44,NNE,31,8.0,10.0,55,0.00,,---,0.00,VWS V14.01,2013-11-13 03:59:00,
2013-11-12 23:00:00,37.8,22.7,30.44,NNE,14,7.0,13.0,54,0.00,,---,0.00,VWS V14.01,2013-11-13 04:00:00,
2013-11-12 23:01:00,37.8,22.7,30.44,NNW,333,5.0,9.0,54,0.00,,---,0.00,VWS V14.01,2013-11-13 04:01:00,
2013-11-12 23:02:00,37.8,22.7,30.44,NE,34,7.0,12.0,54,0.00,,---,0.00,VWS V14.01,2013-11-13 04:02:00,
2013-11-12 23:03:00,37.8,22.2,30.45,NE,36,6.0,9.0,53,0.00,,---,0.00,VWS V14.01,2013-11-13 04:03:00,
2013-11-12 23:04:00,37.8,22.2,30.45,NE,47,7.0,9.0,53,0.00,,---,0.00,VWS V14.01,2013-11-13 04:04:00,
2013-11-12 23:05:00,37.8,22.2,30.45,NNE,16,3.0,7.0,53,0.00,,---,0.00,VWS V14.01,2013-11-13 04:05:00,
2013-11-12 23:06:00,37.8,22.7,30.45,NNE,17,5.0,5.0,54,0.00,,---,0.00,VWS V14.01,2013-11-13 04:06:00,
2013-11-12 23:07:00,37.8,22.2,30.45,NE,34,5.0,7.0,53,0.00,,---,0.00,VWS V14.01,2013-11-13 04:07:00,
2013-11-12 23:08:00,37.7,22.1,30.45,NNE,32,4.0,5.0,53,0.00,,---,0.00,VWS V14.01,2013-11-13 04:08:00,
2013-11-12 23:09:00,37.7,22.6,30.45,NNE,33,5.0,5.0,54,0.00,,---,0.00,VWS V14.01,2013-11-13 04:09:00,
2013-11-12 23:10:00,37.7,22.6,30.44,NNE,22,4.0,6.0,54,0.00,,---,0.00,VWS V14.01,2013-11-13 04:10:00,
2013-11-12 23:11:00,37.6,22.5,30.44,NNE,30,4.0,6.0,54,0.00,,---,0.00,VWS V14.01,2013-11-13 04:11:00,
2013-11-12 23:12:00,37.6,22.0,30.45,NNE,18,6.0,6.0,53,0.00,,---,0.00,VWS V14.01,2013-11-13 04:12:00,
2013-11-12 23:13:00,37.6,22.0,30.45,NNE,23,3.0,5.0,53,0.00,,---,0.00,VWS V14.01,2013-11-13 04:13:00,
2013-11-12 23:14:00,37.5,21.9,30.45,NE,38,7.0,8.0,53,0.00,,---,0.00,VWS V14.01,2013-11-13 04:14:00,
2013-11-12 23:15:00,37.5,21.9,30.45,NNE,30,6.0,7.0,53,0.00,,---,0.00,VWS V14.01,2013-11-13 04:15:00,
2013-11-12 23:16:00,37.5,21.5,30.45,NNE,26,7.0,8.0,52,0.00,,---,0.00,VWS V14.01,2013-11-13 04:16:00,
2013-11-12 23:17:00,37.5,21.5,30.45,NNE,29,10.0,12.0,52,0.00,,---,0.00,VWS V14.01,2013-11-13 04:17:00,
2013-11-12 23:18:00,37.5,21.0,30.45,NE,47,11.0,11.0,51,0.00,,---,0.00,VWS V14.01,2013-11-13 04:18:00,
2013-11-12 23:19:00,37.5,21.0,30.45,NE,41,6.0,11.0,51,0.00,,---,0.00,VWS V14.01,2013-11-13 04:19:00,
2013-11-12 23:20:00,37.5,20.6,30.45,NNE,31,4.0,7.0,50,0.00,,---,0.00,VWS V14.01,2013-11-13 04:20:00,
2013-11-12 23:21:00,37.4,20.9,30.45,NNE,26,7.0,10.0,51,0.00,,---,0.00,VWS V14.01,2013-11-13 04:21:00,
2013-11-12 23:22:00,37.4,20.5,30.45,NE,47,13.0,13.0,50,0.00,,---,0.00,VWS V14.01,2013-11-13 04:22:00,
2013-11-12 23:23:00,37.4,20.0,30.45,North,5,10.0,10.0,49,0.00,,---,0.00,VWS V14.01,2013-11-13 04:23:00,
2013-11-12 23:24:00,37.5,20.1,30.45,NE,39,10.0,11.0,49,0.00,,---,0.00,VWS V14.01,2013-11-13 04:24:00,
2013-11-12 23:25:00,37.5,19.6,30.45,NE,41,12.0,12.0,48,0.00,,---,0.00,VWS V14.01,2013-11-13 04:25:00,
2013-11-12 23:26:00,37.4,20.0,30.45,NE,44,8.0,12.0,49,0.00,,---,0.00,VWS V14.01,2013-11-13 04:26:00,
2013-11-12 23:27:00,37.4,20.0,30.45,NNE,23,7.0,8.0,49,0.00,,---,0.00,VWS V14.01,2013-11-13 04:27:00,
2013-11-12 23:28:00,37.4,20.0,30.45,NNE,26,5.0,7.0,49,0.00,,---,0.00,VWS V14.01,2013-11-13 04:28:00,
2013-11-12 23:29:00,37.4,20.0,30.45,NE,39,6.0,7.0,49,0.00,,---,0.00,VWS V14.01,2013-11-13 04:29:00,
2013-11-12 23:30:00,37.3,20.4,30.45,NE,51,8.0,8.0,50,0.00,,---,0.00,VWS V14.01,2013-11-13 04:30:00,
2013-11-12 23:31:00,37.3,20.4,30.45,NE,35,6.0,9.0,50,0.00,,---,0.00,VWS V14.01,2013-11-13 04:31:00,
2013-11-12 23:32:00,37.2,20.3,30.45,NNE,17,8.0,11.0,50,0.00,,---,0.00,VWS V14.01,2013-11-13 04:32:00,
2013-11-12 23:33:00,37.2,19.8,30.45,NNW,344,6.0,8.0,49,0.00,,---,0.00,VWS V14.01,2013-11-13 04:33:00,
2013-11-12 23:34:00,37.2,19.3,30.45,ENE,58,9.0,12.0,48,0.00,,---,0.00,VWS V14.01,2013-11-13 04:34:00,
2013-11-12 23:35:00,37.2,19.3,30.45,NNE,26,5.0,14.0,48,0.00,,---,0.00,VWS V14.01,2013-11-13 04:35:00,
2013-11-12 23:36:00,37.2,19.8,30.45,NNE,23,5.0,7.0,49,0.00,,---,0.00,VWS V14.01,2013-11-13 04:36:00,
2013-11-12 23:37:00,37.2,19.8,30.45,NNE,32,6.0,10.0,49,0.00,,---,0.00,VWS V14.01,2013-11-13 04:37:00,
2013-11-12 23:38:00,37.1,19.2,30.45,NE,38,8.0,8.0,48,0.00,,---,0.00,VWS V14.01,2013-11-13 04:38:00,
2013-11-12 23:39:00,37.1,19.7,30.45,NNE,32,5.0,8.0,49,0.00,,---,0.00,VWS V14.01,2013-11-13 04:39:00,
2013-11-12 23:40:00,37.1,19.2,30.46,NE,43,10.0,11.0,48,0.00,,---,0.00,VWS V14.01,2013-11-13 04:40:00,
2013-11-12 23:41:00,37.1,19.2,30.46,NNE,30,5.0,10.0,48,0.00,,---,0.00,VWS V14.01,2013-11-13 04:41:00,
2013-11-12 23:42:00,37.1,19.2,30.46,NNE,28,10.0,10.0,48,0.00,,---,0.00,VWS V14.01,2013-11-13 04:42:00,
2013-11-12 23:43:00,37.1,19.7,30.46,NE,43,7.0,7.0,49,0.00,,---,0.00,VWS V14.01,2013-11-13 04:43:00,
2013-11-12 23:44:00,37.0,19.6,30.46,NE,53,6.0,7.0,49,0.00,,---,0.00,VWS V14.01,2013-11-13 04:44:00,
2013-11-12 23:45:00,36.9,19.5,30.46,NNE,29,5.0,6.0,49,0.00,,---,0.00,VWS V14.01,2013-11-13 04:45:00,
2013-11-12 23:46:00,36.9,19.5,30.46,NNE,32,7.0,9.0,49,0.00,,---,0.00,VWS V14.01,2013-11-13 04:46:00,
2013-11-12 23:47:00,36.9,19.5,30.46,NE,44,7.0,11.0,49,0.00,,---,0.00,VWS V14.01,2013-11-13 04:47:00,
2013-11-12 23:48:00,36.9,19.5,30.46,NNE,25,10.0,10.0,49,0.00,,---,0.00,VWS V14.01,2013-11-13 04:48:00,
2013-11-12 23:49:00,36.9,19.5,30.46,NE,46,5.0,10.0,49,0.00,,---,0.00,VWS V14.01,2013-11-13 04:49:00,
2013-11-12 23:50:00,36.9,19.5,30.46,NNE,27,4.0,7.0,49,0.00,,---,0.00,VWS V14.01,2013-11-13 04:50:00,
2013-11-12 23:51:00,36.8,19.9,30.46,NE,42,5.0,6.0,50,0.00,,---,0.00,VWS V14.01,2013-11-13 04:51:00,
2013-11-12 23:52:00,36.8,19.9,30.46,NNE,20,5.0,7.0,50,0.00,,---,0.00,VWS V14.01,2013-11-13 04:52:00,
2013-11-12 23:53:00,36.7,19.8,30.46,NNE,22,7.0,14.0,50,0.00,,---,0.00,VWS V14.01,2013-11-13 04:53:00,
2013-11-12 23:54:00,36.7,19.8,30.46,North,350,6.0,14.0,50,0.00,,---,0.00,VWS V14.01,2013-11-13 04:54:00,
2013-11-12 23:55:00,36.7,19.4,30.46,NE,39,7.0,9.0,49,0.00,,---,0.00,VWS V14.01,2013-11-13 04:55:00,
2013-11-12 23:56:00,36.7,19.4,30.46,NE,44,9.0,10.0,49,0.00,,---,0.00,VWS V14.01,2013-11-13 04:56:00,
2013-11-12 23:57:00,36.7,19.4,30.46,NE,42,8.0,9.0,49,0.00,,---,0.00,VWS V14.01,2013-11-13 04:57:00,
2013-11-12 23:58:00,36.6,19.7,30.46,NE,34,9.0,9.0,50,0.00,,---,0.00,VWS V14.01,2013-11-13 04:58:00,
2013-11-12 23:59:00,36.6,19.3,30.46,NE,44,10.0,11.0,49,0.00,,---,0.00,VWS V14.01,2013-11-13 04:59:00,